[[{"header":{"parameterUnit":"m.s-1","parameterCategory":1,"la1":31.0,"la2":29.5877,"lo1":-88.7671,"lo2":-86.6584,"dx":0.0162,"dy":0.0185,"nx":115,"ny":88,"refTime":"2023-01-13T06:00:00:Z","depth":0,"parameterNumber":2,"parameterNumberName":"U-component_of_WINDS"},"data":[0.0,0.0,0.0,0.0,0.0,0.0,0.0,0.0,0.0,0.0,0.0,0.0,0.0,0.0,0.0,0.0,0.0,0.0,0.0,0.0,0.0,0.0,0.0,0.0,0.0,0.0,0.0,0.0,0.0,0.0,0.0,0.0,0.0,0.0,0.0,0.0,0.0,0.0,0.0,0.0,0.0,0.0,0.0,0.0,0.0,0.0,0.0,0.0,0.0,0.0,0.0,0.0,0.0,0.0,0.0,0.0,0.0,0.0,0.0,0.0,0.0,0.0,0.0,0.0,0.0,0.0,0.0,0.0,0.0,0.0,0.0,0.0,0.0,0.0,0.0,0.0,0.0,0.0,0.0,0.0,0.0,0.0,0.0,0.0,0.0,0.0,0.0,0.0,0.0,0.0,0.0,0.0,0.0,0.0,0.0,0.0,0.0,0.0,0.0,0.0,0.0,0.0,0.0,0.0,0.0,0.0,0.0,0.0,0.0,0.0,0.0,0.0,0.0,0.0,0.0,0.0,0.0,0.0,0.0,0.0,0.0,0.0,0.0,0.0,0.0,0.0,0.0,0.0,0.0,0.0,0.0,0.0,0.0,0.0,0.0,0.0,0.0,0.0,0.0,0.0,0.0,0.0,0.0,0.0,0.0,0.0,0.0,0.0,0.0,0.0,0.0,0.0,0.0,0.0,0.0,0.0,0.0,0.0,0.0,0.0,0.0,0.0,0.0,0.0,0.0,0.0,0.0,0.0,0.0,0.0,0.0,0.0,0.0,0.0,0.0,0.0,0.0,0.0,0.0,0.0,0.0,0.0,0.0,0.0,0.0,0.0,0.0,0.0,0.0,0.0,0.0,0.0,0.0,0.0,0.0,0.0,0.0,0.0,0.0,0.0,0.0,0.0,0.0,0.0,0.0,0.0,0.0,0.0,0.0,0.0,0.0,0.0,0.0,0.0,0.0,0.0,0.0,0.0,0.0,0.0,0.0,0.0,0.0,0.0,0.0,0.0,0.0,0.0,0.0,0.0,0.0,0.0,0.0,0.0,0.0,0.0,0.0,0.0,0.0,0.0,0.0,0.0,0.0,0.0,0.0,0.0,0.0,0.0,0.0,0.0,0.0,0.0,0.0,0.0,0.0,0.0,0.0,0.0,0.0,0.0,0.0,0.0,0.0,0.0,0.0,0.0,0.0,0.0,0.0,0.0,0.0,0.0,0.0,0.0,0.0,0.0,0.0,0.0,0.0,0.0,0.0,0.0,0.0,0.0,0.0,0.0,0.0,0.0,0.0,0.0,0.0,0.0,0.0,0.0,0.0,0.0,0.0,0.0,0.0,0.0,0.0,0.0,0.0,0.0,0.0,0.0,0.0,0.0,0.0,0.0,0.0,0.0,0.0,0.0,0.0,0.0,0.0,0.0,0.0,0.0,0.0,0.0,0.0,0.0,0.0,0.0,0.0,0.0,0.0,0.0,0.0,0.0,0.0,0.0,0.0,0.0,0.0,0.0,0.0,0.0,0.0,0.0,0.0,0.0,0.0,0.0,0.0,0.0,0.0,0.0,0.0,0.0,0.0,0.0,0.0,0.0,0.0,0.0,0.0,0.0,0.0,0.0,0.0,0.0,0.0,0.0,0.0,0.0,0.0,0.0,0.0,0.0,0.0,0.0,0.0,0.0,0.0,0.0,0.0,0.0,0.0,0.0,0.0,0.0,0.0,0.0,0.0,0.0,0.0,0.0,0.0,0.0,0.0,0.0,0.0,0.0,0.0,0.0,0.0,0.0,0.0,0.0,0.0,0.0,0.0,0.0,0.0,0.0,0.0,0.0,0.0,0.0,0.0,0.0,0.0,0.0,0.0,0.0,0.0,0.0,0.0,0.0,0.0,0.0,0.0,0.0,0.0,0.0,0.0,0.0,0.0,0.0,0.0,0.0,0.0,0.0,0.0,0.0,0.0,0.0,0.0,0.0,0.0,0.0,0.0,0.0,0.0,0.0,0.0,0.0,0.0,0.0,0.0,0.0,0.0,0.0,0.0,0.0,0.0,0.0,0.0,0.0,0.0,0.0,0.0,0.0,0.0,0.0,0.0,0.0,0.0,0.0,0.0,0.0,0.0,0.0,0.0,0.0,0.0,0.0,0.0,0.0,0.0,0.0,0.0,0.0,0.0,0.0,0.0,0.0,0.0,0.0,0.0,0.0,0.0,0.0,0.0,0.0,0.0,0.0,0.0,0.0,0.0,0.0,0.0,0.0,0.0,0.0,0.0,0.0,0.0,0.0,0.0,0.0,0.0,0.0,0.0,0.0,0.0,0.0,0.0,0.0,0.0,0.0,0.0,0.0,0.0,0.0,0.0,0.0,0.0,0.0,0.0,0.0,0.0,0.0,0.0,0.0,0.0,0.0,0.0,0.0,0.0,0.0,0.0,0.0,0.0,0.0,0.0,0.0,0.0,0.0,0.0,0.0,0.0,0.0,0.0,0.0,0.0,0.0,0.0,0.0,0.0,0.0,0.0,0.0,0.0,0.0,0.0,0.0,0.0,0.0,0.0,0.0,0.0,0.0,0.0,0.0,0.0,0.0,0.0,0.0,0.0,0.0,0.0,0.0,0.0,0.0,0.0,0.0,0.0,0.0,0.0,0.0,0.0,0.0,0.0,0.0,0.0,0.0,0.0,0.0,0.0,0.0,0.0,0.0,0.0,0.0,0.0,0.0,0.0,0.0,0.0,0.0,0.0,0.0,0.0,0.0,0.0,0.0,0.0,0.0,0.0,0.0,0.0,0.0,0.0,0.0,0.0,0.0,0.0,0.0,0.0,0.0,0.0,0.0,0.0,0.0,0.0,0.0,0.0,0.0,0.0,0.0,0.0,0.0,0.0,0.0,0.0,0.0,0.0,0.0,0.0,0.0,0.0,0.0,0.0,0.0,0.0,0.0,0.0,0.0,0.0,0.0,0.0,0.0,0.0,0.0,0.0,0.0,0.0,0.0,0.0,0.0,0.0,0.0,0.0,0.0,0.0,0.0,0.0,0.0,0.0,0.0,0.0,0.0,0.0,0.0,0.0,0.0,0.0,0.0,0.0,0.0,0.0,0.0,0.0,0.0,0.0,0.0,0.0,0.0,0.0,0.0,0.0,0.0,0.0,0.0,0.0,0.0,0.0,0.0,0.0,0.0,0.0,0.0,0.0,0.0,0.0,0.0,0.0,0.0,0.0,0.0,0.0,0.0,0.0,0.0,0.0,0.0,0.0,0.0,0.0,0.0,0.0,0.0,0.0,0.0,0.0,0.0,0.0,0.0,0.0,0.0,0.0,0.0,0.0,0.0,0.0,0.0,0.0,0.0,0.0,0.0,0.0,0.0,0.0,0.0,0.0,0.0,0.0,0.0,0.0,0.0,0.0,0.0,0.0,0.0,0.0,0.0,0.0,0.0,0.0,0.0,0.0,0.0,0.0,0.0,0.0,0.0,0.0,0.0,0.0,0.0,0.0,0.0,0.0,0.0,0.0,0.0,0.0,0.0,0.0,0.0,0.0,0.0,0.0,0.0,0.0,0.0,0.0,0.0,0.0,0.0,0.0,0.0,0.0,0.0,0.0,0.0,0.0,0.0,0.0,0.0,0.0,0.0,0.0,0.0,0.0,0.0,0.0,0.0,0.0,0.0,0.0,0.0,0.0,0.0,0.0,0.0,0.0,0.0,0.0,0.0,0.0,0.0,0.0,0.0,0.0,0.0,0.0,0.0,0.0,0.0,0.0,0.0,0.0,0.0,0.0,0.0,0.0,0.0,0.0,0.0,0.0,0.0,0.0,0.0,0.0,0.0,0.0,0.0,0.0,0.0,0.0,0.0,0.0,0.0,0.0,0.0,0.0,0.0,0.0,0.0,0.0,0.0,0.0,0.0,0.0,0.0,0.0,0.0,0.0,0.0,0.0,0.0,0.0,0.0,0.0,0.0,0.0,0.0,0.0,0.0,0.0,0.0,0.0,0.0,0.0,0.0,0.0,0.0,0.0,0.0,0.0,0.0,0.0,0.0,0.0,0.0,0.0,0.0,0.0,0.0,0.0,0.0,0.0,0.0,0.0,0.0,0.0,0.0,0.0,0.0,0.0,0.0,0.0,0.0,0.0,0.0,0.0,0.0,0.0,0.0,0.0,0.0,0.0,0.0,0.0,0.0,0.0,0.0,0.0,0.0,0.0,0.0,0.0,0.0,0.0,0.0,0.0,0.0,0.0,0.0,0.0,0.0,0.0,0.0,0.0,0.0,0.0,0.0,0.0,0.0,0.0,0.0,-5.25,0.0,0.0,0.0,0.0,0.0,0.0,0.0,0.0,0.0,0.0,0.0,0.0,0.0,0.0,0.0,0.0,0.0,0.0,0.0,0.0,0.0,0.0,0.0,0.0,0.0,0.0,0.0,0.0,0.0,0.0,0.0,0.0,0.0,0.0,0.0,0.0,0.0,0.0,0.0,0.0,0.0,0.0,0.0,0.0,0.0,0.0,0.0,0.0,0.0,0.0,0.0,0.0,0.0,0.0,0.0,0.0,0.0,0.0,0.0,0.0,0.0,0.0,0.0,0.0,0.0,0.0,0.0,0.0,0.0,0.0,0.0,0.0,0.0,0.0,0.0,0.0,0.0,0.0,0.0,0.0,0.0,0.0,0.0,0.0,0.0,0.0,0.0,0.0,0.0,0.0,0.0,0.0,0.0,0.0,0.0,0.0,0.0,0.0,0.0,0.0,0.0,0.0,0.0,0.0,0.0,0.0,0.0,0.0,0.0,0.0,-5.4724,-5.4685,-5.3864,-5.3201,-5.2694,0.0,0.0,0.0,0.0,0.0,0.0,0.0,0.0,0.0,0.0,0.0,0.0,0.0,0.0,0.0,0.0,0.0,0.0,0.0,0.0,0.0,0.0,0.0,0.0,0.0,0.0,0.0,0.0,0.0,0.0,0.0,0.0,0.0,0.0,0.0,0.0,0.0,0.0,0.0,0.0,0.0,0.0,0.0,0.0,0.0,0.0,0.0,0.0,0.0,0.0,0.0,0.0,0.0,0.0,0.0,0.0,0.0,0.0,0.0,0.0,0.0,0.0,0.0,0.0,0.0,0.0,0.0,0.0,0.0,0.0,0.0,0.0,0.0,0.0,0.0,0.0,0.0,0.0,0.0,0.0,0.0,0.0,0.0,0.0,0.0,0.0,0.0,0.0,0.0,0.0,0.0,0.0,0.0,0.0,0.0,0.0,0.0,0.0,0.0,0.0,0.0,0.0,0.0,0.0,0.0,0.0,0.0,0.0,0.0,0.0,0.0,0.0,-5.4754,-5.3781,-5.2732,0.0,0.0,0.0,0.0,0.0,0.0,0.0,0.0,0.0,0.0,0.0,0.0,0.0,0.0,0.0,0.0,0.0,0.0,0.0,0.0,0.0,0.0,0.0,0.0,0.0,0.0,0.0,0.0,0.0,0.0,0.0,0.0,0.0,0.0,0.0,0.0,0.0,0.0,0.0,0.0,0.0,0.0,0.0,0.0,0.0,0.0,0.0,0.0,0.0,0.0,0.0,0.0,0.0,0.0,0.0,0.0,0.0,0.0,0.0,0.0,0.0,0.0,0.0,0.0,0.0,0.0,0.0,0.0,0.0,0.0,0.0,0.0,0.0,0.0,0.0,0.0,0.0,0.0,0.0,0.0,0.0,0.0,0.0,0.0,0.0,0.0,0.0,0.0,0.0,0.0,0.0,0.0,0.0,0.0,0.0,0.0,0.0,0.0,0.0,0.0,0.0,0.0,0.0,0.0,0.0,0.0,0.0,0.0,0.0,0.0,-5.6374,-5.6374,-5.5601,0.0,-5.2849,0.0,0.0,0.0,0.0,0.0,0.0,0.0,0.0,0.0,0.0,0.0,0.0,0.0,0.0,0.0,0.0,0.0,0.0,0.0,0.0,0.0,0.0,0.0,0.0,0.0,0.0,0.0,0.0,0.0,0.0,0.0,0.0,0.0,0.0,0.0,0.0,0.0,0.0,0.0,0.0,0.0,0.0,0.0,0.0,0.0,0.0,0.0,0.0,0.0,0.0,0.0,0.0,0.0,0.0,0.0,0.0,0.0,0.0,0.0,0.0,0.0,0.0,0.0,0.0,0.0,0.0,0.0,0.0,0.0,0.0,0.0,0.0,0.0,0.0,0.0,0.0,0.0,0.0,0.0,0.0,0.0,0.0,0.0,0.0,0.0,0.0,0.0,0.0,0.0,0.0,0.0,0.0,0.0,0.0,0.0,0.0,0.0,0.0,0.0,0.0,0.0,0.0,0.0,0.0,0.0,0.0,0.0,0.0,0.0,0.0,-5.6443,-5.6488,-5.5699,-5.4701,0.0,0.0,0.0,0.0,0.0,0.0,0.0,0.0,0.0,0.0,0.0,0.0,0.0,0.0,0.0,0.0,0.0,0.0,0.0,0.0,0.0,0.0,0.0,0.0,0.0,0.0,0.0,0.0,0.0,0.0,0.0,0.0,0.0,0.0,0.0,0.0,0.0,0.0,0.0,0.0,0.0,0.0,0.0,0.0,0.0,0.0,0.0,0.0,0.0,0.0,0.0,0.0,0.0,0.0,0.0,0.0,0.0,0.0,0.0,0.0,0.0,0.0,0.0,0.0,0.0,0.0,0.0,0.0,0.0,0.0,0.0,0.0,0.0,0.0,0.0,0.0,0.0,0.0,0.0,0.0,0.0,0.0,0.0,0.0,0.0,0.0,0.0,0.0,0.0,0.0,0.0,0.0,0.0,0.0,0.0,0.0,0.0,0.0,0.0,0.0,0.0,0.0,0.0,0.0,0.0,0.0,0.0,0.0,0.0,0.0,-5.6349,-5.6363,-5.639,-5.5896,-5.5182,-5.4335,0.0,0.0,0.0,0.0,0.0,0.0,0.0,0.0,0.0,0.0,0.0,0.0,0.0,0.0,0.0,0.0,0.0,0.0,0.0,0.0,0.0,0.0,0.0,0.0,0.0,0.0,0.0,0.0,0.0,0.0,0.0,0.0,0.0,0.0,0.0,0.0,0.0,0.0,0.0,0.0,0.0,0.0,0.0,0.0,0.0,0.0,0.0,0.0,0.0,0.0,0.0,0.0,0.0,0.0,0.0,0.0,0.0,0.0,0.0,0.0,0.0,0.0,0.0,0.0,0.0,0.0,0.0,0.0,0.0,0.0,0.0,0.0,0.0,0.0,0.0,0.0,0.0,0.0,0.0,0.0,0.0,0.0,0.0,0.0,0.0,0.0,0.0,0.0,0.0,0.0,0.0,0.0,0.0,0.0,0.0,0.0,0.0,0.0,0.0,0.0,0.0,0.0,0.0,0.0,0.0,0.0,0.0,0.0,0.0,-5.6226,-5.6257,-5.6314,-5.6329,-5.595,0.0,0.0,0.0,0.0,0.0,0.0,0.0,0.0,0.0,0.0,0.0,0.0,0.0,0.0,0.0,0.0,0.0,0.0,0.0,0.0,0.0,0.0,0.0,0.0,0.0,0.0,0.0,0.0,0.0,0.0,0.0,0.0,0.0,0.0,0.0,0.0,0.0,0.0,0.0,0.0,0.0,0.0,0.0,0.0,0.0,0.0,0.0,0.0,0.0,0.0,0.0,0.0,0.0,0.0,0.0,0.0,0.0,0.0,0.0,0.0,0.0,0.0,0.0,0.0,0.0,0.0,0.0,0.0,0.0,0.0,0.0,0.0,0.0,0.0,0.0,0.0,0.0,0.0,0.0,0.0,0.0,0.0,0.0,0.0,0.0,0.0,0.0,0.0,0.0,0.0,0.0,0.0,0.0,0.0,0.0,0.0,0.0,0.0,0.0,0.0,0.0,0.0,0.0,0.0,0.0,0.0,0.0,0.0,0.0,-5.6223,-5.6206,-5.6233,-5.6259,-5.6303,-5.5969,0.0,0.0,0.0,0.0,0.0,0.0,0.0,0.0,0.0,0.0,0.0,0.0,0.0,0.0,0.0,0.0,0.0,0.0,0.0,0.0,0.0,0.0,0.0,0.0,0.0,0.0,0.0,0.0,0.0,0.0,0.0,0.0,0.0,0.0,0.0,0.0,0.0,0.0,0.0,0.0,0.0,0.0,0.0,0.0,0.0,0.0,0.0,0.0,0.0,0.0,0.0,0.0,0.0,0.0,0.0,0.0,0.0,0.0,0.0,0.0,0.0,0.0,0.0,0.0,0.0,0.0,0.0,0.0,0.0,0.0,0.0,0.0,0.0,0.0,0.0,0.0,0.0,0.0,0.0,0.0,0.0,0.0,0.0,0.0,0.0,0.0,0.0,0.0,0.0,0.0,0.0,0.0,0.0,0.0,0.0,0.0,0.0,0.0,0.0,0.0,0.0,0.0,0.0,0.0,0.0,0.0,0.0,0.0,0.0,-5.6519,0.0,-5.694,-5.6955,-5.6783,-5.6425,0.0,0.0,0.0,0.0,0.0,0.0,0.0,0.0,0.0,0.0,0.0,0.0,0.0,0.0,0.0,0.0,0.0,0.0,0.0,0.0,0.0,0.0,0.0,0.0,0.0,0.0,0.0,0.0,0.0,0.0,0.0,0.0,0.0,0.0,0.0,0.0,0.0,0.0,0.0,0.0,0.0,0.0,0.0,0.0,0.0,0.0,0.0,0.0,0.0,0.0,0.0,0.0,0.0,0.0,0.0,0.0,0.0,0.0,0.0,0.0,0.0,0.0,0.0,0.0,0.0,0.0,0.0,0.0,0.0,0.0,0.0,0.0,0.0,0.0,0.0,0.0,0.0,0.0,0.0,0.0,0.0,0.0,0.0,0.0,0.0,0.0,0.0,0.0,0.0,0.0,0.0,0.0,0.0,0.0,0.0,0.0,0.0,0.0,0.0,0.0,0.0,0.0,0.0,0.0,0.0,0.0,0.0,0.0,-5.6435,-5.7255,-5.8114,-5.8626,-5.8633,-5.7915,-5.7511,0.0,0.0,0.0,0.0,0.0,0.0,0.0,0.0,0.0,0.0,0.0,0.0,0.0,0.0,0.0,0.0,0.0,0.0,0.0,0.0,0.0,0.0,0.0,0.0,0.0,0.0,0.0,0.0,0.0,0.0,0.0,0.0,0.0,0.0,0.0,0.0,0.0,0.0,0.0,0.0,0.0,0.0,0.0,0.0,0.0,0.0,0.0,0.0,0.0,0.0,0.0,0.0,0.0,0.0,0.0,0.0,0.0,0.0,0.0,0.0,0.0,0.0,0.0,0.0,0.0,0.0,0.0,0.0,0.0,0.0,0.0,0.0,0.0,0.0,0.0,0.0,0.0,0.0,0.0,0.0,0.0,0.0,0.0,0.0,0.0,0.0,0.0,0.0,0.0,0.0,0.0,0.0,0.0,0.0,0.0,0.0,0.0,0.0,0.0,0.0,0.0,0.0,0.0,0.0,0.0,0.0,0.0,0.0,0.0,-5.9791,-6.0612,-6.1046,-6.1067,-6.0364,-5.9456,0.0,0.0,0.0,0.0,0.0,0.0,0.0,0.0,0.0,0.0,0.0,0.0,0.0,0.0,0.0,0.0,0.0,0.0,0.0,0.0,0.0,0.0,0.0,0.0,0.0,0.0,0.0,0.0,0.0,0.0,0.0,0.0,0.0,0.0,0.0,0.0,0.0,0.0,0.0,0.0,0.0,0.0,0.0,0.0,0.0,0.0,0.0,0.0,0.0,0.0,0.0,0.0,0.0,0.0,0.0,0.0,0.0,0.0,0.0,0.0,0.0,0.0,0.0,0.0,0.0,0.0,0.0,0.0,0.0,0.0,0.0,0.0,0.0,0.0,0.0,0.0,0.0,0.0,0.0,0.0,0.0,0.0,0.0,0.0,0.0,0.0,0.0,0.0,0.0,0.0,0.0,0.0,0.0,0.0,0.0,0.0,0.0,0.0,0.0,0.0,0.0,0.0,0.0,0.0,0.0,0.0,0.0,0.0,0.0,-6.412,-6.3773,-6.3581,-6.3604,-6.2523,-6.1379,-6.0106,0.0,0.0,0.0,0.0,0.0,0.0,0.0,0.0,0.0,0.0,0.0,0.0,0.0,0.0,0.0,0.0,0.0,0.0,0.0,0.0,0.0,0.0,0.0,0.0,0.0,0.0,0.0,0.0,0.0,0.0,0.0,0.0,0.0,0.0,0.0,0.0,0.0,0.0,0.0,0.0,0.0,0.0,0.0,0.0,0.0,0.0,0.0,0.0,0.0,0.0,0.0,0.0,0.0,0.0,0.0,0.0,0.0,0.0,0.0,0.0,0.0,0.0,0.0,0.0,0.0,0.0,0.0,0.0,0.0,0.0,0.0,0.0,0.0,0.0,0.0,0.0,0.0,0.0,0.0,0.0,0.0,0.0,0.0,0.0,0.0,0.0,0.0,0.0,0.0,0.0,0.0,0.0,0.0,0.0,0.0,0.0,0.0,0.0,0.0,0.0,0.0,0.0,0.0,0.0,0.0,0.0,0.0,0.0,-6.9706,-6.7552,-6.6384,-6.6242,-6.4674,-6.3367,0.0,0.0,0.0,0.0,0.0,0.0,0.0,0.0,0.0,0.0,0.0,0.0,0.0,0.0,0.0,0.0,0.0,0.0,0.0,0.0,0.0,0.0,0.0,0.0,0.0,0.0,0.0,0.0,0.0,0.0,0.0,0.0,0.0,0.0,0.0,0.0,0.0,0.0,0.0,0.0,0.0,0.0,0.0,0.0,0.0,0.0,0.0,0.0,0.0,0.0,0.0,0.0,0.0,0.0,0.0,0.0,0.0,0.0,0.0,0.0,0.0,0.0,0.0,0.0,0.0,0.0,0.0,0.0,0.0,0.0,0.0,0.0,0.0,0.0,0.0,0.0,0.0,0.0,0.0,0.0,0.0,0.0,0.0,0.0,0.0,0.0,0.0,0.0,0.0,0.0,0.0,0.0,0.0,0.0,0.0,0.0,0.0,0.0,0.0,0.0,0.0,0.0,0.0,0.0,0.0,0.0,0.0,0.0,0.0,-7.0475,-7.1745,-7.1783,-7.0579,-6.8925,-6.6815,0.0,0.0,0.0,0.0,0.0,0.0,0.0,0.0,0.0,0.0,0.0,0.0,0.0,0.0,0.0,0.0,0.0,0.0,0.0,0.0,0.0,0.0,0.0,0.0,0.0,0.0,0.0,0.0,0.0,0.0,0.0,0.0,0.0,0.0,0.0,0.0,0.0,0.0,0.0,0.0,0.0,0.0,0.0,0.0,0.0,0.0,0.0,0.0,0.0,0.0,0.0,0.0,0.0,0.0,0.0,0.0,0.0,0.0,0.0,0.0,0.0,0.0,0.0,0.0,0.0,0.0,0.0,0.0,0.0,0.0,0.0,0.0,0.0,0.0,0.0,0.0,0.0,0.0,0.0,0.0,0.0,0.0,0.0,0.0,0.0,0.0,0.0,0.0,0.0,0.0,0.0,0.0,0.0,0.0,0.0,0.0,0.0,0.0,0.0,0.0,0.0,0.0,0.0,0.0,0.0,0.0,0.0,0.0,-6.9898,-7.2976,-7.4476,-7.513,-7.4861,-7.2542,-6.9759,0.0,0.0,0.0,0.0,0.0,0.0,0.0,0.0,0.0,0.0,0.0,0.0,0.0,0.0,0.0,0.0,0.0,0.0,0.0,0.0,0.0,0.0,0.0,0.0,0.0,0.0,0.0,0.0,0.0,0.0,0.0,0.0,0.0,0.0,0.0,0.0,0.0,0.0,0.0,0.0,0.0,0.0,0.0,0.0,0.0,0.0,0.0,0.0,0.0,0.0,0.0,0.0,0.0,0.0,0.0,0.0,0.0,0.0,0.0,0.0,0.0,0.0,0.0,0.0,0.0,0.0,0.0,0.0,0.0,0.0,0.0,0.0,0.0,0.0,0.0,0.0,0.0,0.0,0.0,0.0,0.0,0.0,0.0,0.0,0.0,0.0,0.0,0.0,0.0,0.0,0.0,0.0,0.0,0.0,0.0,0.0,0.0,0.0,0.0,0.0,0.0,0.0,0.0,0.0,0.0,0.0,0.0,0.0,-7.1245,-7.5861,-7.6245,-7.7053,-7.8323,-7.5438,-7.2195,0.0,0.0,0.0,0.0,0.0,0.0,0.0,0.0,0.0,0.0,0.0,0.0,0.0,0.0,0.0,0.0,0.0,0.0,0.0,0.0,0.0,0.0,0.0,0.0,0.0,0.0,0.0,0.0,0.0,0.0,0.0,0.0,0.0,0.0,0.0,0.0,0.0,0.0,0.0,0.0,0.0,0.0,0.0,0.0,0.0,0.0,0.0,0.0,0.0,0.0,0.0,0.0,0.0,0.0,0.0,0.0,0.0,0.0,0.0,0.0,0.0,0.0,0.0,0.0,0.0,0.0,0.0,0.0,0.0,0.0,0.0,0.0,0.0,0.0,0.0,0.0,0.0,0.0,0.0,0.0,0.0,0.0,0.0,0.0,0.0,0.0,0.0,0.0,0.0,0.0,0.0,0.0,0.0,0.0,0.0,0.0,0.0,0.0,0.0,0.0,0.0,0.0,0.0,0.0,0.0,0.0,0.0,0.0,-7.3591,-7.5938,-7.7938,-7.8823,-7.8477,-7.6553,-7.3889,0.0,0.0,0.0,0.0,0.0,0.0,0.0,0.0,0.0,0.0,0.0,0.0,0.0,0.0,0.0,0.0,0.0,0.0,0.0,0.0,0.0,0.0,0.0,0.0,0.0,0.0,0.0,0.0,0.0,0.0,0.0,0.0,0.0,0.0,0.0,0.0,0.0,0.0,0.0,0.0,0.0,0.0,0.0,0.0,0.0,0.0,0.0,0.0,-6.0586,0.0,0.0,0.0,0.0,0.0,0.0,0.0,0.0,0.0,0.0,0.0,0.0,0.0,0.0,0.0,0.0,0.0,0.0,0.0,0.0,0.0,0.0,0.0,0.0,0.0,0.0,0.0,0.0,0.0,0.0,0.0,0.0,0.0,0.0,0.0,0.0,0.0,0.0,0.0,0.0,0.0,0.0,0.0,0.0,0.0,0.0,0.0,0.0,0.0,0.0,0.0,0.0,0.0,0.0,0.0,0.0,0.0,0.0,0.0,-7.4707,-7.713,-7.89,-7.9785,-7.9669,-7.8054,-7.5606,0.0,0.0,0.0,0.0,0.0,0.0,0.0,0.0,0.0,0.0,0.0,0.0,0.0,0.0,0.0,0.0,0.0,0.0,0.0,0.0,0.0,0.0,0.0,0.0,0.0,0.0,0.0,0.0,0.0,0.0,0.0,0.0,0.0,0.0,0.0,0.0,0.0,0.0,0.0,0.0,0.0,0.0,0.0,0.0,0.0,0.0,0.0,0.0,0.0,0.0,0.0,0.0,0.0,0.0,0.0,0.0,0.0,0.0,0.0,0.0,0.0,0.0,0.0,0.0,0.0,0.0,0.0,0.0,0.0,0.0,0.0,0.0,0.0,0.0,0.0,0.0,0.0,0.0,0.0,0.0,0.0,0.0,0.0,0.0,0.0,0.0,0.0,0.0,0.0,0.0,0.0,0.0,0.0,0.0,0.0,0.0,0.0,0.0,0.0,0.0,0.0,0.0,0.0,0.0,0.0,0.0,0.0,-7.2668,-7.563,-7.8746,-7.9631,-8.04,-8.1208,-7.9477,-7.7053,-7.3976,0.0,0.0,0.0,0.0,0.0,0.0,0.0,0.0,0.0,0.0,0.0,0.0,0.0,0.0,0.0,0.0,0.0,0.0,0.0,0.0,0.0,0.0,0.0,0.0,0.0,0.0,0.0,0.0,0.0,0.0,0.0,0.0,0.0,0.0,0.0,0.0,0.0,0.0,-5.9311,-6.219,0.0,0.0,0.0,0.0,0.0,0.0,0.0,0.0,-6.6974,0.0,0.0,0.0,0.0,0.0,0.0,0.0,0.0,0.0,0.0,0.0,0.0,0.0,0.0,0.0,0.0,0.0,0.0,0.0,0.0,0.0,0.0,0.0,0.0,0.0,0.0,0.0,0.0,0.0,0.0,0.0,0.0,0.0,0.0,0.0,0.0,0.0,0.0,0.0,0.0,0.0,0.0,0.0,0.0,0.0,0.0,0.0,0.0,0.0,0.0,0.0,0.0,0.0,0.0,0.0,0.0,-7.0667,-7.463,-7.7977,-8.0592,-8.0823,-8.1285,-8.1977,-7.9746,-7.7592,-7.5515,0.0,0.0,0.0,0.0,0.0,0.0,0.0,0.0,0.0,0.0,0.0,0.0,0.0,0.0,0.0,0.0,0.0,0.0,0.0,0.0,0.0,0.0,0.0,0.0,0.0,0.0,0.0,0.0,0.0,0.0,0.0,0.0,0.0,0.0,0.0,0.0,0.0,0.0,0.0,-6.5445,-6.6619,0.0,0.0,0.0,0.0,0.0,0.0,0.0,0.0,-6.8552,0.0,0.0,0.0,0.0,0.0,0.0,0.0,0.0,0.0,0.0,0.0,0.0,0.0,0.0,0.0,0.0,0.0,0.0,0.0,0.0,0.0,0.0,0.0,0.0,0.0,0.0,0.0,0.0,0.0,0.0,0.0,0.0,0.0,0.0,0.0,0.0,0.0,0.0,0.0,0.0,0.0,0.0,0.0,0.0,0.0,0.0,0.0,0.0,0.0,0.0,0.0,0.0,0.0,0.0,0.0,-7.2206,-7.5592,-7.8554,-8.0977,-8.1516,-8.19,-8.2247,-8.0285,-7.7977,0.0,0.0,0.0,0.0,0.0,0.0,0.0,0.0,0.0,0.0,0.0,0.0,0.0,0.0,0.0,0.0,0.0,0.0,0.0,0.0,0.0,0.0,0.0,0.0,0.0,0.0,0.0,0.0,0.0,0.0,0.0,0.0,0.0,0.0,0.0,0.0,0.0,0.0,0.0,0.0,-6.6909,-6.8514,-6.8488,0.0,0.0,0.0,0.0,0.0,0.0,-7.1745,-7.1437,0.0,0.0,0.0,0.0,0.0,0.0,0.0,0.0,0.0,0.0,0.0,0.0,0.0,0.0,0.0,0.0,0.0,0.0,0.0,0.0,0.0,0.0,0.0,0.0,0.0,0.0,0.0,0.0,0.0,0.0,0.0,0.0,0.0,0.0,0.0,0.0,0.0,0.0,0.0,0.0,0.0,0.0,0.0,0.0,0.0,0.0,0.0,0.0,0.0,0.0,0.0,0.0,0.0,0.0,0.0,-7.3668,-7.6438,-7.9015,-8.1516,-8.2247,-8.2554,-8.2516,-8.0785,-7.8284,0.0,0.0,0.0,0.0,0.0,0.0,0.0,0.0,0.0,0.0,0.0,0.0,0.0,0.0,0.0,0.0,0.0,0.0,0.0,0.0,0.0,0.0,0.0,0.0,0.0,0.0,0.0,0.0,0.0,0.0,0.0,0.0,0.0,0.0,0.0,0.0,0.0,0.0,0.0,0.0,0.0,-7.0014,-7.0206,-7.1783,0.0,0.0,0.0,0.0,-7.4284,-7.4668,0.0,0.0,0.0,0.0,0.0,0.0,0.0,0.0,0.0,0.0,0.0,0.0,0.0,0.0,0.0,0.0,0.0,0.0,0.0,0.0,0.0,0.0,0.0,0.0,0.0,0.0,0.0,0.0,0.0,0.0,0.0,0.0,0.0,0.0,0.0,0.0,0.0,0.0,0.0,0.0,0.0,0.0,0.0,0.0,0.0,0.0,0.0,0.0,0.0,0.0,0.0,0.0,0.0,0.0,0.0,0.0,-7.4514,-7.7823,-8.0746,-8.317,-8.3401,-8.3439,-8.3417,-8.1093,-7.8554,0.0,0.0,0.0,0.0,0.0,0.0,0.0,0.0,0.0,0.0,0.0,0.0,0.0,0.0,0.0,0.0,0.0,0.0,0.0,0.0,0.0,0.0,0.0,0.0,0.0,0.0,0.0,0.0,0.0,0.0,0.0,0.0,0.0,0.0,0.0,0.0,0.0,0.0,0.0,0.0,0.0,-7.1052,-7.1783,-7.4014,-7.5245,0.0,0.0,-7.6861,-7.6861,-7.6284,0.0,0.0,0.0,0.0,0.0,0.0,0.0,0.0,0.0,0.0,0.0,0.0,0.0,0.0,0.0,0.0,0.0,0.0,0.0,0.0,0.0,0.0,0.0,0.0,0.0,0.0,0.0,0.0,0.0,0.0,0.0,0.0,0.0,0.0,0.0,0.0,0.0,0.0,0.0,0.0,0.0,0.0,0.0,0.0,0.0,0.0,0.0,0.0,0.0,0.0,0.0,0.0,0.0,0.0,0.0,-7.2283,-7.613,-7.9054,-8.1554,-8.3516,-8.4055,-8.4324,-8.4324,-8.2324,-7.9592,0.0,0.0,0.0,0.0,0.0,0.0,0.0,0.0,0.0,0.0,0.0,0.0,0.0,0.0,0.0,0.0,0.0,0.0,0.0,0.0,0.0,0.0,0.0,0.0,0.0,0.0,0.0,0.0,0.0,0.0,0.0,0.0,0.0,0.0,0.0,0.0,0.0,0.0,0.0,0.0,0.0,0.0,-7.4091,-7.613,0.0,0.0,0.0,-7.8323,-7.9285,0.0,0.0,0.0,0.0,0.0,0.0,0.0,0.0,0.0,0.0,0.0,0.0,0.0,0.0,0.0,0.0,0.0,0.0,0.0,0.0,0.0,0.0,0.0,0.0,0.0,0.0,0.0,0.0,0.0,0.0,0.0,0.0,0.0,0.0,0.0,0.0,0.0,0.0,0.0,0.0,0.0,0.0,0.0,0.0,0.0,0.0,0.0,0.0,0.0,0.0,0.0,0.0,0.0,0.0,0.0,0.0,0.0,-7.7515,-8.0092,-8.2324,-8.417,-8.5093,-8.544,-8.517,-8.3516,0.0,0.0,0.0,0.0,0.0,0.0,0.0,0.0,0.0,0.0,0.0,0.0,0.0,0.0,0.0,0.0,0.0,0.0,0.0,0.0,0.0,0.0,0.0,0.0,0.0,0.0,0.0,-5.855,0.0,0.0,0.0,0.0,0.0,0.0,0.0,0.0,0.0,0.0,0.0,0.0,0.0,0.0,-7.336,-7.5668,-7.7784,-7.94,0.0,0.0,-8.0169,-8.1246,-7.9631,-7.7784,0.0,0.0,0.0,0.0,0.0,0.0,0.0,0.0,0.0,0.0,0.0,0.0,0.0,0.0,0.0,0.0,0.0,0.0,0.0,0.0,0.0,0.0,0.0,0.0,0.0,0.0,0.0,0.0,0.0,0.0,0.0,0.0,0.0,0.0,0.0,0.0,0.0,0.0,0.0,0.0,0.0,0.0,0.0,0.0,0.0,0.0,0.0,0.0,0.0,0.0,0.0,0.0,0.0,0.0,0.0,-7.8323,-8.0939,-8.3439,-8.5824,-8.6786,-8.6863,-8.6017,-8.4401,-8.19,0.0,0.0,0.0,0.0,0.0,0.0,0.0,0.0,0.0,0.0,0.0,0.0,0.0,0.0,0.0,0.0,0.0,0.0,0.0,0.0,0.0,0.0,0.0,0.0,0.0,0.0,0.0,0.0,0.0,0.0,0.0,0.0,0.0,0.0,0.0,0.0,0.0,0.0,0.0,0.0,0.0,-7.4053,-7.5745,-7.8823,-8.0939,0.0,0.0,-8.3016,-8.2324,-8.1439,-8.0015,-7.7592,0.0,0.0,0.0,0.0,0.0,0.0,0.0,0.0,0.0,0.0,0.0,0.0,0.0,0.0,0.0,0.0,0.0,0.0,0.0,0.0,0.0,0.0,0.0,0.0,0.0,0.0,0.0,0.0,0.0,0.0,0.0,0.0,0.0,0.0,0.0,0.0,0.0,0.0,0.0,0.0,0.0,0.0,0.0,0.0,0.0,0.0,0.0,0.0,0.0,0.0,0.0,0.0,0.0,-7.5091,-7.9246,-8.2362,-8.4632,-8.6094,-8.7478,-8.8055,-8.7709,-8.6017,-8.4055,0.0,0.0,0.0,0.0,0.0,0.0,0.0,0.0,0.0,0.0,0.0,0.0,0.0,0.0,0.0,0.0,0.0,0.0,0.0,0.0,0.0,0.0,0.0,0.0,0.0,0.0,0.0,0.0,-6.7859,-6.8513,-6.7975,0.0,0.0,0.0,0.0,0.0,0.0,0.0,0.0,0.0,0.0,-7.6015,-7.8746,-8.0708,0.0,0.0,-8.3555,-8.367,-8.3862,-8.2324,-8.0785,-7.9785,-7.6361,0.0,0.0,0.0,0.0,0.0,0.0,0.0,0.0,0.0,0.0,0.0,0.0,0.0,0.0,0.0,0.0,0.0,0.0,0.0,0.0,0.0,0.0,0.0,0.0,0.0,0.0,0.0,0.0,0.0,0.0,0.0,0.0,0.0,0.0,0.0,0.0,0.0,0.0,0.0,0.0,0.0,0.0,0.0,0.0,0.0,0.0,0.0,0.0,0.0,0.0,0.0,0.0,-7.6438,-8.09,-8.3785,-8.5901,-8.7209,-8.8671,-8.9325,-8.9017,-8.7863,-8.6209,0.0,0.0,0.0,0.0,0.0,0.0,0.0,0.0,0.0,0.0,0.0,0.0,0.0,0.0,0.0,0.0,0.0,0.0,0.0,0.0,0.0,0.0,0.0,0.0,0.0,0.0,0.0,0.0,-6.9629,-6.9629,-6.8538,0.0,0.0,0.0,0.0,0.0,0.0,0.0,0.0,0.0,0.0,-7.8092,-8.0746,-8.2247,-8.3516,-8.4747,-8.4593,-8.4478,-8.4863,-8.3401,-8.2054,-8.1516,0.0,0.0,0.0,0.0,0.0,0.0,0.0,0.0,0.0,0.0,0.0,0.0,0.0,0.0,0.0,0.0,0.0,0.0,0.0,0.0,0.0,0.0,0.0,0.0,0.0,0.0,0.0,0.0,0.0,0.0,-6.2024,0.0,0.0,0.0,0.0,0.0,0.0,0.0,0.0,0.0,0.0,0.0,0.0,0.0,0.0,0.0,0.0,0.0,0.0,0.0,0.0,0.0,0.0,-7.84,-8.3401,-8.5209,-8.7325,-8.9692,-9.0671,-9.0748,-8.9979,-8.9863,-8.8248,-8.4939,0.0,0.0,0.0,0.0,0.0,0.0,0.0,0.0,0.0,0.0,0.0,0.0,0.0,0.0,0.0,0.0,0.0,0.0,0.0,0.0,0.0,0.0,0.0,0.0,0.0,0.0,-7.286,-7.186,-7.0167,0.0,0.0,0.0,0.0,0.0,0.0,0.0,0.0,0.0,0.0,-7.7592,-8.0054,-8.1054,-8.3285,-8.4863,-8.4978,-8.5593,-8.5786,-8.5093,-8.4863,-8.4247,0.0,0.0,0.0,0.0,0.0,0.0,0.0,0.0,0.0,0.0,0.0,0.0,0.0,0.0,0.0,0.0,0.0,0.0,0.0,0.0,0.0,0.0,0.0,0.0,0.0,0.0,0.0,-6.8052,-6.7552,0.0,0.0,0.0,0.0,0.0,0.0,0.0,0.0,0.0,0.0,0.0,-7.386,-7.3591,0.0,0.0,0.0,0.0,0.0,0.0,0.0,0.0,0.0,0.0,0.0,0.0,-7.9092,-8.3494,-8.6401,-8.8786,-9.071,-9.2133,-9.271,-9.2441,-9.1364,-8.8902,-8.5016,0.0,0.0,0.0,0.0,0.0,0.0,0.0,0.0,0.0,0.0,0.0,0.0,0.0,0.0,0.0,0.0,0.0,0.0,0.0,0.0,0.0,0.0,0.0,0.0,0.0,-7.0744,0.0,0.0,0.0,0.0,0.0,0.0,0.0,0.0,0.0,0.0,0.0,-7.5207,-7.7784,-8.0015,-8.217,-8.417,-8.5132,-8.6094,0.0,0.0,0.0,0.0,0.0,0.0,0.0,0.0,0.0,0.0,0.0,0.0,0.0,0.0,-7.3476,-7.0937,-7.0975,-7.1437,-7.1745,0.0,0.0,0.0,0.0,0.0,0.0,0.0,0.0,0.0,0.0,0.0,0.0,0.0,0.0,-7.2976,0.0,-7.2168,0.0,0.0,0.0,0.0,0.0,0.0,0.0,0.0,-7.6553,-7.7361,-7.8169,-7.79,-7.7476,0.0,-7.6938,-7.5515,0.0,0.0,0.0,0.0,0.0,0.0,0.0,0.0,-8.0977,-8.4863,-8.7979,-9.0248,-9.1633,-9.3287,-9.398,-9.3672,-9.2364,-9.0056,-8.6748,-8.4709,-8.1823,0.0,0.0,0.0,0.0,0.0,0.0,0.0,0.0,0.0,0.0,0.0,0.0,0.0,0.0,0.0,0.0,0.0,0.0,0.0,0.0,0.0,0.0,0.0,-7.3129,0.0,0.0,0.0,0.0,0.0,0.0,0.0,0.0,0.0,-7.2745,-7.5399,-7.8246,-8.0785,-8.2554,-8.4324,-8.6286,0.0,0.0,0.0,0.0,0.0,0.0,0.0,-8.8209,-8.7902,-8.7171,-8.6363,-8.5517,-8.3516,-8.1823,-8.1246,0.0,0.0,-7.563,-7.5284,-7.5784,-7.6092,-7.613,-7.6169,-7.613,-7.6169,-7.663,0.0,0.0,0.0,0.0,0.0,0.0,0.0,0.0,-7.713,-7.79,0.0,-7.6899,0.0,0.0,0.0,0.0,0.0,-7.6592,0.0,0.0,-8.0823,-8.167,-8.2285,-8.1593,-8.1246,-8.1246,-8.1246,-8.1208,-8.09,-7.6284,0.0,0.0,0.0,0.0,0.0,0.0,-8.4055,-8.7401,-8.994,-9.1672,-9.2595,-9.421,-9.4634,-9.3787,-9.3018,-9.1787,-9.0017,-8.7555,-8.467,-8.1362,-7.7977,0.0,0.0,0.0,0.0,0.0,0.0,0.0,0.0,0.0,0.0,0.0,0.0,0.0,0.0,0.0,0.0,0.0,0.0,0.0,0.0,-7.5899,0.0,0.0,0.0,0.0,0.0,0.0,0.0,0.0,0.0,0.0,-7.6438,-7.8477,-8.09,-8.3439,0.0,0.0,0.0,0.0,-8.9094,-8.994,-9.0017,-9.0325,-9.1095,-9.0556,-9.0287,-9.1056,0.0,0.0,-8.894,-8.7401,-8.6247,-8.6247,-8.617,-8.4978,-8.0977,-8.0092,-8.0246,-8.1016,-8.1131,-8.1208,-8.1246,-8.1054,-8.1593,-8.1323,0.0,0.0,0.0,0.0,-7.89,-7.94,-7.9785,-8.1862,-8.2131,-8.1208,-8.1362,0.0,0.0,0.0,0.0,0.0,0.0,-8.1439,-8.2593,-8.4016,-8.4786,-8.5016,-8.4786,-8.467,-8.467,-8.467,-8.467,-8.4593,-8.3208,-8.0977,-7.8054,0.0,0.0,0.0,0.0,-8.5824,-8.9094,-9.1133,-9.2826,-9.4249,-9.5365,-9.5518,-9.4672,-9.4403,-9.348,-9.1825,-8.9863,-8.7555,-8.4747,-8.1439,0.0,0.0,0.0,0.0,0.0,0.0,0.0,0.0,0.0,0.0,0.0,0.0,0.0,0.0,0.0,0.0,0.0,0.0,0.0,-7.8669,-7.8477,-7.7707,0.0,0.0,0.0,0.0,0.0,0.0,0.0,0.0,0.0,-8.2978,-8.3324,-8.4401,0.0,0.0,-8.9363,-9.0825,-9.1248,-9.171,-9.2479,-9.2595,0.0,-9.2172,-9.2402,-9.2518,-9.2172,-9.1902,-9.1672,-9.1441,-9.0479,-8.9748,-8.9748,-8.9748,-8.9325,-8.8171,-8.5901,-8.4516,-8.4632,-8.467,-8.467,-8.467,-8.467,-8.5016,-8.6094,-8.367,-8.217,-8.1823,-8.2362,-8.2862,-8.3285,-8.3708,-8.5247,-8.5478,-8.4824,-8.5016,-8.4516,-8.3555,-8.2708,0.0,0.0,0.0,-8.4593,-8.517,-8.6824,-8.7594,-8.7632,-8.7979,-8.8132,-8.8132,-8.8132,-8.8132,-8.8132,-8.8132,-8.6863,-8.4324,0.0,0.0,-8.4824,-8.6209,-8.8209,-9.0902,-9.2979,-9.4518,-9.5518,-9.6673,-9.6865,-9.6019,-9.598,-9.5211,-9.3518,-9.1864,-8.9902,-8.7671,-8.4401,-8.1208,0.0,0.0,0.0,0.0,0.0,0.0,0.0,0.0,0.0,0.0,0.0,-6.6769,-7.0167,0.0,0.0,0.0,-7.8092,-8.0669,-8.2901,-8.1554,0.0,0.0,0.0,0.0,0.0,0.0,0.0,-8.1516,-8.3285,-8.5132,-8.7286,-8.7786,-8.8363,-8.9556,-9.0402,-9.1441,-9.2787,0.0,-9.3287,-9.4095,-9.421,-9.4172,-9.4018,-9.4095,-9.4134,-9.4057,-9.4287,-9.448,-9.4441,-9.3518,-9.2749,-9.2672,-9.2441,-9.221,-9.2172,-9.0479,-8.8863,-8.8248,-8.8132,-8.8132,-8.8132,-8.8132,-8.8363,-9.021,-9.0017,-8.7671,-8.6632,-8.6517,-8.6517,-8.6978,-8.7709,-8.7786,-8.8209,-8.8825,-8.8132,-8.7748,-8.7671,-8.6863,0.0,-8.6555,-8.7401,-8.7825,-8.7863,-8.9479,-9.021,-9.0248,-9.1018,-9.1402,-9.1402,-9.1402,-9.1402,-9.1364,-9.1364,-9.1441,-9.1402,-8.8363,-8.7555,-8.8979,-8.9748,-9.0979,-9.2826,-9.5095,-9.6365,-9.6519,-9.8019,-9.8404,-9.7596,-9.7557,-9.6788,-9.5229,-9.3595,-9.1902,-9.0133,-8.7055,-8.4093,-8.1516,0.0,0.0,0.0,0.0,0.0,0.0,0.0,0.0,0.0,0.0,0.0,0.0,0.0,0.0,0.0,-8.2016,0.0,-8.617,-8.4863,0.0,0.0,0.0,-8.0669,-8.1593,-8.1708,-8.267,-8.5209,0.0,0.0,-9.0017,-9.1672,-9.2402,-9.1595,-9.221,-9.2979,-9.3787,-9.3941,-9.4172,-9.498,-9.5095,-9.5403,-9.6057,-9.5788,-9.5672,-9.6326,-9.7134,-9.7442,-9.7365,-9.6365,-9.5365,-9.5288,-9.4634,-9.4172,-9.4134,-9.4095,-9.3633,-9.2133,-9.1556,-9.1325,-9.1287,-9.1248,-9.1441,-9.2787,-9.2749,-9.2133,-9.1171,-8.9979,-8.9979,-9.0094,-9.0364,-9.1018,-9.1056,-9.0633,-9.1095,-9.0941,-9.0287,-9.0094,-8.9979,-9.0017,-9.0902,-9.1287,-9.1364,-9.2326,-9.2787,-9.2826,-9.3018,-9.3095,-9.3095,-9.3095,-9.3095,-9.3095,-9.3095,-9.3441,-9.4018,-9.3249,-9.2441,-9.1633,-9.1787,-9.3056,-9.5403,-9.598,-9.6942,-9.8173,-9.8596,-9.8711,-9.8481,-9.7865,-9.7326,-9.6903,-9.5288,-9.3633,-9.1941,-8.9863,-8.7286,-8.4132,-8.14,0.0,0.0,0.0,0.0,0.0,0.0,0.0,0.0,0.0,-7.4014,-7.7977,0.0,-8.2477,0.0,-8.5632,-8.694,-8.7979,-8.7094,0.0,0.0,-8.5247,-8.5209,-8.6709,-8.6901,-8.7863,-9.0402,-9.1056,-9.1672,-9.2672,-9.3749,-9.4326,-9.4134,-9.4249,-9.4711,-9.5557,-9.5672,-9.5749,-9.5903,-9.5942,-9.6288,-9.7019,-9.7634,-9.7904,-9.8173,-9.8365,-9.8481,-9.8519,-9.8173,-9.7904,-9.7865,-9.775,-9.7596,-9.748,-9.7596,-9.7442,-9.6903,-9.4941,-9.3095,-9.3095,-9.3133,-9.321,-9.448,-9.4903,-9.5249,-9.5057,-9.448,-9.2941,-9.2326,-9.2326,-9.2826,-9.2749,-9.2364,-9.2826,-9.2749,-9.2326,-9.2326,-9.2326,-9.2364,-9.2826,-9.3249,-9.3633,-9.448,-9.5018,-9.5403,-9.5788,-9.5942,-9.598,-9.598,-9.598,-9.5942,-9.598,-9.6211,-9.6673,-9.6673,-9.6211,-9.5326,-9.4941,-9.5595,-9.7403,-9.7788,-9.8634,-9.9865,-9.9904,-9.975,-9.9365,-9.8519,-9.7904,-9.748,-9.5865,-9.4557,-9.3595,-9.1979,-8.9863,-8.7248,-8.4709,-8.1977,0.0,0.0,0.0,0.0,0.0,0.0,0.0,0.0,0.0,0.0,0.0,-8.5747,-8.8171,-8.9171,-9.0017,-9.0825,-9.0171,-8.9671,-8.9671,-8.8902,-8.8902,-9.0248,-9.0402,-9.121,-9.3364,-9.3941,-9.448,-9.5288,-9.6134,-9.6519,-9.6172,-9.6095,-9.6134,-9.6249,-9.6288,-9.6288,-9.6288,-9.6288,-9.6596,-9.7365,-9.8211,-9.8942,-9.9327,-9.9673,-9.9904,-9.9904,-9.9596,-9.9365,-9.9365,-9.9058,-9.8788,-9.8788,-9.8788,-9.8788,-9.8557,-9.7326,-9.6095,-9.598,-9.5942,-9.598,-9.5826,-9.6673,-9.7365,-9.8096,-9.8557,-9.5595,-9.4364,-9.4326,-9.4364,-9.4364,-9.4326,-9.4364,-9.4364,-9.4364,-9.4364,-9.4364,-9.4364,-9.4364,-9.4749,-9.5518,-9.6288,-9.7019,-9.7673,-9.8442,-9.8788,-9.8788,-9.8788,-9.8788,-9.8788,-9.8788,-9.8865,-9.8942,-9.8942,-9.9019,-9.9077,-9.8346,-9.8269,-9.8923,-9.9827,-10.0596,-10.1269,-10.1269,-10.0981,-10.025,-9.9288,-9.8442,-9.7673,-9.6057,-9.5095,-9.4941,-9.3595,-9.2018,-9.0287,-8.794,-8.5478,0.0,-8.0669,0.0,0.0,0.0,0.0,0.0,0.0,0.0,0.0,-8.5555,-8.8325,-9.1287,-9.221,-9.2941,-9.3633,-9.3172,-9.2826,-9.2826,-9.2249,-9.221,-9.3018,-9.3133,-9.3749,-9.5288,-9.6172,-9.6903,-9.7519,-9.8327,-9.8442,-9.7557,-9.7365,-9.7057,-9.648,-9.6288,-9.6288,-9.6288,-9.6403,-9.6826,-9.7634,-9.8442,-9.9288,-10.0096,-10.075,-10.1289,-10.1212,-10.0673,-10.0289,-10.0327,-9.9904,-9.9481,-9.9404,-9.9519,-9.9558,-9.9673,-9.9558,-9.925,-9.8673,-9.8481,-9.8788,-9.7519,-9.8327,-9.8481,-9.8634,-9.875,-9.8096,-9.7827,-9.7827,-9.7827,-9.7827,-9.7827,-9.7827,-9.7827,-9.7827,-9.7827,-9.7827,-9.7827,-9.7827,-9.7942,-9.8096,-9.825,-9.8404,-9.8557,-9.8711,-9.8788,-9.8788,-9.8788,-9.8788,-9.8788,-9.8788,-9.9135,-9.9827,-9.9865,-10.0134,-10.0709,0.0,0.0,0.0,-10.0596,-10.1134,-10.1208,-10.125,-10.125,-10.1058,-9.9596,0.0,-9.8519,-9.6942,-9.5711,-9.5057,-9.4729,0.0,0.0,0.0,0.0,0.0,0.0,0.0,0.0,0.0,0.0,0.0,-8.6055,-8.6995,-8.7517,-9.0402,-9.2518,-9.3172,-9.3364,-9.3518,-9.371,-9.421,-9.4518,-9.4518,-9.498,-9.5672,-9.6442,-9.6519,-9.6942,-9.7942,-9.8211,-9.8365,-9.8557,-9.8711,-9.8481,-9.7711,-9.7519,-9.7173,-9.6403,-9.6288,-9.6288,-9.6326,-9.6749,-9.7519,-9.8442,-9.9211,-9.9981,-10.0904,-10.1173,-10.1289,-10.1327,-10.125,-10.1366,-10.1904,-10.1981,-10.2097,-10.2712,-10.2943,-10.2712,-10.2904,-10.2866,-10.2097,-9.9404,-9.8827,-9.8788,-9.8634,-9.9442,-9.9442,-9.9673,0.0,-10.0058,-10.0019,-9.9981,-9.9135,-9.8788,-9.8788,-9.8788,-9.8788,-9.8788,-9.8788,-9.8788,-9.8788,-9.8788,-9.9019,-9.9442,-9.9442,-9.9673,-10.0058,-10.0481,-10.0673,-10.0712,-10.1096,-10.1327,-10.1289,-10.1327,-10.15,-10.1863,-10.1863,-10.2033,-10.2313,-10.2249,-10.1635,-10.0432,-10.0917,-10.1147,-10.1106,-10.1147,-10.1167,-10.1129,-9.9938,0.0,0.0,0.0,0.0,0.0,0.0,0.0,0.0,-9.2749,0.0,-8.9979,-8.8709,-8.7825,-8.7401,-8.7748,-8.8363,-8.921,-9.1248,-9.1902,-9.0671,-9.3287,-9.498,-9.5018,-9.5711,-9.6211,-9.6211,-9.6634,-9.6865,-9.6903,-9.725,-9.7711,-9.8057,-9.8134,-9.8481,-9.925,-9.9442,-9.9558,-9.9981,-10.0019,-9.9481,-9.8365,-9.8134,-9.7711,-9.6557,-9.6288,-9.6288,-9.6288,-9.6596,-9.7365,-9.8519,-9.9096,-9.9942,-10.0943,-10.1289,-10.1481,-10.1866,-10.1943,-10.2251,-10.302,-10.3251,-10.3405,-10.3751,-10.3905,-10.3905,-10.3905,-10.3905,-10.3482,-10.1597,-10.0981,-10.0519,-9.9519,-10.0289,-10.0327,-10.0712,-10.1289,-10.1289,-10.1404,-10.1443,0.0,0.0,0.0,-9.925,-9.925,-9.925,-9.925,-9.9327,-9.9481,-9.9481,-9.9942,-10.075,-10.0789,-10.1096,-10.1789,-10.2481,-10.2828,-10.2866,-10.3538,-10.3885,-10.3885,-10.3864,-10.3765,-10.3681,-10.366,-10.3553,-10.3359,-10.322,-10.2532,-10.13,-10.1252,-10.1313,-10.1291,-10.1291,-10.1236,-10.1105,-10.024,-9.9764,-9.9632,-9.8789,-9.841,-9.8475,-9.7881,-9.7269,-9.6636,-9.5212,-9.4077,-9.3423,-9.2538,-9.2095,-9.2095,-9.2095,-9.2479,-9.3326,-9.5441,-9.5711,-9.3364,-9.5365,-9.6749,-9.6749,-9.8019,-9.8788,-9.8788,-9.8942,-9.9019,-9.9019,-9.9135,-9.925,-9.925,-9.925,-9.9558,-10.0173,-10.0289,-10.0558,-10.1135,-10.1212,-10.0789,-9.9404,-9.9019,-9.8519,-9.7096,-9.6519,-9.6288,-9.6288,-9.6557,-9.7134,-9.8365,-9.9019,-9.9635,-10.1019,-10.1289,-10.1597,-10.2327,-10.2597,-10.2981,-10.3943,-10.4097,-10.4212,-10.4328,-10.4443,-10.4366,-10.4328,-10.4328,-10.4289,-10.4097,-10.352,-10.2751,-10.0366,-10.1135,-10.1135,-10.1212,-10.1289,-10.1289,-10.175,-10.2327,-10.1366,-10.0943,-10.0943,-10.0943,-10.0981,-10.0943,-10.0943,-10.1366,-10.2058,-10.2058,-10.252,-10.3366,-10.3366,-10.3405,-10.352,-10.3674,-10.3712,-10.3712,-10.3726,-10.3723,-10.3723,-10.3618,-10.3553,-10.3531,-10.3404,-10.3173,-10.2855,-10.2675,-10.2418,-10.2045,-10.2411,-10.2511,-10.2487,-10.2411,-10.208,-10.1492,-10.0691,-9.9961,-9.9366,-9.8563,-9.8096,-9.8244,-9.8167,-9.8078,-9.8068,-9.7287,-9.6847,-9.6693,-9.6001,-9.5595,-9.5557,-9.5595,-9.5942,-9.6749,-9.7827,-9.7673,-9.6019,-9.7403,-9.8442,-9.8442,-9.8711,-9.8788,-9.8827,-9.9481,-9.9904,-9.9981,-10.0558,-10.0943,-10.0943,-10.0943,-10.0981,-10.1096,-10.1135,-10.1135,-10.125,-10.1289,-10.0981,-10.0135,-9.9673,-9.9481,-9.8404,-9.7211,-9.6403,-9.6403,-9.6903,-9.7673,-9.8711,-9.9442,-10.0212,-10.1135,-10.1327,-10.1712,-10.2558,-10.2789,-10.3328,-10.4674,-10.4943,-10.5213,-10.579,-10.6059,-10.5905,-10.5867,-10.5828,-10.5674,-10.5097,-10.4751,-10.4443,-10.0981,-10.1289,-10.1289,-10.1597,-10.2058,-10.252,-10.2943,-10.3251,-10.2904,-10.2712,-10.2712,-10.2712,-10.2712,-10.2712,-10.2712,-10.2904,-10.3289,-10.3289,-10.3441,-10.3785,-10.3785,-10.3744,-10.372,-10.4142,-10.4373,-10.4411,-10.4791,-10.4961,-10.4939,-10.479,-10.4699,-10.4644,-10.4365,-10.4086,-10.3857,-10.3596,-10.3395,-10.3248,-10.2649,-10.2359,-10.2315,-10.2194,-10.2032,-10.179,-10.1411,-10.0883,-10.0241,-9.9936,-9.9616,-9.9279,-9.8961,-9.8845,-9.8976,-9.8316,-9.7976,-9.8037,-9.775,-9.7577,-9.7673,-9.7673,-9.7827,-9.8211,-9.9019,-9.9211,-9.8442,-9.9058,-9.9481,-9.9519,-9.9904,-10.0173,-10.0173,-10.0519,-10.0943,-10.1404,-10.1789,-10.2174,-10.2635,-10.2712,-10.252,-10.2097,-10.202,-10.1827,-10.1366,-10.1289,-10.1019,-10.0212,-9.975,-9.925,-9.8904,-9.8173,-9.7634,-9.7673,-9.798,-9.8519,-9.9327,-9.9788,-10.0404,-10.1173,-10.1712,-10.2327,-10.3135,-10.3558,-10.4405,-10.5482,-10.579,-10.5944,-10.6367,-10.6405,-10.6405,-10.6405,-10.6405,-10.6174,-10.5905,-10.579,-10.5366,-10.1443,-10.1597,-10.1597,-10.2097,-10.2943,-10.3635,-10.3982,-10.4135,-10.4174,-10.4289,-10.4405,-10.4097,-10.3905,-10.3905,-10.3905,-10.3962,-10.4095,-10.4134,-10.4149,-10.4219,-10.4198,-10.4133,-10.41,-10.4713,-10.4997,-10.5013,-10.5603,-10.5871,-10.5848,-10.573,-10.5585,-10.5409,-10.504,-10.4761,-10.4559,-10.429,-10.401,-10.3781,-10.2731,-10.2207,-10.2298,-10.2146,-10.2071,-10.2034,-10.2063,-10.1745,-10.1126,-10.1191,-10.1091,-10.0568,-9.9999,-9.9737,-9.984,-9.9272,-9.8964,-9.9069,-9.915,-9.9249,-9.9346,-9.9365,-9.9442,-9.9673,-10.025,-10.075,-10.0904,-10.0943,-10.0866,-10.0789,-10.1212,-10.1635,-10.1827,-10.1904,-10.2174,-10.2828,-10.2904,-10.3135,-10.3751,-10.3905,-10.3674,-10.302,-10.2866,-10.2558,-10.1866,-10.1597,-10.1289,-10.0519,-9.9788,-9.9404,-9.9365,-9.9365,-9.9365,-9.9327,-9.9211,-9.9327,-10.0019,-10.0519,-10.0943,-10.1558,-10.2327,-10.3174,-10.3982,-10.4713,-10.5366,-10.6097,-10.6328,-10.6328,-10.6367,-10.6405,-10.6405,-10.6405,-10.6405,-10.6405,-10.6328,-10.6328,-10.5905,-10.175,-10.2443,-10.2443,-10.2981,-10.3751,-10.3905,-10.4328,-10.4943,-10.4982,-10.5443,-10.5905,-10.4559,-10.3943,-10.3905,-10.3943,-10.4267,-10.4799,-10.4778,-10.5119,-10.5662,-10.5777,-10.571,-10.5518,-10.5633,-10.5639,-10.5505,-10.5497,-10.5485,-10.546,-10.5332,-10.5121,-10.4846,-10.4529,-10.4228,-10.3915,-10.3688,-10.3421,-10.3114,-10.2824,-10.2888,-10.3331,-10.3197,-10.286,-10.2315,-10.2277,-10.1962,-10.1327,-10.1444,-10.1596,-10.1594,-10.1115,-10.0879,-10.0962,-10.0628,-10.0428,-10.0541,-10.0795,-10.0998,-10.1038,-10.1058,-10.1404,-10.2135,-10.2251,-10.2635,-10.3328,-10.3443,-10.3174,-10.2597,-10.2443,-10.2789,-10.3558,-10.3558,-10.3558,-10.3712,-10.3751,-10.3828,-10.3982,-10.3905,-10.3866,-10.3789,-10.3789,-10.3443,-10.2674,-10.2481,-10.2135,-10.1443,-10.125,-10.1096,-10.1096,-10.1096,-10.1096,-10.0981,-10.0519,-10.0135,-10.0404,-10.1481,-10.2174,-10.252,-10.3212,-10.3982,-10.4674,-10.502,-10.5366,-10.6174,-10.6405,-10.6405,-10.6405,-10.6405,-10.6405,-10.6405,-10.6405,-10.6405,-10.6405,-10.6405,-10.5982,-10.2289,-10.2635,-10.3135,-10.3866,-10.4636,-10.5136,-10.5559,-10.5867,-10.5867,-10.6097,-10.629,-10.5674,-10.5366,-10.5366,-10.5366,-10.5497,-10.5661,-10.5661,-10.57,-10.5777,-10.5754,-10.5658,-10.546,-10.546,-10.5435,-10.5384,-10.5306,-10.5228,-10.5121,-10.4892,-10.4646,-10.4388,-10.4142,-10.3883,-10.3622,-10.3216,-10.2936,-10.283,-10.2538,-10.2464,-10.2648,-10.2611,-10.2499,-10.2382,-10.2381,-10.2112,-10.1678,-10.1766,-10.1705,-10.1414,-10.1438,-10.1315,-10.0992,-10.1052,-10.0958,-10.075,-10.146,-10.1938,-10.2097,-10.2558,-10.2981,-10.3366,-10.3366,-10.3558,-10.3828,-10.3905,-10.3905,-10.402,-10.3635,-10.3558,-10.3866,-10.3905,-10.4097,-10.4482,-10.4597,-10.4789,-10.5328,-10.5366,-10.5213,-10.4713,-10.4597,-10.4289,-10.3597,-10.3366,-10.3212,-10.2866,-10.2828,-10.2751,-10.2789,-10.2828,-10.2828,-10.2789,-10.252,-10.2135,-10.1827,-10.252,-10.3251,-10.3482,-10.4059,-10.4828,-10.502,-10.5597,-10.602,-10.6367,-10.6405,-10.6405,-10.6405,-10.6405,-10.6405,-10.6405,-10.6405,-10.6405,-10.6405,-10.6405,-10.6174,-10.2866,-10.3405,-10.4212,-10.4905,-10.5482,-10.6136,-10.6405,-10.6405,-10.6405,-10.6405,-10.6405,-10.6405,-10.6405,-10.6385,-10.6364,-10.6263,-10.6156,-10.609,-10.5848,-10.5598,-10.5485,-10.5306,-10.5094,-10.504,-10.4975,-10.4958,-10.4958,-10.4902,-10.479,-10.4529,-10.4259,-10.4016,-10.3791,-10.3593,-10.3319,-10.2865,-10.2612,-10.2538,-10.22,-10.2008,-10.1969,-10.193,-10.2048,-10.2313,-10.2314,-10.2167,-10.1903,-10.2042,-10.199,-10.1566,-10.1828,-10.1823,-10.1338,-10.1302,-10.1192,-10.1077,-10.2046,-10.2781,-10.2883,-10.3518,-10.3962,-10.4174,-10.4212,-10.4328,-10.452,-10.4597,-10.4828,-10.529,-10.4905,-10.4636,-10.4597,-10.4597,-10.4866,-10.5405,-10.5443,-10.5751,-10.629,-10.6405,-10.6097,-10.5559,-10.5482,-10.5136,-10.4405,-10.402,-10.3789,-10.3789,-10.3828,-10.3905,-10.3905,-10.3828,-10.3828,-10.3905,-10.402,-10.3828,-10.3212,-10.3635,-10.4135,-10.4405,-10.4905,-10.5443,-10.5443,-10.6059,-10.6367,-10.6367,-10.6405,-10.6405,-10.6405,-10.6405,-10.6405,-10.6405,-10.6405,-10.6405,-10.6405,-10.6405,-10.6405,-10.352,-10.502,-10.5905,-10.6213,-10.6328,-10.6367,-10.6405,-10.6405,-10.6405,-10.6405,-10.6405,-10.6405,-10.6405,-10.6385,-10.6301,-10.6134,-10.5985,-10.5754,-10.5623,-10.5485,-10.5186,-10.493,-10.4828,-10.4646,-10.45,-10.4411,-10.4411,-10.438,-10.4358,-10.4242,-10.4016,-10.3786,-10.3493,-10.3219,-10.3044,-10.2648,-10.2314,-10.2125,-10.1969,-10.1734,-10.1574,-10.1534,-10.1734,-10.2048,-10.2123,-10.2086,-10.2089,-10.2464,-10.2646,-10.2609,-10.2561,-10.2509,-10.2348,-10.1531,-10.1202,-10.1817,-10.2822,-10.3498,-10.3605,-10.3779,-10.4188,-10.4885,-10.5059,-10.5366,-10.5982,-10.6059,-10.6097,-10.629,-10.6136,-10.6097,-10.6097,-10.5982,-10.6097,-10.6213,-10.629,-10.6328,-10.6367,-10.6405,-10.6405,-10.629,-10.6213,-10.5867,-10.5136,-10.4366,-10.4174,-10.4097,-10.3982,-10.402,-10.4135,-10.4059,-10.4097,-10.4212,-10.4559,-10.4751,-10.4135,-10.452,-10.4982,-10.5174,-10.5636,-10.6213,-10.6328,-10.6405,-10.6405,-10.6405,-10.6405,-10.6405,-10.6405,-10.6405,-10.6405,-10.6405,-10.6405,-10.6405,-10.6405,-10.6405,-10.6405,-10.4866,-10.5944,-10.629,-10.6405,-10.6405,-10.6405,-10.6405,-10.6405,-10.6405,-10.6405,-10.6405,-10.6405,-10.6405,-10.6385,-10.6242,-10.6134,-10.5962,-10.573,-10.5485,-10.5292,-10.5023,-10.4799,-10.4655,-10.444,-10.435,-10.4327,-10.4327,-10.4266,-10.4142,-10.3984,-10.3824,-10.3664,-10.3428,-10.3184,-10.2973,-10.2574,-10.2313,-10.2123,-10.1891,-10.1694,-10.1534,-10.1494,-10.1654,-10.1891,-10.1773,-10.1773,-10.1891,-10.22,-10.2389,-10.2501,-10.2746,-10.2456,-10.1668,-10.0764,-10.0758,-10.1831,-10.2738,-10.3588,-10.432,-10.4901,-10.5328,-10.5742,-10.5802,-10.5899,-10.6308,-10.6405,-10.6405,-10.6405,-10.6405,-10.6405,-10.6405,-10.6405,-10.6405,-10.6405,-10.6405,-10.6405,-10.6405,-10.6405,-10.6405,-10.6405,-10.6405,-10.6251,-10.5944,-10.5674,-10.552,-10.552,-10.552,-10.5443,-10.5482,-10.5482,-10.5405,-10.552,-10.5751,-10.5867,-10.5636,-10.5713,-10.5944,-10.5982,-10.6213,-10.629,-10.6405,-10.6405,-10.6405,-10.6405,-10.6405,-10.6405,-10.6405,-10.6405,-10.6405,-10.6405,-10.6405,-10.6405,-10.6405,-10.6405,-10.6405,-10.5867,-10.6367,-10.6405,-10.6405,-10.6405,-10.6405,-10.6405,-10.6405,-10.6405,-10.6405,-10.6405,-10.6405,-10.6405,-10.6385,-10.628,-10.6134,-10.5962,-10.573,-10.546,-10.5201,-10.4902,-10.4713,-10.4567,-10.435,-10.4327,-10.4327,-10.4327,-10.4266,-10.4142,-10.4048,-10.3888,-10.3763,-10.356,-10.3357,-10.3149,-10.2758,-10.2426,-10.2276,-10.2046,-10.1852,-10.1734,-10.1694,-10.1773,-10.1852,-10.1773,-10.1736,-10.1891,-10.2085,-10.2128,-10.2093,-10.2457,-10.213,-10.0987,-10.0659,-10.0966,-10.1966,-10.2917,-10.3866,-10.4906,-10.5603,-10.594,-10.6134,-10.6177,-10.6242,-10.6343,-10.6385,-10.6405,-10.6405,-10.6405,-10.6405,-10.6405,-10.6405,-10.6405,-10.6405,-10.6405,-10.6405,-10.6405,-10.6405,-10.6405,-10.6405,-10.6405,-10.6405,-10.6405,-10.6367,-10.6328,-10.6405,-10.6405,-10.6405,-10.6405,-10.6405,-10.6405,-10.6405,-10.629,-10.6328,-10.6174,-10.6174,-10.6213,-10.6251,-10.629,-10.6367,-10.6405,-10.6405,-10.6405,-10.6405,-10.6405,-10.6405,-10.6405,-10.6405,-10.6405,-10.6405,-10.6405,-10.6405,-10.6405,-10.6405,-10.6444,-10.6367,-10.6405,-10.6405,-10.6405,-10.6405,-10.6405,-10.6405,-10.6405,-10.6405,-10.6405,-10.6405,-10.6405,-10.6405,-10.6385,-10.6301,-10.6134,-10.5985,-10.5777,-10.551,-10.5266,-10.493,-10.4742,-10.4635,-10.4418,-10.4358,-10.4358,-10.4327,-10.4327,-10.4327,-10.429,-10.4235,-10.4079,-10.3888,-10.3688,-10.3489,-10.3007,-10.2721,-10.2612,-10.2276,-10.2123,-10.2123,-10.2085,-10.2085,-10.2123,-10.2049,-10.2051,-10.2088,-10.224,-10.1945,-10.1389,-10.1744,-10.1542,-10.075,-10.1141,-10.2006,-10.2343,-10.3319,-10.4379,-10.5369,-10.5571,-10.573,-10.5917,-10.6112,-10.6156,-10.6199,-10.6284,-10.6364,-10.6364,-10.6364,-10.6385,-10.6385,-10.6385,-10.6385,-10.6405,-10.6405,-10.6405,-10.6405,-10.6405,-10.6405,-10.6405,-10.6405,-10.6405,-10.6405,-10.6405,-10.6405,-10.6405,-10.6405,-10.6405,-10.6405,-10.6405,-10.6405,-10.6405,-10.6405,-10.6405,-10.6405,-10.6405,-10.6405,-10.6405,-10.6367,-10.6405,-10.6405,-10.6405,-10.6405,-10.6405,-10.6405,-10.6405,-10.6405,-10.6405,-10.6405,-10.6405,-10.6405,-10.6405,-10.6444,-10.6482,-10.6636,-10.6405,-10.6405,-10.6405,-10.6405,-10.6405,-10.6405,-10.6405,-10.6405,-10.6405,-10.6405,-10.6405,-10.6405,-10.6405,-10.6385,-10.6364,-10.6242,-10.6134,-10.6046,-10.5816,-10.5396,-10.5105,-10.4884,-10.4742,-10.4529,-10.4432,-10.447,-10.4559,-10.4655,-10.4655,-10.4655,-10.4567,-10.438,-10.4228,-10.3979,-10.3721,-10.3388,-10.3112,-10.2721,-10.2612,-10.2389,-10.2161,-10.2123,-10.2238,-10.2427,-10.1981,-10.1831,-10.2187,-10.1939,-10.1459,-10.0749,-10.1026,-10.0877,-10.0356,-10.0202,-10.087,-10.2156,-10.2717,-10.3676,-10.5116,-10.5447,-10.5573,-10.5744,-10.5886,-10.6001,-10.6068,-10.6112,-10.6134,-10.6134,-10.6134,-10.6156,-10.622,-10.6242,-10.6322,-10.6385,-10.6405,-10.6405,-10.6405,-10.6405,-10.6405,-10.6405,-10.6405,-10.6405,-10.6405,-10.6405,-10.6405,-10.6405,-10.6405,-10.6405,-10.6405,-10.6405,-10.6405,-10.6405,-10.6405,-10.6405,-10.6405,-10.6405,-10.6405,-10.6405,-10.6405,-10.6405,-10.6405,-10.6405,-10.6405,-10.6405,-10.6405,-10.6405,-10.6405,-10.6405,-10.6405,-10.6405,-10.6405,-10.6444,-10.6482,-10.6674,-10.6944,-10.6405,-10.6405,-10.6405,-10.6405,-10.6405,-10.6405,-10.6405,-10.6405,-10.6405,-10.6405,-10.6405,-10.6405,-10.6405,-10.6405,-10.6405,-10.6343,-10.6199,-10.6199,-10.6023,-10.5672,-10.5396,-10.5121,-10.4958,-10.4846,-10.4752,-10.478,-10.4874,-10.4968,-10.493,-10.4968,-10.4874,-10.4752,-10.4646,-10.444,-10.4167,-10.3915,-10.3589,-10.3147,-10.3042,-10.2793,-10.2538,-10.2501,-10.2611,-10.2718,-10.2156,-10.1838,-10.1945,-10.1405,-10.0894,-10.0408,-10.0241,-10.0049,-9.984,-9.9666,-10.0313,-10.1769,-10.2467,-10.3238,-10.4855,-10.5292,-10.5422,-10.5573,-10.5783,-10.5924,-10.5955,-10.5978,-10.5985,-10.5985,-10.5985,-10.6007,-10.6112,-10.6177,-10.622,-10.6322,-10.6385,-10.6385,-10.6405,-10.6405,-10.6405,-10.6405,-10.6405,-10.6405,-10.6405,-10.6405,-10.6405,-10.6405,-10.6405,-10.6405,-10.6405,-10.6405,-10.6405,-10.6405,-10.6405,-10.6405,-10.6405,-10.6405,-10.6405,-10.6405,-10.6405,-10.6405,-10.6405,-10.6405,-10.6405,-10.6405,-10.6405,-10.6405,-10.6405,-10.6405,-10.6405,-10.6405,-10.6444,-10.6636,-10.6828,-10.7213,-10.7559,-10.6405,-10.6405,-10.6405,-10.6405,-10.6405,-10.6405,-10.6405,-10.6405,-10.6405,-10.6405,-10.6405,-10.6405,-10.6405,-10.6405,-10.6405,-10.6343,-10.622,-10.622,-10.6156,-10.5978,-10.573,-10.551,-10.528,-10.5254,-10.5228,-10.5228,-10.5254,-10.528,-10.5306,-10.528,-10.5254,-10.5228,-10.5094,-10.4968,-10.4733,-10.447,-10.4136,-10.3786,-10.3589,-10.3319,-10.3007,-10.3149,-10.3184,-10.3042,-10.2568,-10.2085,-10.1741,-10.1159,-10.0481,-10.008,-9.9607,-9.9426,-9.9422,-9.9528,-10.0398,-10.1949,-10.2252,-10.3263,-10.4568,-10.5094,-10.5266,-10.5434,-10.5661,-10.5854,-10.5792,-10.5839,-10.5848,-10.5848,-10.5871,-10.5917,-10.5962,-10.603,-10.6134,-10.6199,-10.6343,-10.6385,-10.6405,-10.6405,-10.6405,-10.6405,-10.6405,-10.6405,-10.6405,-10.6405,-10.6405,-10.6405,-10.6405,-10.6405,-10.6405,-10.6405,-10.6405,-10.6405,-10.6405,-10.6405,-10.6405,-10.6405,-10.6405,-10.6405,-10.6405,-10.6405,-10.6405,-10.6405,-10.6405,-10.6405,-10.6405,-10.6405,-10.6405,-10.6405,-10.6405,-10.6405,-10.6559,-10.6905,-10.729,-10.7636,-10.8252,-10.6405,-10.6405,-10.6405,-10.6405,-10.6405,-10.6405,-10.6405,-10.6405,-10.6405,-10.6405,-10.6405,-10.6405,-10.6405,-10.6405,-10.6405,-10.6385,-10.6326,-10.6343,-10.6301,-10.6156,-10.609,-10.5894,-10.5706,-10.5658,-10.5634,-10.5658,-10.5706,-10.5801,-10.5801,-10.5754,-10.573,-10.5658,-10.5472,-10.5332,-10.5094,-10.4818,-10.45,-10.4167,-10.3851,-10.3622,-10.3421,-10.3323,-10.3391,-10.3514,-10.2997,-10.2749,-10.2761,-10.1822,-10.0787,-9.9944,-9.9755,-9.9575,-9.9585,-9.9735,-10.051,-10.1816,-10.2355,-10.3084,-10.4467,-10.5023,-10.5105,-10.5094,-10.5306,-10.5358,-10.5358,-10.5409,-10.5409,-10.5409,-10.5409,-10.551,-10.5658,-10.5754,-10.5871,-10.6156,-10.6284,-10.6385,-10.6405,-10.6405,-10.6405,-10.6405,-10.6405,-10.6405,-10.6405,-10.6405,-10.6405,-10.6405,-10.6405,-10.6405,-10.6405,-10.6405,-10.6405,-10.6405,-10.6405,-10.6405,-10.6405,-10.6405,-10.6405,-10.6405,-10.6405,-10.6405,-10.6405,-10.6405,-10.6405,-10.6405,-10.6405,-10.6405,-10.6405,-10.6405,-10.6405,-10.6405,-10.6482,-10.6751,-10.7521,-10.8059,-10.8867,-10.6405,-10.6405,-10.6405,-10.6405,-10.6405,-10.6405,-10.6405,-10.6405,-10.6405,-10.6405,-10.6405,-10.6405,-10.6405,-10.6405,-10.6405,-10.6405,-10.6405,-10.6405,-10.6364,-10.6322,-10.6263,-10.6096,-10.594,-10.5894,-10.5894,-10.5894,-10.5962,-10.5962,-10.5962,-10.5985,-10.594,-10.5871,-10.5801,-10.5634,-10.5384,-10.5228,-10.4958,-10.4617,-10.435,-10.4104,-10.3851,-10.3753,-10.3824,-10.386,-10.3399,-10.3226,-10.3167,-10.2563,-10.1522,-10.034,-9.9983,-9.993,-9.9915,-10.031,-10.1069,-10.2239,-10.2739,-10.3629,-10.4616,-10.504,-10.5067,-10.5094,-10.5175,-10.5148,-10.5148,-10.5094,-10.5094,-10.504,-10.5067,-10.5175,-10.5332,-10.5485,-10.5777,-10.6134,-10.6263,-10.6343,-10.6385,-10.6405,-10.6405,-10.6405,-10.6405,-10.6405,-10.6405,-10.6405,-10.6405,-10.6405,-10.6405,-10.6405,-10.6405,-10.6405,-10.6405,-10.6405,-10.6405,-10.6405,-10.6405,-10.6405,-10.6405,-10.6405,-10.6405,-10.6405,-10.629,-10.629,-10.6405,-10.6405,-10.6405,-10.6405,-10.6405,-10.6405,-10.6405,-10.6405,-10.6405,-10.6751,-10.7521,-10.8175,-10.9021,-10.6405,-10.6405,-10.6405,-10.6405,-10.6405,-10.6405,-10.6405,-10.6405,-10.6405,-10.6405,-10.6405,-10.6405,-10.6405,-10.6405,-10.6405,-10.6405,-10.6405,-10.6405,-10.6405,-10.6385,-10.6364,-10.6242,-10.6074,-10.6052,-10.6052,-10.6052,-10.6068,-10.6068,-10.609,-10.609,-10.603,-10.6068,-10.6007,-10.5894,-10.5682,-10.5609,-10.5384,-10.5094,-10.4818,-10.4617,-10.4411,-10.432,-10.432,-10.4327,-10.4164,-10.3687,-10.3514,-10.3188,-10.2505,-10.0658,-10.0468,-10.0506,-10.0557,-10.1205,-10.1954,-10.2765,-10.35,-10.4223,-10.4984,-10.5175,-10.5175,-10.5148,-10.5148,-10.5094,-10.4985,-10.493,-10.4874,-10.4771,-10.4846,-10.4996,-10.5121,-10.5384,-10.573,-10.609,-10.6177,-10.6242,-10.6364,-10.6405,-10.6405,-10.6405,-10.6405,-10.6405,-10.6405,-10.6405,-10.6405,-10.6405,-10.6405,-10.6405,-10.6405,-10.6405,-10.6405,-10.6405,-10.6405,-10.6405,-10.6405,-10.6405,-10.6405,-10.6405,-10.6405,-10.6328,-10.6097,-10.6136,-10.6328,-10.6405,-10.6405,-10.6405,-10.6405,-10.6405,-10.6367,-10.6405,-10.6405,-10.6867,-10.7482,-10.7982,-10.8675,-10.6405,-10.6405,-10.6405,-10.6405,-10.6405,-10.6405,-10.6405,-10.6405,-10.6405,-10.6405,-10.6405,-10.6405,-10.6405,-10.6405,-10.6405,-10.6405,-10.6405,-10.6405,-10.6405,-10.6405,-10.6405,-10.6385,-10.6284,-10.6284,-10.6284,-10.6284,-10.6284,-10.6284,-10.6284,-10.6263,-10.6284,-10.6263,-10.6177,-10.6134,-10.6007,-10.5754,-10.5585,-10.5435,-10.5148,-10.4958,-10.4874,-10.4761,-10.4761,-10.4836,-10.4999,-10.4823,-10.4429,-10.4377,-10.3902,-10.2937,-10.2187,-10.1775,-10.1682,-10.1817,-10.2547,-10.3541,-10.3947,-10.439,-10.5011,-10.5228,-10.5148,-10.5132,-10.5067,-10.493,-10.4713,-10.4713,-10.4626,-10.4508,-10.4567,-10.4828,-10.5121,-10.5409,-10.5706,-10.6001,-10.6134,-10.6242,-10.6364,-10.6405,-10.6405,-10.6405,-10.6405,-10.6405,-10.6405,-10.6405,-10.6405,-10.6405,-10.6405,-10.6405,-10.6405,-10.6405,-10.6405,-10.6405,-10.6405,-10.6405,-10.6405,-10.6405,-10.6405,-10.6251,-10.6213,-10.6097,-10.5867,-10.5674,-10.5751,-10.6059,-10.6405,-10.6328,-10.6059,-10.6251,-10.6213,-10.629,-10.6444,-10.6828,-10.729,-10.7752,-10.8252,-10.6405,-10.6405,-10.6405,-10.6405,-10.6405,-10.6405,-10.6405,-10.6405,-10.6405,-10.6405,-10.6405,-10.6405,-10.6405,-10.6405,-10.6405,-10.6405,-10.6405,-10.6405,-10.6405,-10.6405,-10.6405,-10.6405,-10.6405,-10.6405,-10.6405,-10.6405,-10.6385,-10.6405,-10.6405,-10.6405,-10.6385,-10.6405,-10.6343,-10.6242,-10.6199,-10.6001,-10.5886,-10.5754,-10.5535,-10.5384,-10.5358,-10.5254,-10.5254,-10.5346,-10.5658,-10.5618,-10.5387,-10.5416,-10.4982,-10.4334,-10.3797,-10.3272,-10.289,-10.3029,-10.3688,-10.4291,-10.4831,-10.5063,-10.5472,-10.5435,-10.537,-10.5239,-10.5105,-10.4912,-10.4742,-10.4626,-10.4508,-10.4418,-10.4508,-10.4771,-10.5148,-10.5306,-10.5585,-10.5917,-10.6068,-10.6177,-10.6364,-10.6405,-10.6405,-10.6405,-10.6405,-10.6405,-10.6405,-10.6405,-10.6405,-10.6405,-10.6405,-10.6405,-10.6405,-10.6405,-10.6405,-10.6405,-10.6405,-10.6405,-10.6405,-10.6405,-10.6405,-10.6174,-10.5867,-10.5674,-10.5366,-10.5213,-10.5059,-10.5328,-10.5482,-10.5559,-10.5405,-10.5674,-10.6059,-10.629,-10.6482,-10.6713,-10.7021,-10.7405,-10.7829,-10.6405,-10.6405,-10.6405,-10.6405,-10.6405,-10.6405,-10.6405,-10.6405,-10.6405,-10.6405,-10.6405,-10.6405,-10.6405,-10.6405,-10.6405,-10.6405,-10.6405,-10.6405,-10.6405,-10.6405,-10.6405,-10.6405,-10.6405,-10.6405,-10.6405,-10.6405,-10.6405,-10.6405,-10.6405,-10.6405,-10.6405,-10.6405,-10.6405,-10.6343,-10.6242,-10.6199,-10.6112,-10.6023,-10.5848,-10.5777,-10.5777,-10.5682,-10.5706,-10.5777,-10.5917,-10.603,-10.6041,-10.6045,-10.5878,-10.5366,-10.529,-10.4802,-10.4368,-10.4342,-10.4917,-10.501,-10.5556,-10.5794,-10.5777,-10.572,-10.5598,-10.5511,-10.5304,-10.5023,-10.4818,-10.4713,-10.4567,-10.4508,-10.4529,-10.4799,-10.5148,-10.528,-10.5535,-10.5848,-10.5985,-10.6134,-10.6343,-10.6405,-10.6405,-10.6405,-10.6405,-10.6405,-10.6405,-10.6405,-10.6405,-10.6405,-10.6405,-10.6405,-10.6405,-10.6405,-10.6405,-10.6405,-10.6405,-10.6405,-10.6405,-10.6405,-10.6405,-10.6136,-10.5751,-10.5213,-10.4828,-10.4328,-10.4097,-10.4174,-10.4328,-10.4482,-10.4789,-10.5174,-10.5597,-10.6097,-10.6405,-10.6559,-10.679,-10.7059,-10.7444,-10.6405,-10.6405,-10.6405,-10.6405,-10.6405,-10.6405,-10.6405,-10.6405,-10.6405,-10.6405,-10.6405,-10.6405,-10.6405,-10.6405,-10.6405,-10.6405,-10.6405,-10.6405,-10.6405,-10.6405,-10.6405,-10.6405,-10.6405,-10.6405,-10.6405,-10.6405,-10.6405,-10.6405,-10.6405,-10.6405,-10.6405,-10.6405,-10.6405,-10.6385,-10.6343,-10.628,-10.6199,-10.6156,-10.603,-10.6023,-10.5962,-10.5978,-10.594,-10.5985,-10.6112,-10.6177,-10.622,-10.6322,-10.6308,-10.6213,-10.6174,-10.6038,-10.5669,-10.5239,-10.5333,-10.5733,-10.5959,-10.6046,-10.5978,-10.5886,-10.5744,-10.5623,-10.5447,-10.5266,-10.5051,-10.4846,-10.4704,-10.4617,-10.4675,-10.4912,-10.5148,-10.5344,-10.5598,-10.5871,-10.6007,-10.6134,-10.6343,-10.6405,-10.6405,-10.6405,-10.6405,-10.6405,-10.6405,-10.6405,-10.6405,-10.6405,-10.6405,-10.6405,-10.6405,-10.6405,-10.6405,-10.6405,-10.6405,-10.6405,-10.6405,-10.6405,-10.6367,-10.6097,-10.5636,-10.4789,-10.4212,-10.3366,-10.3058,-10.3174,-10.3443,-10.3751,-10.4135,-10.4559,-10.5059,-10.552,-10.5944,-10.6367,-10.6559,-10.679,-10.7021,-10.6405,-10.6405,-10.6405,-10.6405,-10.6405,-10.6405,-10.6405,-10.6405,-10.6405,-10.6405,-10.6405,-10.6405,-10.6405,-10.6405,-10.6405,-10.6405,-10.6405,-10.6405,-10.6405,-10.6405,-10.6405,-10.6405,-10.6405,-10.6405,-10.6405,-10.6405,-10.6405,-10.6405,-10.6405,-10.6405,-10.6405,-10.6405,-10.6405,-10.6405,-10.6385,-10.6343,-10.6322,-10.6263,-10.622,-10.6199,-10.6199,-10.6199,-10.6199,-10.622,-10.6242,-10.6284,-10.6284,-10.6326,-10.6405,-10.6367,-10.6405,-10.6405,-10.6269,-10.6095,-10.5861,-10.6186,-10.622,-10.6177,-10.6134,-10.6046,-10.5978,-10.5801,-10.5672,-10.5498,-10.5306,-10.5148,-10.4958,-10.493,-10.493,-10.5105,-10.5344,-10.5473,-10.5696,-10.5917,-10.603,-10.6177,-10.6343,-10.6385,-10.6405,-10.6405,-10.6405,-10.6405,-10.6405,-10.6405,-10.6405,-10.6405,-10.6405,-10.6405,-10.6405,-10.6405,-10.6405,-10.6405,-10.6405,-10.6405,-10.6405,-10.6405,-10.6405,-10.6174,-10.5597,-10.4713,-10.3866,-10.3097,-10.2443,-10.2212,-10.2558,-10.3097,-10.3405,-10.3828,-10.4405,-10.5059,-10.579,-10.6328,-10.6367,-10.6521,-10.6751,-10.6405,-10.6405,-10.6405,-10.6405,-10.6405,-10.6405,-10.6405,-10.6405,-10.6405,-10.6405,-10.6405,-10.6405,-10.6405,-10.6405,-10.6405,-10.6405,-10.6405,-10.6405,-10.6405,-10.6405,-10.6405,-10.6405,-10.6405,-10.6405,-10.6405,-10.6405,-10.6405,-10.6405,-10.6405,-10.6405,-10.6405,-10.6405,-10.6405,-10.6405,-10.6385,-10.6385,-10.6405,-10.6405,-10.6405,-10.6405,-10.6405,-10.6405,-10.6405,-10.6405,-10.6405,-10.6385,-10.6385,-10.6385,-10.6405,-10.6405,-10.6405,-10.6405,-10.6405,-10.6405,-10.6405,-10.6405,-10.6405,-10.6343,-10.6263,-10.6177,-10.6134,-10.6023,-10.5801,-10.5706,-10.5609,-10.546,-10.5254,-10.5254,-10.528,-10.5344,-10.5473,-10.5585,-10.5777,-10.6001,-10.6156,-10.6242,-10.6364,-10.6405,-10.6405,-10.6405,-10.6405,-10.6405,-10.6405,-10.6405,-10.6405,-10.6405,-10.6405,-10.6405,-10.6405,-10.6405,-10.6405,-10.6405,-10.6405,-10.6405,-10.6405,-10.6405,-10.6405,-10.6328,-10.5597,-10.4713,-10.3828,-10.2943,-10.252,-10.2289,-10.2058,-10.2558,-10.2828,-10.3328,-10.4174,-10.502,-10.5828,-10.629,-10.6367,-10.6405,-10.6521,-10.6405,-10.6405,-10.6405,-10.6405,-10.6405,-10.6405,-10.6405,-10.6405,-10.6405,-10.6405,-10.6405,-10.6405,-10.6405,-10.6405,-10.6405,-10.6405,-10.6405,-10.6405,-10.6405,-10.6405,-10.6405,-10.6405,-10.6405,-10.6405,-10.6405,-10.6405,-10.6405,-10.6405,-10.6405,-10.6405,-10.6405,-10.6405,-10.6405,-10.6405,-10.6405,-10.6405,-10.6405,-10.6405,-10.6405,-10.6405,-10.6405,-10.6405,-10.6405,-10.6405,-10.6405,-10.6405,-10.6405,-10.6405,-10.6405,-10.6405,-10.6405,-10.6405,-10.6405,-10.6405,-10.6405,-10.6405,-10.6405,-10.6385,-10.6364,-10.6263,-10.622,-10.6156,-10.6007,-10.6001,-10.5848,-10.5706,-10.551,-10.5384,-10.5485,-10.556,-10.5672,-10.5801,-10.6023,-10.6112,-10.6199,-10.6263,-10.6364,-10.6405,-10.6405,-10.6405,-10.6405,-10.6405,-10.6405,-10.6405,-10.6405,-10.6405,-10.6405,-10.6405,-10.6405,-10.6405,-10.6405,-10.6405,-10.6405,-10.6405,-10.6405,-10.6405,-10.6405,-10.6405,-10.5597,-10.4789,-10.4212,-10.3558,-10.3289,-10.302,-10.2635,-10.2597,-10.3212,-10.3789,-10.4289,-10.4982,-10.579,-10.6174,-10.6405,-10.6405,-10.6405,-10.6405,-10.6405,-10.6405,-10.6405,-10.6405,-10.6405,-10.6405,-10.6405,-10.6405,-10.6405,-10.6405,-10.6405,-10.6405,-10.6405,-10.6405,-10.6405,-10.6405,-10.6405,-10.6405,-10.6405,-10.6405,-10.6405,-10.6405,-10.6405,-10.6405,-10.6405,-10.6405,-10.6405,-10.6405,-10.6405,-10.6405,-10.6405,-10.6405,-10.6405,-10.6405,-10.6405,-10.6405,-10.6405,-10.6405,-10.6405,-10.6405,-10.6405,-10.6405,-10.6405,-10.6405,-10.6405,-10.6405,-10.6405,-10.6405,-10.6405,-10.6405,-10.6405,-10.6405,-10.6405,-10.6405,-10.6405,-10.6405,-10.6405,-10.6385,-10.6343,-10.6322,-10.6263,-10.6177,-10.609,-10.5985,-10.5894,-10.5801,-10.5754,-10.5777,-10.5801,-10.5848,-10.5985,-10.6112,-10.6199,-10.628,-10.6284,-10.6385,-10.6385,-10.6405,-10.6405,-10.6405,-10.6405,-10.6444,-10.6559,-10.6521,-10.6405,-10.6405,-10.6405,-10.6405,-10.6405,-10.6405,-10.6405,-10.6405,-10.6405,-10.6405,-10.6405,-10.6405,-10.629,-10.5713,-10.502,-10.4789,-10.4366,-10.402,-10.3751,-10.3482,-10.3558,-10.3866,-10.4212,-10.4751,-10.5251,-10.579,-10.6097,-10.6405,-10.6444,-10.6674,-10.6405,-10.6405,-10.6405,-10.6405,-10.6405,-10.6405,-10.6405,-10.6405,-10.6405,-10.6405,-10.6405,-10.6405,-10.6405,-10.6405,-10.6405,-10.6405,-10.6405,-10.6405,-10.6405,-10.6405,-10.6405,-10.6405,-10.6405,-10.6405,-10.6405,-10.6405,-10.6405,-10.6405,-10.6405,-10.6405,-10.6405,-10.6405,-10.6405,-10.6405,-10.6405,-10.6405,-10.6405,-10.6405,-10.6405,-10.6405,-10.6405,-10.6405,-10.6405,-10.6405,-10.6405,-10.6405,-10.6405,-10.6405,-10.6405,-10.6405,-10.6405,-10.6405,-10.6405,-10.6405,-10.6405,-10.6405,-10.6405,-10.6405,-10.6405,-10.6385,-10.6405,-10.6364,-10.6343,-10.6199,-10.6134,-10.609,-10.603,-10.6007,-10.6046,-10.6046,-10.609,-10.6177,-10.622,-10.6263,-10.6343,-10.6385,-10.6405,-10.6405,-10.6405,-10.6405,-10.6405,-10.6405,-10.6482,-10.6713,-10.6674,-10.6444,-10.6405,-10.6405,-10.6405,-10.6405,-10.6405,-10.6405,-10.6405,-10.6405,-10.6405,-10.6405,-10.6405,-10.6251,-10.5713,-10.5443,-10.5366,-10.502,-10.4597,-10.4366,-10.4289,-10.4597,-10.4982,-10.5059,-10.5174,-10.5674,-10.6097,-10.6251,-10.6405,-10.6521,-10.7059,-10.6405,-10.6405,-10.6405,-10.6405,-10.6405,-10.6405,-10.6405,-10.6405,-10.6405,-10.6405,-10.6405,-10.6405,-10.6405,-10.6405,-10.6405,-10.6405,-10.6405,-10.6405,-10.6405,-10.6405,-10.6405,-10.6405,-10.6405,-10.6405,-10.6405,-10.6405,-10.6405,-10.6405,-10.6405,-10.6405,-10.6405,-10.6405,-10.6405,-10.6405,-10.6405,-10.6405,-10.6405,-10.6405,-10.6405,-10.6405,-10.6405,-10.6405,-10.6405,-10.6405,-10.6405,-10.6405,-10.6405,-10.6405,-10.6405,-10.6405,-10.6405,-10.6405,-10.6405,-10.6405,-10.6405,-10.6405,-10.6405,-10.6405,-10.6405,-10.6405,-10.6405,-10.6405,-10.6385,-10.6364,-10.6284,-10.622,-10.6199,-10.6177,-10.6177,-10.6177,-10.622,-10.6263,-10.6305,-10.6364,-10.6385,-10.6385,-10.6405,-10.6405,-10.6405,-10.6405,-10.6482,-10.6674,-10.6982,-10.7251,-10.7136,-10.6944,-10.6751,-10.6751,-10.6444,-10.6405,-10.6405,-10.6405,-10.6405,-10.6405,-10.6405,-10.6405,-10.6405,-10.6405,-10.6097,-10.6059,-10.6136,-10.5713,-10.5213,-10.5366,-10.5366,-10.5713,-10.5905,-10.5713,-10.5713,-10.6136,-10.6405,-10.6482,-10.6751,-10.7021,-10.7713,-10.6405,-10.6405,-10.6405,-10.6405,-10.6405,-10.6405,-10.6405,-10.6405,-10.6405,-10.6405,-10.6405,-10.6405,-10.6405,-10.6405,-10.6405,-10.6405,-10.6405,-10.6405,-10.6405,-10.6405,-10.6405,-10.6405,-10.6405,-10.6405,-10.6405,-10.6405,-10.6405,-10.6405,-10.6405,-10.6405,-10.6405,-10.6405,-10.6405,-10.6405,-10.6405,-10.6405,-10.6405,-10.6405,-10.6405,-10.6405,-10.6405,-10.6405,-10.6405,-10.6405,-10.6405,-10.6405,-10.6405,-10.6405,-10.6405,-10.6405,-10.6405,-10.6405,-10.6405,-10.6405,-10.6405,-10.6405,-10.6405,-10.6405,-10.6405,-10.6405,-10.6405,-10.6405,-10.6405,-10.6405,-10.6405,-10.6343,-10.6343,-10.6343,-10.6322,-10.6284,-10.6305,-10.6326,-10.6385,-10.6405,-10.6405,-10.6405,-10.6405,-10.6405,-10.6559,-10.6636,-10.6982,-10.729,-10.7598,-10.7944,-10.7713,-10.7444,-10.7251,-10.7021,-10.6636,-10.6405,-10.6405,-10.6405,-10.6405,-10.6521,-10.6559,-10.6482,-10.6444,-10.6521,-10.6597,-10.6713,-10.679,-10.6367,-10.602,-10.6213,-10.6328,-10.6482,-10.6405,-10.6136,-10.6136,-10.6367,-10.6521,-10.6674,-10.7021,-10.7559,-10.8367,-10.6405,-10.6405,-10.6405,-10.6405,-10.6405,-10.6405,-10.6405,-10.6405,-10.6405,-10.6405,-10.6405,-10.6405,-10.6405,-10.6405,-10.6405,-10.6405,-10.6405,-10.6405,-10.6405,-10.6405,-10.6405,-10.6405,-10.6405,-10.6405,-10.6405,-10.6405,-10.6405,-10.6405,-10.6405,-10.6405,-10.6405,-10.6405,-10.6405,-10.6405,-10.6405,-10.6405,-10.6405,-10.6405,-10.6405,-10.6405,-10.6405,-10.6405,-10.6405,-10.6405,-10.6405,-10.6405,-10.6405,-10.6405,-10.6405,-10.6405,-10.6405,-10.6405,-10.6405,-10.6405,-10.6405,-10.6405,-10.6405,-10.6405,-10.6405,-10.6405,-10.6405,-10.6405,-10.6405,-10.6405,-10.6405,-10.6405,-10.6385,-10.6385,-10.6385,-10.6405,-10.6405,-10.6405,-10.6405,-10.6405,-10.6405,-10.6405,-10.6405,-10.6405,-10.6674,-10.6905,-10.7328,-10.7713,-10.8367,-10.8636,-10.829,-10.7905,-10.7521,-10.7136,-10.6559,-10.6405,-10.6405,-10.6405,-10.6405,-10.6597,-10.679,-10.6905,-10.7136,-10.7636,-10.7636,-10.7482,-10.7405,-10.7059,-10.7098,-10.7405,-10.7444,-10.7213,-10.7213,-10.7328,-10.6905,-10.6444,-10.6751,-10.7175,-10.7905,-10.8482,-10.906,-10.6405,-10.6405,-10.6405,-10.6405,-10.6405,-10.6405,-10.6405,-10.6405,-10.6405,-10.6405,-10.6405,-10.6405,-10.6405,-10.6405,-10.6405,-10.6405,-10.6405,-10.6405,-10.6405,-10.6405,-10.6405,-10.6405,-10.6405,-10.6405,-10.6405,-10.6405,-10.6405,-10.6405,-10.6405,-10.6405,-10.6405,-10.6405,-10.6405,-10.6405,-10.6405,-10.6405,-10.6405,-10.6405,-10.6405,-10.6405,-10.6405,-10.6405,-10.6405,-10.6405,-10.6405,-10.6405,-10.6405,-10.6405,-10.6405,-10.6405,-10.6405,-10.6405,-10.6405,-10.6405,-10.6405,-10.6405,-10.6405,-10.6405,-10.6405,-10.6405,-10.6405,-10.6405,-10.6405,-10.6405,-10.6405,-10.6405,-10.6405,-10.6405,-10.6405,-10.6405,-10.6405,-10.6405,-10.6405,-10.6405,-10.6405,-10.6559,-10.6559,-10.6713,-10.7021,-10.7598,-10.779,-10.8059,-10.8867,-10.9329,-10.8906,-10.8444,-10.7905,-10.729,-10.6597,-10.6444,-10.6444,-10.6751,-10.679,-10.7175,-10.7444,-10.7598,-10.7905,-10.8444,-10.8598,-10.829,-10.8252,-10.8213,-10.8329,-10.8636,-10.8406,-10.8059,-10.8367,-10.8752,-10.8175,-10.7636,-10.7559,-10.7944,-10.8713,-10.9367,-10.9829,-10.6405,-10.6405,-10.6405,-10.6405,-10.6405,-10.6405,-10.6405,-10.6405,-10.6405,-10.6405,-10.6405,-10.6405,-10.6405,-10.6405,-10.6405,-10.6405,-10.6405,-10.6405,-10.6405,-10.6405,-10.6405,-10.6405,-10.6405,-10.6405,-10.6405,-10.6405,-10.6405,-10.6405,-10.6405,-10.6405,-10.6405,-10.6405,-10.6405,-10.6405,-10.6405,-10.6405,-10.6405,-10.6405,-10.6405,-10.6405,-10.6405,-10.6405,-10.6405,-10.6405,-10.6405,-10.6405,-10.6405,-10.6405,-10.6405,-10.6405,-10.6405,-10.6405,-10.6405,-10.6405,-10.6405,-10.6405,-10.6405,-10.6405,-10.6405,-10.6405,-10.6405,-10.6405,-10.6405,-10.6405,-10.6405,-10.6405,-10.6405,-10.6405,-10.6405,-10.6405,-10.6405,-10.6405,-10.6405,-10.6405,-10.6482,-10.6867,-10.7021,-10.7251,-10.7598,-10.8406,-10.8867,-10.9444,-11.0175,-10.9752,-10.929,-10.8752,-10.8175,-10.7367,-10.6636,-10.6559,-10.6559,-10.7136,-10.7444,-10.7829,-10.8136,-10.8406,-10.8636,-10.9098,-10.906,-10.8713,-10.879,-10.9175,-10.9098,-10.9175,-10.9021,-10.8906,-10.9175,-10.9406,-10.9252,-10.8944,-10.8867,-10.8944,-10.9598,-11.0021,-11.0291,-10.6405,-10.6405,-10.6405,-10.6405,-10.6405,-10.6405,-10.6405,-10.6405,-10.6405,-10.6405,-10.6405,-10.6405,-10.6405,-10.6405,-10.6405,-10.6405,-10.6405,-10.6405,-10.6405,-10.6405,-10.6405,-10.6405,-10.6405,-10.6405,-10.6405,-10.6405,-10.6405,-10.6405,-10.6405,-10.6405,-10.6405,-10.6405,-10.6405,-10.6405,-10.6405,-10.6405,-10.6405,-10.6405,-10.6405,-10.6405,-10.6405,-10.6405,-10.6405,-10.6405,-10.6405,-10.6405,-10.6405,-10.6405,-10.6405,-10.6405,-10.6405,-10.6405,-10.6405,-10.6405,-10.6405,-10.6405,-10.6405,-10.6405,-10.6405,-10.6405,-10.6405,-10.6405,-10.6405,-10.6405,-10.6405,-10.6405,-10.6405,-10.6405,-10.6405,-10.6405,-10.6405,-10.6405,-10.6405,-10.6405,-10.6828,-10.7213,-10.7559,-10.779,-10.8444,-10.9252,-10.9675,-11.0444,-11.0791,-11.0291,-10.9637,-10.9021,-10.8406,-10.7521,-10.679,-10.6828,-10.6982,-10.7598,-10.8175,-10.8598,-10.8983,-10.929,-10.9521,-10.9752,-10.9675,-10.956,-10.9867,-11.0329,-10.9983,-10.979,-10.9983,-11.0098,-10.9944,-10.9983,-11.006,-11.0137,-11.0175,-11.0329,-11.0598,-11.0714,-11.0829,-10.6405,-10.6405,-10.6405,-10.6405,-10.6405,-10.6405,-10.6405,-10.6405,-10.6405,-10.6405,-10.6405,-10.6405,-10.6405,-10.6405,-10.6405,-10.6405,-10.6405,-10.6405,-10.6405,-10.6405,-10.6405,-10.6405,-10.6405,-10.6405,-10.6405,-10.6405,-10.6405,-10.6405,-10.6405,-10.6405,-10.6405,-10.6405,-10.6405,-10.6405,-10.6405,-10.6405,-10.6405,-10.6405,-10.6405,-10.6405,-10.6405,-10.6405,-10.6405,-10.6405,-10.6405,-10.6405,-10.6405,-10.6405,-10.6405,-10.6405,-10.6405,-10.6405,-10.6405,-10.6405,-10.6405,-10.6405,-10.6405,-10.6405,-10.6405,-10.6405,-10.6405,-10.6405,-10.6405,-10.6405,-10.6405,-10.6405,-10.6405,-10.6405,-10.6405,-10.6405,-10.6405,-10.6444,-10.6482,-10.679,-10.7251,-10.7636,-10.8059,-10.8598,-10.9329,-10.9829,-11.0021,-11.0329,-11.0098,-10.9713,-10.9175,-10.8636,-10.8021,-10.7713,-10.7136,-10.7328,-10.7598,-10.8213,-10.879,-10.9367,-10.9752,-11.0137,-11.0367,-11.056,-11.0829,-11.0829,-11.1175,-11.1175,-11.0868,-11.0791,-11.1214,-11.1252,-11.0829,-11.0906,-11.1214,-11.1214,-11.0944,-11.1021,-11.106,-11.1175,-11.1291,-10.6405,-10.6405,-10.6405,-10.6405,-10.6405,-10.6405,-10.6405,-10.6405,-10.6405,-10.6405,-10.6405,-10.6405,-10.6405,-10.6405,-10.6405,-10.6405,-10.6405,-10.6405,-10.6405,-10.6405,-10.6405,-10.6405,-10.6405,-10.6405,-10.6405,-10.6405,-10.6405,-10.6405,-10.6405,-10.6405,-10.6405,-10.6405,-10.6405,-10.6405,-10.6405,-10.6405,-10.6405,-10.6405,-10.6405,-10.6405,-10.6405,-10.6405,-10.6405,-10.6405,-10.6405,-10.6405,-10.6405,-10.6405,-10.6405,-10.6405,-10.6405,-10.6405,-10.6405,-10.6405,-10.6405,-10.6405,-10.6405,-10.6405,-10.6405,-10.6405,-10.6405,-10.6405,-10.6405,-10.6405,-10.6405,-10.6405,-10.6405,-10.6405,-10.6405,-10.6405,-10.6405,-10.6444,-10.6597,-10.6982,-10.7482,-10.8059,-10.8521,-10.9175,-10.9867,-11.0021,-11.0214,-10.9675,-10.9444,-10.8829,-10.8329,-10.7905,-10.7636,-10.7521,-10.7636,-10.7905,-10.8252,-10.8906,-10.9521,-11.0137,-11.0637,-11.1021,-11.1214,-11.1406,-11.1483,-11.1522,-11.1445,-11.1406,-11.1483,-11.1522,-11.1522,-11.1522,-11.1445,-11.1522,-11.1522,-11.1522,-11.1329,-11.1445,-11.1522,-11.1522,-11.1522,-10.6405,-10.6405,-10.6405,-10.6405,-10.6405,-10.6405,-10.6405,-10.6405,-10.6405,-10.6405,-10.6405,-10.6405,-10.6405,-10.6405,-10.6405,-10.6405,-10.6405,-10.6405,-10.6405,-10.6405,-10.6405,-10.6405,-10.6405,-10.6405,-10.6405,-10.6405,-10.6405,-10.6405,-10.6405,-10.6405,-10.6405,-10.6405,-10.6405,-10.6405,-10.6405,-10.6405,-10.6405,-10.6405,-10.6405,-10.6405,-10.6405,-10.6405,-10.6405,-10.6405,-10.6405,-10.6405,-10.6405,-10.6405,-10.6405,-10.6405,-10.6405,-10.6405,-10.6405,-10.6405,-10.6405,-10.6405,-10.6405,-10.6405,-10.6405,-10.6405,-10.6405,-10.6405,-10.6405,-10.6405,-10.6405,-10.6405,-10.6405,-10.6405,-10.6405,-10.6405,-10.6405,-10.6444,-10.6751,-10.7059,-10.7752,-10.8444,-10.906,-10.9713,-10.9983,-11.0137,-10.9829,-10.9213,-10.8636,-10.8021,-10.7559,-10.729,-10.7521,-10.7944,-10.829,-10.8829,-10.9175,-10.9675,-11.0291,-11.0906,-11.1329,-11.1522,-11.1522,-11.1483,-11.1522,-11.1522,-11.1522,-11.1522,-11.1522,-11.1522,-11.1522,-11.1522,-11.1522,-11.1522,-11.1522,-11.1522,-11.1522,-11.1522,-11.1522,-11.1522,-11.1522,-10.6405,-10.6405,-10.6405,-10.6405,-10.6405,-10.6405,-10.6405,-10.6405,-10.6405,-10.6405,-10.6405,-10.6405,-10.6405,-10.6405,-10.6405,-10.6405,-10.6405,-10.6405,-10.6405,-10.6405,-10.6405,-10.6405,-10.6405,-10.6405,-10.6405,-10.6405,-10.6405,-10.6405,-10.6405,-10.6405,-10.6405,-10.6405,-10.6405,-10.6405,-10.6405,-10.6405,-10.6405,-10.6405,-10.6405,-10.6405,-10.6405,-10.6405,-10.6405,-10.6405,-10.6405,-10.6405,-10.6405,-10.6405,-10.6405,-10.6405,-10.6405,-10.6405,-10.6405,-10.6405,-10.6405,-10.6405,-10.6405,-10.6405,-10.6405,-10.6405,-10.6405,-10.6405,-10.6405,-10.6405,-10.6405,-10.6405,-10.6405,-10.6405,-10.6405,-10.6405,-10.6405,-10.6444,-10.6674,-10.7136,-10.779,-10.829,-10.879,-10.9252,-10.9406,-10.9444,-10.9021,-10.8406,-10.7829,-10.7213,-10.7098,-10.6828,-10.7405,-10.8175,-10.879,-10.9483,-11.0021,-11.0406,-11.0791,-11.1252,-11.1368,-11.1522,-11.1522,-11.1522,-11.1522,-11.1522,-11.1522,-11.1522,-11.1522,-11.1522,-11.1522,-11.1522,-11.1522,-11.1522,-11.1522,-11.1522,-11.1522,-11.1522,-11.1522,-11.1483,-11.1522,-10.6405,-10.6405,-10.6405,-10.6405,-10.6405,-10.6405,-10.6405,-10.6405,-10.6405,-10.6405,-10.6405,-10.6405,-10.6405,-10.6405,-10.6405,-10.6405,-10.6405,-10.6405,-10.6405,-10.6405,-10.6405,-10.6405,-10.6405,-10.6405,-10.6405,-10.6405,-10.6405,-10.6405,-10.6405,-10.6405,-10.6405,-10.6405,-10.6405,-10.6405,-10.6405,-10.6405,-10.6405,-10.6405,-10.6405,-10.6405,-10.6405,-10.6405,-10.6405,-10.6405,-10.6405,-10.6405,-10.6405,-10.6405,-10.6405,-10.6405,-10.6405,-10.6405,-10.6405,-10.6405,-10.6405,-10.6405,-10.6405,-10.6405,-10.6405,-10.6405,-10.6405,-10.6405,-10.6405,-10.6405,-10.6405,-10.6405,-10.6405,-10.6405,-10.6405,-10.6405,-10.6405,-10.6482,-10.6597,-10.7175,-10.7752,-10.8098,-10.8444,-10.8559,-10.8752,-10.8444,-10.8059,-10.7598,-10.7021,-10.6751,-10.6597,-10.7098,-10.8059,-10.879,-10.929,-10.9906,-11.0675,-11.106,-11.1175,-11.1445,-11.1522,-11.1522,-11.1522,-11.1522,-11.1522,-11.1522,-11.1522,-11.1522,-11.1522,-11.1522,-11.1522,-11.1522,-11.1522,-11.1522,-11.1522,-11.1522,-11.1522,-11.1522,-11.1445,-11.1406,-11.1483,-10.6405,-10.6405,-10.6405,-10.6405,-10.6405,-10.6405,-10.6405,-10.6405,-10.6405,-10.6405,-10.6405,-10.6405,-10.6405,-10.6405,-10.6405,-10.6405,-10.6405,-10.6405,-10.6405,-10.6405,-10.6405,-10.6405,-10.6405,-10.6405,-10.6405,-10.6405,-10.6405,-10.6405,-10.6405,-10.6405,-10.6405,-10.6405,-10.6405,-10.6405,-10.6405,-10.6405,-10.6405,-10.6405,-10.6405,-10.6405,-10.6405,-10.6405,-10.6405,-10.6405,-10.6405,-10.6405,-10.6405,-10.6405,-10.6405,-10.6405,-10.6405,-10.6405,-10.6405,-10.6405,-10.6405,-10.6405,-10.6405,-10.6405,-10.6405,-10.6405,-10.6405,-10.6405,-10.6405,-10.6405,-10.6405,-10.6405,-10.6405,-10.6405,-10.6405,-10.6405,-10.6405,-10.6444,-10.6482,-10.6828,-10.7444,-10.7905,-10.7829,-10.7675,-10.7636,-10.7328,-10.7098,-10.7021,-10.6597,-10.6559,-10.6521,-10.679,-10.7867,-10.8713,-10.9329,-11.0098,-11.0944,-11.1483,-11.1445,-11.1483,-11.1522,-11.1522,-11.1522,-11.1522,-11.1522,-11.1522,-11.1522,-11.1522,-11.1522,-11.1522,-11.1522,-11.1522,-11.1522,-11.1522,-11.1522,-11.1522,-11.1522,-11.1522,-11.1406,-11.1175,-11.0944,-10.6405,-10.6405,-10.6405,-10.6405,-10.6405,-10.6405,-10.6405,-10.6405,-10.6405,-10.6405,-10.6405,-10.6405,-10.6405,-10.6405,-10.6405,-10.6405,-10.6405,-10.6405,-10.6405,-10.6405,-10.6405,-10.6405,-10.6405,-10.6405,-10.6405,-10.6405,-10.6405,-10.6405,-10.6405,-10.6405,-10.6405,-10.6405,-10.6405,-10.6405,-10.6405,-10.6405,-10.6405,-10.6405,-10.6405,-10.6405,-10.6405,-10.6405,-10.6405,-10.6405,-10.6405,-10.6405,-10.6405,-10.6405,-10.6405,-10.6405,-10.6405,-10.6405,-10.6405,-10.6405,-10.6405,-10.6405,-10.6405,-10.6405,-10.6405,-10.6405,-10.6405,-10.6405,-10.6405,-10.6405,-10.6405,-10.6405,-10.6405,-10.6405,-10.6405,-10.6405,-10.6405,-10.6405,-10.6444,-10.6521,-10.7098,-10.7521,-10.7213,-10.6944,-10.6713,-10.6482,-10.6444,-10.6444,-10.6444,-10.6405,-10.6521,-10.679,-10.7367,-10.8136,-10.8983,-10.9867,-11.0714,-11.1175,-11.1329,-11.1368,-11.1483,-11.1522,-11.1522,-11.1522,-11.1522,-11.1522,-11.1522,-11.1522,-11.1522,-11.1522,-11.1522,-11.1522,-11.1522,-11.1522,-11.1522,-11.1522,-11.1522,-11.1445,-11.0944,-11.0675,-11.0175,-10.6405,-10.6405,-10.6405,-10.6405,-10.6405,-10.6405,-10.6405,-10.6405,-10.6405,-10.6405,-10.6405,-10.6405,-10.6405,-10.6405,-10.6405,-10.6405,-10.6405,-10.6405,-10.6405,-10.6405,-10.6559,-10.6482,-10.6597,-10.6905,-10.6482,-10.6559,-10.6674,-10.6482,-10.6867,-10.6713,-10.6444,-10.6482,-10.6482,-10.6444,-10.6405,-10.6405,-10.6405,-10.6405,-10.6405,-10.6405,-10.6405,-10.6405,-10.6405,-10.6405,-10.6405,-10.6405,-10.6405,-10.6405,-10.6405,-10.6405,-10.6405,-10.6405,-10.6405,-10.6405,-10.6405,-10.6405,-10.6405,-10.6405,-10.6405,-10.6405,-10.6405,-10.6405,-10.6405,-10.6405,-10.6405,-10.6405,-10.6405,-10.6405,-10.6405,-10.6405,-10.6405,-10.6405,-10.6405,-10.6405,-10.6751,-10.679,-10.6636,-10.6597,-10.6521,-10.6444,-10.6405,-10.6405,-10.6405,-10.6405,-10.6405,-10.6751,-10.7251,-10.7982,-10.8252,-10.9329,-11.0444,-11.0752,-11.106,-11.1329,-11.1483,-11.1522,-11.1522,-11.1522,-11.1522,-11.1522,-11.1522,-11.1522,-11.1522,-11.1522,-11.1522,-11.1522,-11.1522,-11.1522,-11.1522,-11.1522,-11.1522,-11.1368,-11.0791,-11.006,-10.9444]},{"header":{"parameterUnit":"m.s-1","parameterCategory":1,"la1":31.0,"la2":29.5877,"lo1":-88.7671,"lo2":-86.6584,"dx":0.0162,"dy":0.0185,"nx":115,"ny":88,"refTime":"2023-01-13T06:00:00:Z","depth":0,"parameterNumber":3,"parameterNumberName":"V-component_of_WINDS"},"data":[0.0,0.0,0.0,0.0,0.0,0.0,0.0,0.0,0.0,0.0,0.0,0.0,0.0,0.0,0.0,0.0,0.0,0.0,0.0,0.0,0.0,0.0,0.0,0.0,0.0,0.0,0.0,0.0,0.0,0.0,0.0,0.0,0.0,0.0,0.0,0.0,0.0,0.0,0.0,0.0,0.0,0.0,0.0,0.0,0.0,0.0,0.0,0.0,0.0,0.0,0.0,0.0,0.0,0.0,0.0,0.0,0.0,0.0,0.0,0.0,0.0,0.0,0.0,0.0,0.0,0.0,0.0,0.0,0.0,0.0,0.0,0.0,0.0,0.0,0.0,0.0,0.0,0.0,0.0,0.0,0.0,0.0,0.0,0.0,0.0,0.0,0.0,0.0,0.0,0.0,0.0,0.0,0.0,0.0,0.0,0.0,0.0,0.0,0.0,0.0,0.0,0.0,0.0,0.0,0.0,0.0,0.0,0.0,0.0,0.0,0.0,0.0,0.0,0.0,0.0,0.0,0.0,0.0,0.0,0.0,0.0,0.0,0.0,0.0,0.0,0.0,0.0,0.0,0.0,0.0,0.0,0.0,0.0,0.0,0.0,0.0,0.0,0.0,0.0,0.0,0.0,0.0,0.0,0.0,0.0,0.0,0.0,0.0,0.0,0.0,0.0,0.0,0.0,0.0,0.0,0.0,0.0,0.0,0.0,0.0,0.0,0.0,0.0,0.0,0.0,0.0,0.0,0.0,0.0,0.0,0.0,0.0,0.0,0.0,0.0,0.0,0.0,0.0,0.0,0.0,0.0,0.0,0.0,0.0,0.0,0.0,0.0,0.0,0.0,0.0,0.0,0.0,0.0,0.0,0.0,0.0,0.0,0.0,0.0,0.0,0.0,0.0,0.0,0.0,0.0,0.0,0.0,0.0,0.0,0.0,0.0,0.0,0.0,0.0,0.0,0.0,0.0,0.0,0.0,0.0,0.0,0.0,0.0,0.0,0.0,0.0,0.0,0.0,0.0,0.0,0.0,0.0,0.0,0.0,0.0,0.0,0.0,0.0,0.0,0.0,0.0,0.0,0.0,0.0,0.0,0.0,0.0,0.0,0.0,0.0,0.0,0.0,0.0,0.0,0.0,0.0,0.0,0.0,0.0,0.0,0.0,0.0,0.0,0.0,0.0,0.0,0.0,0.0,0.0,0.0,0.0,0.0,0.0,0.0,0.0,0.0,0.0,0.0,0.0,0.0,0.0,0.0,0.0,0.0,0.0,0.0,0.0,0.0,0.0,0.0,0.0,0.0,0.0,0.0,0.0,0.0,0.0,0.0,0.0,0.0,0.0,0.0,0.0,0.0,0.0,0.0,0.0,0.0,0.0,0.0,0.0,0.0,0.0,0.0,0.0,0.0,0.0,0.0,0.0,0.0,0.0,0.0,0.0,0.0,0.0,0.0,0.0,0.0,0.0,0.0,0.0,0.0,0.0,0.0,0.0,0.0,0.0,0.0,0.0,0.0,0.0,0.0,0.0,0.0,0.0,0.0,0.0,0.0,0.0,0.0,0.0,0.0,0.0,0.0,0.0,0.0,0.0,0.0,0.0,0.0,0.0,0.0,0.0,0.0,0.0,0.0,0.0,0.0,0.0,0.0,0.0,0.0,0.0,0.0,0.0,0.0,0.0,0.0,0.0,0.0,0.0,0.0,0.0,0.0,0.0,0.0,0.0,0.0,0.0,0.0,0.0,0.0,0.0,0.0,0.0,0.0,0.0,0.0,0.0,0.0,0.0,0.0,0.0,0.0,0.0,0.0,0.0,0.0,0.0,0.0,0.0,0.0,0.0,0.0,0.0,0.0,0.0,0.0,0.0,0.0,0.0,0.0,0.0,0.0,0.0,0.0,0.0,0.0,0.0,0.0,0.0,0.0,0.0,0.0,0.0,0.0,0.0,0.0,0.0,0.0,0.0,0.0,0.0,0.0,0.0,0.0,0.0,0.0,0.0,0.0,0.0,0.0,0.0,0.0,0.0,0.0,0.0,0.0,0.0,0.0,0.0,0.0,0.0,0.0,0.0,0.0,0.0,0.0,0.0,0.0,0.0,0.0,0.0,0.0,0.0,0.0,0.0,0.0,0.0,0.0,0.0,0.0,0.0,0.0,0.0,0.0,0.0,0.0,0.0,0.0,0.0,0.0,0.0,0.0,0.0,0.0,0.0,0.0,0.0,0.0,0.0,0.0,0.0,0.0,0.0,0.0,0.0,0.0,0.0,0.0,0.0,0.0,0.0,0.0,0.0,0.0,0.0,0.0,0.0,0.0,0.0,0.0,0.0,0.0,0.0,0.0,0.0,0.0,0.0,0.0,0.0,0.0,0.0,0.0,0.0,0.0,0.0,0.0,0.0,0.0,0.0,0.0,0.0,0.0,0.0,0.0,0.0,0.0,0.0,0.0,0.0,0.0,0.0,0.0,0.0,0.0,0.0,0.0,0.0,0.0,0.0,0.0,0.0,0.0,0.0,0.0,0.0,0.0,0.0,0.0,0.0,0.0,0.0,0.0,0.0,0.0,0.0,0.0,0.0,0.0,0.0,0.0,0.0,0.0,0.0,0.0,0.0,0.0,0.0,0.0,0.0,0.0,0.0,0.0,0.0,0.0,0.0,0.0,0.0,0.0,0.0,0.0,0.0,0.0,0.0,0.0,0.0,0.0,0.0,0.0,0.0,0.0,0.0,0.0,0.0,0.0,0.0,0.0,0.0,0.0,0.0,0.0,0.0,0.0,0.0,0.0,0.0,0.0,0.0,0.0,0.0,0.0,0.0,0.0,0.0,0.0,0.0,0.0,0.0,0.0,0.0,0.0,0.0,0.0,0.0,0.0,0.0,0.0,0.0,0.0,0.0,0.0,0.0,0.0,0.0,0.0,0.0,0.0,0.0,0.0,0.0,0.0,0.0,0.0,0.0,0.0,0.0,0.0,0.0,0.0,0.0,0.0,0.0,0.0,0.0,0.0,0.0,0.0,0.0,0.0,0.0,0.0,0.0,0.0,0.0,0.0,0.0,0.0,0.0,0.0,0.0,0.0,0.0,0.0,0.0,0.0,0.0,0.0,0.0,0.0,0.0,0.0,0.0,0.0,0.0,0.0,0.0,0.0,0.0,0.0,0.0,0.0,0.0,0.0,0.0,0.0,0.0,0.0,0.0,0.0,0.0,0.0,0.0,0.0,0.0,0.0,0.0,0.0,0.0,0.0,0.0,0.0,0.0,0.0,0.0,0.0,0.0,0.0,0.0,0.0,0.0,0.0,0.0,0.0,0.0,0.0,0.0,0.0,0.0,0.0,0.0,0.0,0.0,0.0,0.0,0.0,0.0,0.0,0.0,0.0,0.0,0.0,0.0,0.0,0.0,0.0,0.0,0.0,0.0,0.0,0.0,0.0,0.0,0.0,0.0,0.0,0.0,0.0,0.0,0.0,0.0,0.0,0.0,0.0,0.0,0.0,0.0,0.0,0.0,0.0,0.0,0.0,0.0,0.0,0.0,0.0,0.0,0.0,0.0,0.0,0.0,0.0,0.0,0.0,0.0,0.0,0.0,0.0,0.0,0.0,0.0,0.0,0.0,0.0,0.0,0.0,0.0,0.0,0.0,0.0,0.0,0.0,0.0,0.0,0.0,0.0,0.0,0.0,0.0,0.0,0.0,0.0,0.0,0.0,0.0,0.0,0.0,0.0,0.0,0.0,0.0,0.0,0.0,0.0,0.0,0.0,0.0,0.0,0.0,0.0,0.0,0.0,0.0,0.0,0.0,0.0,0.0,0.0,0.0,0.0,0.0,0.0,0.0,0.0,0.0,0.0,0.0,0.0,0.0,0.0,0.0,0.0,0.0,0.0,0.0,0.0,0.0,0.0,0.0,0.0,0.0,0.0,0.0,0.0,0.0,0.0,0.0,0.0,0.0,0.0,0.0,0.0,0.0,0.0,0.0,0.0,0.0,0.0,0.0,0.0,0.0,0.0,0.0,0.0,0.0,0.0,0.0,0.0,0.0,0.0,0.0,0.0,0.0,0.0,0.0,0.0,0.0,0.0,0.0,0.0,0.0,0.0,0.0,0.0,0.0,0.0,0.0,0.0,0.0,0.0,0.0,0.0,0.0,0.0,0.0,0.0,0.0,0.0,0.0,0.0,0.0,0.0,0.0,0.0,0.0,0.0,0.0,0.0,0.0,0.0,0.0,0.0,0.0,0.0,0.0,0.0,0.0,0.0,0.0,0.0,0.0,0.0,0.0,0.0,0.0,0.0,0.0,0.0,0.0,0.0,0.0,0.0,0.0,0.0,0.0,0.0,0.0,0.0,0.0,0.0,0.0,0.0,0.0,0.0,0.0,0.0,0.0,0.0,0.0,0.0,0.0,0.0,0.0,0.0,0.0,0.0,0.0,0.0,0.0,0.0,0.0,0.0,0.0,0.0,0.0,0.0,0.0,0.0,0.0,0.0,0.0,0.0,0.0,0.0,0.0,0.0,0.0,0.0,0.0,0.0,0.0,0.0,0.0,0.0,0.0,0.0,0.0,0.0,0.0,0.0,0.0,0.0,0.0,0.0,0.0,0.0,0.0,0.0,0.0,0.0,0.0,0.0,0.0,0.0,0.0,0.0,0.0,0.0,0.0,0.0,0.0,0.0,0.0,0.0,0.0,0.0,0.0,0.0,0.0,0.0,0.0,0.0,0.0,0.0,0.0,0.0,0.0,0.0,0.0,0.0,0.0,0.0,0.0,0.0,0.0,0.0,0.0,0.0537,0.0537,0.0529,0.0464,0.0287,0.0,0.0,0.0,0.0,0.0,0.0,0.0,0.0,0.0,0.0,0.0,0.0,0.0,0.0,0.0,0.0,0.0,0.0,0.0,0.0,0.0,0.0,0.0,0.0,0.0,0.0,0.0,0.0,0.0,0.0,0.0,0.0,0.0,0.0,0.0,0.0,0.0,0.0,0.0,0.0,0.0,0.0,0.0,0.0,0.0,0.0,0.0,0.0,0.0,0.0,0.0,0.0,0.0,0.0,0.0,0.0,0.0,0.0,0.0,0.0,0.0,0.0,0.0,0.0,0.0,0.0,0.0,0.0,0.0,0.0,0.0,0.0,0.0,0.0,0.0,0.0,0.0,0.0,0.0,0.0,0.0,0.0,0.0,0.0,0.0,0.0,0.0,0.0,0.0,0.0,0.0,0.0,0.0,0.0,0.0,0.0,0.0,0.0,0.0,0.0,0.0,0.0,0.0,0.0,0.0,0.0,0.0,0.0,0.0,0.0,0.0,0.0,0.1135,0.0939,0.0518,0.0,0.0,0.0,0.0,0.0,0.0,0.0,0.0,0.0,0.0,0.0,0.0,0.0,0.0,0.0,0.0,0.0,0.0,0.0,0.0,0.0,0.0,0.0,0.0,0.0,0.0,0.0,0.0,0.0,0.0,0.0,0.0,0.0,0.0,0.0,0.0,0.0,0.0,0.0,0.0,0.0,0.0,0.0,0.0,0.0,0.0,0.0,0.0,0.0,0.0,0.0,0.0,0.0,0.0,0.0,0.0,0.0,0.0,0.0,0.0,0.0,0.0,0.0,0.0,0.0,0.0,0.0,0.0,0.0,0.0,0.0,0.0,0.0,0.0,0.0,0.0,0.0,0.0,0.0,0.0,0.0,0.0,0.0,0.0,0.0,0.0,0.0,0.0,0.0,0.0,0.0,0.0,0.0,0.0,0.0,0.0,0.0,0.0,0.0,0.0,0.0,0.0,0.0,0.0,0.0,0.0,0.0,0.0,0.0,0.0,0.1907,0.1907,0.1638,0.0,0.0519,0.0,0.0,0.0,0.0,0.0,0.0,0.0,0.0,0.0,0.0,0.0,0.0,0.0,0.0,0.0,0.0,0.0,0.0,0.0,0.0,0.0,0.0,0.0,0.0,0.0,0.0,0.0,0.0,0.0,0.0,0.0,0.0,0.0,0.0,0.0,0.0,0.0,0.0,0.0,0.0,0.0,0.0,0.0,0.0,0.0,0.0,0.0,0.0,0.0,0.0,0.0,0.0,0.0,0.0,0.0,0.0,0.0,0.0,0.0,0.0,0.0,0.0,0.0,0.0,0.0,0.0,0.0,0.0,0.0,0.0,0.0,0.0,0.0,0.0,0.0,0.0,0.0,0.0,0.0,0.0,0.0,0.0,0.0,0.0,0.0,0.0,0.0,0.0,0.0,0.0,0.0,0.0,0.0,0.0,0.0,0.0,0.0,0.0,0.0,0.0,0.0,0.0,0.0,0.0,0.0,0.0,0.0,0.0,0.0,0.0,0.302,0.2899,0.2188,0.1671,0.0,0.0,0.0,0.0,0.0,0.0,0.0,0.0,0.0,0.0,0.0,0.0,0.0,0.0,0.0,0.0,0.0,0.0,0.0,0.0,0.0,0.0,0.0,0.0,0.0,0.0,0.0,0.0,0.0,0.0,0.0,0.0,0.0,0.0,0.0,0.0,0.0,0.0,0.0,0.0,0.0,0.0,0.0,0.0,0.0,0.0,0.0,0.0,0.0,0.0,0.0,0.0,0.0,0.0,0.0,0.0,0.0,0.0,0.0,0.0,0.0,0.0,0.0,0.0,0.0,0.0,0.0,0.0,0.0,0.0,0.0,0.0,0.0,0.0,0.0,0.0,0.0,0.0,0.0,0.0,0.0,0.0,0.0,0.0,0.0,0.0,0.0,0.0,0.0,0.0,0.0,0.0,0.0,0.0,0.0,0.0,0.0,0.0,0.0,0.0,0.0,0.0,0.0,0.0,0.0,0.0,0.0,0.0,0.0,0.0,0.4435,0.425,0.3881,0.2991,0.2409,0.2075,0.0,0.0,0.0,0.0,0.0,0.0,0.0,0.0,0.0,0.0,0.0,0.0,0.0,0.0,0.0,0.0,0.0,0.0,0.0,0.0,0.0,0.0,0.0,0.0,0.0,0.0,0.0,0.0,0.0,0.0,0.0,0.0,0.0,0.0,0.0,0.0,0.0,0.0,0.0,0.0,0.0,0.0,0.0,0.0,0.0,0.0,0.0,0.0,0.0,0.0,0.0,0.0,0.0,0.0,0.0,0.0,0.0,0.0,0.0,0.0,0.0,0.0,0.0,0.0,0.0,0.0,0.0,0.0,0.0,0.0,0.0,0.0,0.0,0.0,0.0,0.0,0.0,0.0,0.0,0.0,0.0,0.0,0.0,0.0,0.0,0.0,0.0,0.0,0.0,0.0,0.0,0.0,0.0,0.0,0.0,0.0,0.0,0.0,0.0,0.0,0.0,0.0,0.0,0.0,0.0,0.0,0.0,0.0,0.0,0.5786,0.5479,0.4865,0.4186,0.3422,0.0,0.0,0.0,0.0,0.0,0.0,0.0,0.0,0.0,0.0,0.0,0.0,0.0,0.0,0.0,0.0,0.0,0.0,0.0,0.0,0.0,0.0,0.0,0.0,0.0,0.0,0.0,0.0,0.0,0.0,0.0,0.0,0.0,0.0,0.0,0.0,0.0,0.0,0.0,0.0,0.0,0.0,0.0,0.0,0.0,0.0,0.0,0.0,0.0,0.0,0.0,0.0,0.0,0.0,0.0,0.0,0.0,0.0,0.0,0.0,0.0,0.0,0.0,0.0,0.0,0.0,0.0,0.0,0.0,0.0,0.0,0.0,0.0,0.0,0.0,0.0,0.0,0.0,0.0,0.0,0.0,0.0,0.0,0.0,0.0,0.0,0.0,0.0,0.0,0.0,0.0,0.0,0.0,0.0,0.0,0.0,0.0,0.0,0.0,0.0,0.0,0.0,0.0,0.0,0.0,0.0,0.0,0.0,0.0,0.653,0.6342,0.6096,0.5851,0.4988,0.4282,0.0,0.0,0.0,0.0,0.0,0.0,0.0,0.0,0.0,0.0,0.0,0.0,0.0,0.0,0.0,0.0,0.0,0.0,0.0,0.0,0.0,0.0,0.0,0.0,0.0,0.0,0.0,0.0,0.0,0.0,0.0,0.0,0.0,0.0,0.0,0.0,0.0,0.0,0.0,0.0,0.0,0.0,0.0,0.0,0.0,0.0,0.0,0.0,0.0,0.0,0.0,0.0,0.0,0.0,0.0,0.0,0.0,0.0,0.0,0.0,0.0,0.0,0.0,0.0,0.0,0.0,0.0,0.0,0.0,0.0,0.0,0.0,0.0,0.0,0.0,0.0,0.0,0.0,0.0,0.0,0.0,0.0,0.0,0.0,0.0,0.0,0.0,0.0,0.0,0.0,0.0,0.0,0.0,0.0,0.0,0.0,0.0,0.0,0.0,0.0,0.0,0.0,0.0,0.0,0.0,0.0,0.0,0.0,0.0,0.7629,0.0,0.7117,0.6993,0.6093,0.5371,0.0,0.0,0.0,0.0,0.0,0.0,0.0,0.0,0.0,0.0,0.0,0.0,0.0,0.0,0.0,0.0,0.0,0.0,0.0,0.0,0.0,0.0,0.0,0.0,0.0,0.0,0.0,0.0,0.0,0.0,0.0,0.0,0.0,0.0,0.0,0.0,0.0,0.0,0.0,0.0,0.0,0.0,0.0,0.0,0.0,0.0,0.0,0.0,0.0,0.0,0.0,0.0,0.0,0.0,0.0,0.0,0.0,0.0,0.0,0.0,0.0,0.0,0.0,0.0,0.0,0.0,0.0,0.0,0.0,0.0,0.0,0.0,0.0,0.0,0.0,0.0,0.0,0.0,0.0,0.0,0.0,0.0,0.0,0.0,0.0,0.0,0.0,0.0,0.0,0.0,0.0,0.0,0.0,0.0,0.0,0.0,0.0,0.0,0.0,0.0,0.0,0.0,0.0,0.0,0.0,0.0,0.0,0.0,0.9002,0.9068,0.888,0.8631,0.8306,0.7496,0.6616,0.0,0.0,0.0,0.0,0.0,0.0,0.0,0.0,0.0,0.0,0.0,0.0,0.0,0.0,0.0,0.0,0.0,0.0,0.0,0.0,0.0,0.0,0.0,0.0,0.0,0.0,0.0,0.0,0.0,0.0,0.0,0.0,0.0,0.0,0.0,0.0,0.0,0.0,0.0,0.0,0.0,0.0,0.0,0.0,0.0,0.0,0.0,0.0,0.0,0.0,0.0,0.0,0.0,0.0,0.0,0.0,0.0,0.0,0.0,0.0,0.0,0.0,0.0,0.0,0.0,0.0,0.0,0.0,0.0,0.0,0.0,0.0,0.0,0.0,0.0,0.0,0.0,0.0,0.0,0.0,0.0,0.0,0.0,0.0,0.0,0.0,0.0,0.0,0.0,0.0,0.0,0.0,0.0,0.0,0.0,0.0,0.0,0.0,0.0,0.0,0.0,0.0,0.0,0.0,0.0,0.0,0.0,0.0,0.0,0.9537,0.96,0.9601,0.9467,0.8618,0.7762,0.0,0.0,0.0,0.0,0.0,0.0,0.0,0.0,0.0,0.0,0.0,0.0,0.0,0.0,0.0,0.0,0.0,0.0,0.0,0.0,0.0,0.0,0.0,0.0,0.0,0.0,0.0,0.0,0.0,0.0,0.0,0.0,0.0,0.0,0.0,0.0,0.0,0.0,0.0,0.0,0.0,0.0,0.0,0.0,0.0,0.0,0.0,0.0,0.0,0.0,0.0,0.0,0.0,0.0,0.0,0.0,0.0,0.0,0.0,0.0,0.0,0.0,0.0,0.0,0.0,0.0,0.0,0.0,0.0,0.0,0.0,0.0,0.0,0.0,0.0,0.0,0.0,0.0,0.0,0.0,0.0,0.0,0.0,0.0,0.0,0.0,0.0,0.0,0.0,0.0,0.0,0.0,0.0,0.0,0.0,0.0,0.0,0.0,0.0,0.0,0.0,0.0,0.0,0.0,0.0,0.0,0.0,0.0,0.0,1.0658,1.06,1.0568,1.043,0.9763,0.8968,0.7913,0.0,0.0,0.0,0.0,0.0,0.0,0.0,0.0,0.0,0.0,0.0,0.0,0.0,0.0,0.0,0.0,0.0,0.0,0.0,0.0,0.0,0.0,0.0,0.0,0.0,0.0,0.0,0.0,0.0,0.0,0.0,0.0,0.0,0.0,0.0,0.0,0.0,0.0,0.0,0.0,0.0,0.0,0.0,0.0,0.0,0.0,0.0,0.0,0.0,0.0,0.0,0.0,0.0,0.0,0.0,0.0,0.0,0.0,0.0,0.0,0.0,0.0,0.0,0.0,0.0,0.0,0.0,0.0,0.0,0.0,0.0,0.0,0.0,0.0,0.0,0.0,0.0,0.0,0.0,0.0,0.0,0.0,0.0,0.0,0.0,0.0,0.0,0.0,0.0,0.0,0.0,0.0,0.0,0.0,0.0,0.0,0.0,0.0,0.0,0.0,0.0,0.0,0.0,0.0,0.0,0.0,0.0,0.0,1.2291,1.1911,1.1556,1.1234,1.0895,1.0178,0.0,0.0,0.0,0.0,0.0,0.0,0.0,0.0,0.0,0.0,0.0,0.0,0.0,0.0,0.0,0.0,0.0,0.0,0.0,0.0,0.0,0.0,0.0,0.0,0.0,0.0,0.0,0.0,0.0,0.0,0.0,0.0,0.0,0.0,0.0,0.0,0.0,0.0,0.0,0.0,0.0,0.0,0.0,0.0,0.0,0.0,0.0,0.0,0.0,0.0,0.0,0.0,0.0,0.0,0.0,0.0,0.0,0.0,0.0,0.0,0.0,0.0,0.0,0.0,0.0,0.0,0.0,0.0,0.0,0.0,0.0,0.0,0.0,0.0,0.0,0.0,0.0,0.0,0.0,0.0,0.0,0.0,0.0,0.0,0.0,0.0,0.0,0.0,0.0,0.0,0.0,0.0,0.0,0.0,0.0,0.0,0.0,0.0,0.0,0.0,0.0,0.0,0.0,0.0,0.0,0.0,0.0,0.0,0.0,1.2427,1.2651,1.2657,1.2286,1.1766,1.0881,0.0,0.0,0.0,0.0,0.0,0.0,0.0,0.0,0.0,0.0,0.0,0.0,0.0,0.0,0.0,0.0,0.0,0.0,0.0,0.0,0.0,0.0,0.0,0.0,0.0,0.0,0.0,0.0,0.0,0.0,0.0,0.0,0.0,0.0,0.0,0.0,0.0,0.0,0.0,0.0,0.0,0.0,0.0,0.0,0.0,0.0,0.0,0.0,0.0,0.0,0.0,0.0,0.0,0.0,0.0,0.0,0.0,0.0,0.0,0.0,0.0,0.0,0.0,0.0,0.0,0.0,0.0,0.0,0.0,0.0,0.0,0.0,0.0,0.0,0.0,0.0,0.0,0.0,0.0,0.0,0.0,0.0,0.0,0.0,0.0,0.0,0.0,0.0,0.0,0.0,0.0,0.0,0.0,0.0,0.0,0.0,0.0,0.0,0.0,0.0,0.0,0.0,0.0,0.0,0.0,0.0,0.0,0.0,1.2325,1.2868,1.3132,1.3247,1.32,1.2628,1.1752,0.0,0.0,0.0,0.0,0.0,0.0,0.0,0.0,0.0,0.0,0.0,0.0,0.0,0.0,0.0,0.0,0.0,0.0,0.0,0.0,0.0,0.0,0.0,0.0,0.0,0.0,0.0,0.0,0.0,0.0,0.0,0.0,0.0,0.0,0.0,0.0,0.0,0.0,0.0,0.0,0.0,0.0,0.0,0.0,0.0,0.0,0.0,0.0,0.0,0.0,0.0,0.0,0.0,0.0,0.0,0.0,0.0,0.0,0.0,0.0,0.0,0.0,0.0,0.0,0.0,0.0,0.0,0.0,0.0,0.0,0.0,0.0,0.0,0.0,0.0,0.0,0.0,0.0,0.0,0.0,0.0,0.0,0.0,0.0,0.0,0.0,0.0,0.0,0.0,0.0,0.0,0.0,0.0,0.0,0.0,0.0,0.0,0.0,0.0,0.0,0.0,0.0,0.0,0.0,0.0,0.0,0.0,0.0,1.2562,1.3376,1.3444,1.3587,1.381,1.3302,1.2568,0.0,0.0,0.0,0.0,0.0,0.0,0.0,0.0,0.0,0.0,0.0,0.0,0.0,0.0,0.0,0.0,0.0,0.0,0.0,0.0,0.0,0.0,0.0,0.0,0.0,0.0,0.0,0.0,0.0,0.0,0.0,0.0,0.0,0.0,0.0,0.0,0.0,0.0,0.0,0.0,0.0,0.0,0.0,0.0,0.0,0.0,0.0,0.0,0.0,0.0,0.0,0.0,0.0,0.0,0.0,0.0,0.0,0.0,0.0,0.0,0.0,0.0,0.0,0.0,0.0,0.0,0.0,0.0,0.0,0.0,0.0,0.0,0.0,0.0,0.0,0.0,0.0,0.0,0.0,0.0,0.0,0.0,0.0,0.0,0.0,0.0,0.0,0.0,0.0,0.0,0.0,0.0,0.0,0.0,0.0,0.0,0.0,0.0,0.0,0.0,0.0,0.0,0.0,0.0,0.0,0.0,0.0,0.0,1.2976,1.339,1.3743,1.3899,1.3838,1.3498,1.2862,0.0,0.0,0.0,0.0,0.0,0.0,0.0,0.0,0.0,0.0,0.0,0.0,0.0,0.0,0.0,0.0,0.0,0.0,0.0,0.0,0.0,0.0,0.0,0.0,0.0,0.0,0.0,0.0,0.0,0.0,0.0,0.0,0.0,0.0,0.0,0.0,0.0,0.0,0.0,0.0,0.0,0.0,0.0,0.0,0.0,0.0,0.0,0.0,0.9257,0.0,0.0,0.0,0.0,0.0,0.0,0.0,0.0,0.0,0.0,0.0,0.0,0.0,0.0,0.0,0.0,0.0,0.0,0.0,0.0,0.0,0.0,0.0,0.0,0.0,0.0,0.0,0.0,0.0,0.0,0.0,0.0,0.0,0.0,0.0,0.0,0.0,0.0,0.0,0.0,0.0,0.0,0.0,0.0,0.0,0.0,0.0,0.0,0.0,0.0,0.0,0.0,0.0,0.0,0.0,0.0,0.0,0.0,0.0,1.3173,1.36,1.3912,1.4068,1.4048,1.3763,1.3246,0.0,0.0,0.0,0.0,0.0,0.0,0.0,0.0,0.0,0.0,0.0,0.0,0.0,0.0,0.0,0.0,0.0,0.0,0.0,0.0,0.0,0.0,0.0,0.0,0.0,0.0,0.0,0.0,0.0,0.0,0.0,0.0,0.0,0.0,0.0,0.0,0.0,0.0,0.0,0.0,0.0,0.0,0.0,0.0,0.0,0.0,0.0,0.0,0.0,0.0,0.0,0.0,0.0,0.0,0.0,0.0,0.0,0.0,0.0,0.0,0.0,0.0,0.0,0.0,0.0,0.0,0.0,0.0,0.0,0.0,0.0,0.0,0.0,0.0,0.0,0.0,0.0,0.0,0.0,0.0,0.0,0.0,0.0,0.0,0.0,0.0,0.0,0.0,0.0,0.0,0.0,0.0,0.0,0.0,0.0,0.0,0.0,0.0,0.0,0.0,0.0,0.0,0.0,0.0,0.0,0.0,0.0,1.2813,1.3336,1.3885,1.4041,1.4177,1.4319,1.4014,1.3587,1.3044,0.0,0.0,0.0,0.0,0.0,0.0,0.0,0.0,0.0,0.0,0.0,0.0,0.0,0.0,0.0,0.0,0.0,0.0,0.0,0.0,0.0,0.0,0.0,0.0,0.0,0.0,0.0,0.0,0.0,0.0,0.0,0.0,0.0,0.0,0.0,0.0,0.0,0.0,0.8534,0.9364,0.0,0.0,0.0,0.0,0.0,0.0,0.0,0.0,1.1584,0.0,0.0,0.0,0.0,0.0,0.0,0.0,0.0,0.0,0.0,0.0,0.0,0.0,0.0,0.0,0.0,0.0,0.0,0.0,0.0,0.0,0.0,0.0,0.0,0.0,0.0,0.0,0.0,0.0,0.0,0.0,0.0,0.0,0.0,0.0,0.0,0.0,0.0,0.0,0.0,0.0,0.0,0.0,0.0,0.0,0.0,0.0,0.0,0.0,0.0,0.0,0.0,0.0,0.0,0.0,0.0,1.2461,1.3159,1.3749,1.4211,1.4251,1.4333,1.4455,1.4061,1.3682,1.3315,0.0,0.0,0.0,0.0,0.0,0.0,0.0,0.0,0.0,0.0,0.0,0.0,0.0,0.0,0.0,0.0,0.0,0.0,0.0,0.0,0.0,0.0,0.0,0.0,0.0,0.0,0.0,0.0,0.0,0.0,0.0,0.0,0.0,0.0,0.0,0.0,0.0,0.0,0.0,1.0292,1.0626,0.0,0.0,0.0,0.0,0.0,0.0,0.0,0.0,1.2088,0.0,0.0,0.0,0.0,0.0,0.0,0.0,0.0,0.0,0.0,0.0,0.0,0.0,0.0,0.0,0.0,0.0,0.0,0.0,0.0,0.0,0.0,0.0,0.0,0.0,0.0,0.0,0.0,0.0,0.0,0.0,0.0,0.0,0.0,0.0,0.0,0.0,0.0,0.0,0.0,0.0,0.0,0.0,0.0,0.0,0.0,0.0,0.0,0.0,0.0,0.0,0.0,0.0,0.0,0.0,1.2732,1.3329,1.3851,1.4278,1.4373,1.4441,1.4502,1.4156,1.3749,0.0,0.0,0.0,0.0,0.0,0.0,0.0,0.0,0.0,0.0,0.0,0.0,0.0,0.0,0.0,0.0,0.0,0.0,0.0,0.0,0.0,0.0,0.0,0.0,0.0,0.0,0.0,0.0,0.0,0.0,0.0,0.0,0.0,0.0,0.0,0.0,0.0,0.0,0.0,0.0,1.1272,1.1619,1.1768,0.0,0.0,0.0,0.0,0.0,0.0,1.2651,1.2596,0.0,0.0,0.0,0.0,0.0,0.0,0.0,0.0,0.0,0.0,0.0,0.0,0.0,0.0,0.0,0.0,0.0,0.0,0.0,0.0,0.0,0.0,0.0,0.0,0.0,0.0,0.0,0.0,0.0,0.0,0.0,0.0,0.0,0.0,0.0,0.0,0.0,0.0,0.0,0.0,0.0,0.0,0.0,0.0,0.0,0.0,0.0,0.0,0.0,0.0,0.0,0.0,0.0,0.0,0.0,1.299,1.3478,1.3933,1.4373,1.4502,1.4557,1.455,1.4245,1.3804,0.0,0.0,0.0,0.0,0.0,0.0,0.0,0.0,0.0,0.0,0.0,0.0,0.0,0.0,0.0,0.0,0.0,0.0,0.0,0.0,0.0,0.0,0.0,0.0,0.0,0.0,0.0,0.0,0.0,0.0,0.0,0.0,0.0,0.0,0.0,0.0,0.0,0.0,0.0,0.0,0.0,1.2345,1.2379,1.2657,0.0,0.0,0.0,0.0,1.3098,1.3166,0.0,0.0,0.0,0.0,0.0,0.0,0.0,0.0,0.0,0.0,0.0,0.0,0.0,0.0,0.0,0.0,0.0,0.0,0.0,0.0,0.0,0.0,0.0,0.0,0.0,0.0,0.0,0.0,0.0,0.0,0.0,0.0,0.0,0.0,0.0,0.0,0.0,0.0,0.0,0.0,0.0,0.0,0.0,0.0,0.0,0.0,0.0,0.0,0.0,0.0,0.0,0.0,0.0,0.0,0.0,0.0,1.3139,1.3722,1.4238,1.4665,1.4706,1.4713,1.4615,1.4299,1.3851,0.0,0.0,0.0,0.0,0.0,0.0,0.0,0.0,0.0,0.0,0.0,0.0,0.0,0.0,0.0,0.0,0.0,0.0,0.0,0.0,0.0,0.0,0.0,0.0,0.0,0.0,0.0,0.0,0.0,0.0,0.0,0.0,0.0,0.0,0.0,0.0,0.0,0.0,0.0,0.0,0.0,1.2528,1.2657,1.3051,1.3268,0.0,0.0,1.3553,1.3553,1.3451,0.0,0.0,0.0,0.0,0.0,0.0,0.0,0.0,0.0,0.0,0.0,0.0,0.0,0.0,0.0,0.0,0.0,0.0,0.0,0.0,0.0,0.0,0.0,0.0,0.0,0.0,0.0,0.0,0.0,0.0,0.0,0.0,0.0,0.0,0.0,0.0,0.0,0.0,0.0,0.0,0.0,0.0,0.0,0.0,0.0,0.0,0.0,0.0,0.0,0.0,0.0,0.0,0.0,0.0,0.0,1.2745,1.3424,1.3939,1.438,1.4726,1.4821,1.4869,1.4869,1.4516,1.4034,0.0,0.0,0.0,0.0,0.0,0.0,0.0,0.0,0.0,0.0,0.0,0.0,0.0,0.0,0.0,0.0,0.0,0.0,0.0,0.0,0.0,0.0,0.0,0.0,0.0,0.0,0.0,0.0,0.0,0.0,0.0,0.0,0.0,0.0,0.0,0.0,0.0,0.0,0.0,0.0,0.0,0.0,1.3064,1.3424,0.0,0.0,0.0,1.381,1.398,0.0,0.0,0.0,0.0,0.0,0.0,0.0,0.0,0.0,0.0,0.0,0.0,0.0,0.0,0.0,0.0,0.0,0.0,0.0,0.0,0.0,0.0,0.0,0.0,0.0,0.0,0.0,0.0,0.0,0.0,0.0,0.0,0.0,0.0,0.0,0.0,0.0,0.0,0.0,0.0,0.0,0.0,0.0,0.0,0.0,0.0,0.0,0.0,0.0,0.0,0.0,0.0,0.0,0.0,0.0,0.0,0.0,1.3668,1.4122,1.4516,1.4841,1.5004,1.5065,1.5018,1.4726,0.0,0.0,0.0,0.0,0.0,0.0,0.0,0.0,0.0,0.0,0.0,0.0,0.0,0.0,0.0,0.0,0.0,0.0,0.0,0.0,0.0,0.0,0.0,0.0,0.0,0.0,0.0,1.0324,0.0,0.0,0.0,0.0,0.0,0.0,0.0,0.0,0.0,0.0,0.0,0.0,0.0,0.0,1.2935,1.3342,1.3715,1.4,0.0,0.0,1.4136,1.4326,1.4041,1.3715,0.0,0.0,0.0,0.0,0.0,0.0,0.0,0.0,0.0,0.0,0.0,0.0,0.0,0.0,0.0,0.0,0.0,0.0,0.0,0.0,0.0,0.0,0.0,0.0,0.0,0.0,0.0,0.0,0.0,0.0,0.0,0.0,0.0,0.0,0.0,0.0,0.0,0.0,0.0,0.0,0.0,0.0,0.0,0.0,0.0,0.0,0.0,0.0,0.0,0.0,0.0,0.0,0.0,0.0,0.0,1.381,1.4272,1.4713,1.5133,1.5303,1.5316,1.5167,1.4882,1.4441,0.0,0.0,0.0,0.0,0.0,0.0,0.0,0.0,0.0,0.0,0.0,0.0,0.0,0.0,0.0,0.0,0.0,0.0,0.0,0.0,0.0,0.0,0.0,0.0,0.0,0.0,0.0,0.0,0.0,0.0,0.0,0.0,0.0,0.0,0.0,0.0,0.0,0.0,0.0,0.0,0.0,1.3057,1.3356,1.3899,1.4272,0.0,0.0,1.4638,1.4516,1.436,1.4109,1.3682,0.0,0.0,0.0,0.0,0.0,0.0,0.0,0.0,0.0,0.0,0.0,0.0,0.0,0.0,0.0,0.0,0.0,0.0,0.0,0.0,0.0,0.0,0.0,0.0,0.0,0.0,0.0,0.0,0.0,0.0,0.0,0.0,0.0,0.0,0.0,0.0,0.0,0.0,0.0,0.0,0.0,0.0,0.0,0.0,0.0,0.0,0.0,0.0,0.0,0.0,0.0,0.0,0.0,1.3241,1.3973,1.4523,1.4923,1.5181,1.5425,1.5527,1.5466,1.5167,1.4821,0.0,0.0,0.0,0.0,0.0,0.0,0.0,0.0,0.0,0.0,0.0,0.0,0.0,0.0,0.0,0.0,0.0,0.0,0.0,0.0,0.0,0.0,0.0,0.0,0.0,0.0,0.0,0.0,1.1965,1.2081,1.1986,0.0,0.0,0.0,0.0,0.0,0.0,0.0,0.0,0.0,0.0,1.3403,1.3885,1.4231,0.0,0.0,1.4733,1.4753,1.4787,1.4516,1.4245,1.4068,1.3464,0.0,0.0,0.0,0.0,0.0,0.0,0.0,0.0,0.0,0.0,0.0,0.0,0.0,0.0,0.0,0.0,0.0,0.0,0.0,0.0,0.0,0.0,0.0,0.0,0.0,0.0,0.0,0.0,0.0,0.0,0.0,0.0,0.0,0.0,0.0,0.0,0.0,0.0,0.0,0.0,0.0,0.0,0.0,0.0,0.0,0.0,0.0,0.0,0.0,0.0,0.0,0.0,1.3478,1.4265,1.4774,1.5147,1.5377,1.5635,1.575,1.5696,1.5493,1.5201,0.0,0.0,0.0,0.0,0.0,0.0,0.0,0.0,0.0,0.0,0.0,0.0,0.0,0.0,0.0,0.0,0.0,0.0,0.0,0.0,0.0,0.0,0.0,0.0,0.0,0.0,0.0,0.0,1.2277,1.2277,1.2162,0.0,0.0,0.0,0.0,0.0,0.0,0.0,0.0,0.0,0.0,1.377,1.4238,1.4502,1.4726,1.4943,1.4916,1.4896,1.4964,1.4706,1.4468,1.4373,0.0,0.0,0.0,0.0,0.0,0.0,0.0,0.0,0.0,0.0,0.0,0.0,0.0,0.0,0.0,0.0,0.0,0.0,0.0,0.0,0.0,0.0,0.0,0.0,0.0,0.0,0.0,0.0,0.0,0.0,1.0867,0.0,0.0,0.0,0.0,0.0,0.0,0.0,0.0,0.0,0.0,0.0,0.0,0.0,0.0,0.0,0.0,0.0,0.0,0.0,0.0,0.0,0.0,1.3824,1.4706,1.5025,1.5398,1.5916,1.5988,1.6001,1.5866,1.5845,1.556,1.4977,0.0,0.0,0.0,0.0,0.0,0.0,0.0,0.0,0.0,0.0,0.0,0.0,0.0,0.0,0.0,0.0,0.0,0.0,0.0,0.0,0.0,0.0,0.0,0.0,0.0,0.0,1.2847,1.2671,1.2372,0.0,0.0,0.0,0.0,0.0,0.0,0.0,0.0,0.0,0.0,1.3682,1.4116,1.4292,1.4685,1.4964,1.4984,1.5092,1.5126,1.5004,1.4964,1.4855,0.0,0.0,0.0,0.0,0.0,0.0,0.0,0.0,0.0,0.0,0.0,0.0,0.0,0.0,0.0,0.0,0.0,0.0,0.0,0.0,0.0,0.0,0.0,0.0,0.0,0.0,0.0,1.1999,1.1911,0.0,0.0,0.0,0.0,0.0,0.0,0.0,0.0,0.0,0.0,0.0,1.3024,1.2976,0.0,0.0,0.0,0.0,0.0,0.0,0.0,0.0,0.0,0.0,0.0,0.0,1.3946,1.4628,1.5235,1.5655,1.5995,1.6246,1.6347,1.63,1.611,1.5676,1.4991,0.0,0.0,0.0,0.0,0.0,0.0,0.0,0.0,0.0,0.0,0.0,0.0,0.0,0.0,0.0,0.0,0.0,0.0,0.0,0.0,0.0,0.0,0.0,0.0,0.0,1.2474,0.0,0.0,0.0,0.0,0.0,0.0,0.0,0.0,0.0,0.0,0.0,1.3261,1.3715,1.4109,1.4489,1.4841,1.5011,1.5181,0.0,0.0,0.0,0.0,0.0,0.0,0.0,0.0,0.0,0.0,0.0,0.0,0.0,0.0,1.2956,1.2508,1.2515,1.2596,1.2651,0.0,0.0,0.0,0.0,0.0,0.0,0.0,0.0,0.0,0.0,0.0,0.0,0.0,0.0,1.2868,0.0,1.2725,0.0,0.0,0.0,0.0,0.0,0.0,0.0,0.0,1.3498,1.3641,1.3783,1.3736,1.3661,0.0,1.3566,1.3315,0.0,0.0,0.0,0.0,0.0,0.0,0.0,0.0,1.4278,1.4964,1.5513,1.5913,1.6157,1.6449,1.6571,1.6517,1.6286,1.5879,1.5296,1.4936,1.4428,0.0,0.0,0.0,0.0,0.0,0.0,0.0,0.0,0.0,0.0,0.0,0.0,0.0,0.0,0.0,0.0,0.0,0.0,0.0,0.0,0.0,0.0,0.0,1.2895,0.0,0.0,0.0,0.0,0.0,0.0,0.0,0.0,0.0,1.2827,1.3295,1.3797,1.4245,1.4557,1.4869,1.5215,0.0,0.0,0.0,0.0,0.0,0.0,0.0,1.5554,1.5499,1.5371,1.5228,1.5079,1.4726,1.4428,1.4326,0.0,0.0,1.3336,1.3275,1.3363,1.3417,1.3424,1.3431,1.3424,1.3431,1.3512,0.0,0.0,0.0,0.0,0.0,0.0,0.0,0.0,1.36,1.3736,0.0,1.3559,0.0,0.0,0.0,0.0,0.0,1.3505,0.0,0.0,1.4251,1.4401,1.4509,1.4387,1.4326,1.4326,1.4326,1.4319,1.4265,1.3451,0.0,0.0,0.0,0.0,0.0,0.0,1.4821,1.5411,1.5859,1.6164,1.6327,1.6612,1.6686,1.6537,1.6402,1.6185,1.5872,1.5438,1.493,1.4346,1.3749,0.0,0.0,0.0,0.0,0.0,0.0,0.0,0.0,0.0,0.0,0.0,0.0,0.0,0.0,0.0,0.0,0.0,0.0,0.0,0.0,1.3383,0.0,0.0,0.0,0.0,0.0,0.0,0.0,0.0,0.0,0.0,1.3478,1.3838,1.4265,1.4713,0.0,0.0,0.0,0.0,1.571,1.5859,1.5872,1.5927,1.6062,1.5967,1.592,1.6056,0.0,0.0,1.5683,1.5411,1.5208,1.5208,1.5194,1.4984,1.4278,1.4122,1.415,1.4285,1.4306,1.4319,1.4326,1.4292,1.4387,1.434,0.0,0.0,0.0,0.0,1.3912,1.4,1.4068,1.4434,1.4482,1.4319,1.4346,0.0,0.0,0.0,0.0,0.0,0.0,1.436,1.4563,1.4814,1.495,1.4991,1.495,1.493,1.493,1.493,1.493,1.4916,1.4672,1.4278,1.3763,0.0,0.0,0.0,0.0,1.5133,1.571,1.6069,1.6368,1.6619,1.6815,1.6842,1.6693,1.6646,1.6483,1.6191,1.5845,1.5438,1.4943,1.436,0.0,0.0,0.0,0.0,0.0,0.0,0.0,0.0,0.0,0.0,0.0,0.0,0.0,0.0,0.0,0.0,0.0,0.0,0.0,1.3871,1.3838,1.3702,0.0,0.0,0.0,0.0,0.0,0.0,0.0,0.0,0.0,1.4631,1.4692,1.4882,0.0,0.0,1.5757,1.6015,1.609,1.6171,1.6307,1.6327,0.0,1.6252,1.6293,1.6313,1.6252,1.6205,1.6164,1.6123,1.5954,1.5825,1.5825,1.5825,1.575,1.5547,1.5147,1.4903,1.4923,1.493,1.493,1.493,1.493,1.4991,1.5181,1.4753,1.4489,1.4428,1.4523,1.4611,1.4685,1.476,1.5031,1.5072,1.4957,1.4991,1.4903,1.4733,1.4584,0.0,0.0,0.0,1.4916,1.5018,1.5309,1.5445,1.5452,1.5513,1.554,1.554,1.554,1.554,1.554,1.554,1.5316,1.4869,0.0,0.0,1.4957,1.5201,1.5554,1.6029,1.6395,1.6666,1.6842,1.7046,1.708,1.6931,1.6924,1.6788,1.649,1.6198,1.5852,1.5459,1.4882,1.4319,0.0,0.0,0.0,0.0,0.0,0.0,0.0,0.0,0.0,0.0,0.0,1.1848,1.2372,0.0,0.0,0.0,1.377,1.4224,1.4618,1.438,0.0,0.0,0.0,0.0,0.0,0.0,0.0,1.4373,1.4685,1.5011,1.5391,1.5479,1.5581,1.5791,1.594,1.6123,1.6361,0.0,1.6449,1.6592,1.6612,1.6605,1.6578,1.6592,1.6598,1.6585,1.6625,1.6659,1.6653,1.649,1.6354,1.6341,1.63,1.6259,1.6252,1.5954,1.5669,1.556,1.554,1.554,1.554,1.554,1.5581,1.5906,1.5872,1.5459,1.5276,1.5255,1.5255,1.5337,1.5466,1.5479,1.5554,1.5662,1.554,1.5472,1.5459,1.5316,0.0,1.5262,1.5411,1.5486,1.5493,1.5778,1.5906,1.5913,1.6049,1.6117,1.6117,1.6117,1.6117,1.611,1.611,1.6123,1.6117,1.5581,1.5438,1.5689,1.5825,1.6042,1.6368,1.6768,1.6992,1.7019,1.7283,1.7351,1.7209,1.7202,1.7066,1.6684,1.6503,1.6205,1.5893,1.535,1.4828,1.4373,0.0,0.0,0.0,0.0,0.0,0.0,0.0,0.0,0.0,0.0,0.0,0.0,0.0,0.0,0.0,1.4462,0.0,1.5194,1.4964,0.0,0.0,0.0,1.4224,1.4387,1.4407,1.4577,1.5025,0.0,0.0,1.5872,1.6164,1.6293,1.6151,1.6259,1.6395,1.6537,1.6564,1.6605,1.6748,1.6768,1.6822,1.6937,1.689,1.687,1.6985,1.7127,1.7182,1.7168,1.6992,1.6815,1.6802,1.6686,1.6605,1.6598,1.6592,1.651,1.6246,1.6144,1.6103,1.6096,1.609,1.6123,1.6361,1.6354,1.6246,1.6076,1.5866,1.5866,1.5886,1.5934,1.6049,1.6056,1.5981,1.6062,1.6035,1.592,1.5886,1.5866,1.5872,1.6029,1.6096,1.611,1.6279,1.6361,1.6368,1.6402,1.6415,1.6415,1.6415,1.6415,1.6415,1.6415,1.6476,1.6578,1.6442,1.63,1.6157,1.6185,1.6408,1.6822,1.6924,1.7093,1.7311,1.7385,1.7405,1.7365,1.7256,1.7161,1.7087,1.6802,1.651,1.6212,1.5845,1.5391,1.4835,1.4353,0.0,0.0,0.0,0.0,0.0,0.0,0.0,0.0,0.0,1.3051,1.3749,0.0,1.4543,0.0,1.5099,1.533,1.5513,1.5357,0.0,0.0,1.5031,1.5025,1.5289,1.5323,1.5493,1.594,1.6056,1.6164,1.6341,1.653,1.6632,1.6598,1.6619,1.67,1.6849,1.687,1.6883,1.691,1.6917,1.6978,1.7107,1.7216,1.7263,1.7311,1.7344,1.7365,1.7372,1.7311,1.7263,1.7256,1.7236,1.7209,1.7188,1.7209,1.7182,1.7087,1.6741,1.6415,1.6415,1.6422,1.6435,1.6659,1.6734,1.6795,1.6761,1.6659,1.6388,1.6279,1.6279,1.6368,1.6354,1.6286,1.6368,1.6354,1.6279,1.6279,1.6279,1.6286,1.6368,1.6442,1.651,1.6659,1.6754,1.6822,1.689,1.6917,1.6924,1.6924,1.6924,1.6917,1.6924,1.6965,1.7046,1.7046,1.6965,1.6809,1.6741,1.6856,1.7175,1.7243,1.7392,1.7609,1.7616,1.7589,1.7521,1.7372,1.7263,1.7188,1.6904,1.6673,1.6503,1.6218,1.5845,1.5384,1.4936,1.4455,0.0,0.0,0.0,0.0,0.0,0.0,0.0,0.0,0.0,0.0,0.0,1.512,1.5547,1.5723,1.5872,1.6015,1.59,1.5811,1.5811,1.5676,1.5676,1.5913,1.594,1.6083,1.6463,1.6564,1.6659,1.6802,1.6951,1.7019,1.6958,1.6944,1.6951,1.6971,1.6978,1.6978,1.6978,1.6978,1.7032,1.7168,1.7317,1.7446,1.7514,1.7575,1.7616,1.7616,1.7561,1.7521,1.7521,1.7467,1.7419,1.7419,1.7419,1.7419,1.7378,1.7161,1.6944,1.6924,1.6917,1.6924,1.6897,1.7046,1.7168,1.7297,1.7378,1.6856,1.6639,1.6632,1.6639,1.6639,1.6632,1.6639,1.6639,1.6639,1.6639,1.6639,1.6639,1.6639,1.6707,1.6842,1.6978,1.7107,1.7222,1.7358,1.7419,1.7419,1.7419,1.7419,1.7419,1.7419,1.7433,1.7446,1.7446,1.746,1.7581,1.7452,1.7438,1.7554,1.7602,1.7738,1.797,1.797,1.7806,1.7677,1.7507,1.7358,1.7222,1.6937,1.6768,1.6741,1.6503,1.6225,1.592,1.5506,1.5072,0.0,1.4224,0.0,0.0,0.0,0.0,0.0,0.0,0.0,0.0,1.5086,1.5574,1.6096,1.6259,1.6388,1.651,1.6429,1.6368,1.6368,1.6266,1.6259,1.6402,1.6422,1.653,1.6802,1.6958,1.7087,1.7195,1.7338,1.7358,1.7202,1.7168,1.7114,1.7012,1.6978,1.6978,1.6978,1.6998,1.7073,1.7216,1.7358,1.7507,1.765,1.7765,1.786,1.7846,1.7751,1.7684,1.769,1.7616,1.7541,1.7528,1.7548,1.7555,1.7575,1.7555,1.75,1.7399,1.7365,1.7419,1.7195,1.7338,1.7365,1.7392,1.7412,1.7297,1.7249,1.7249,1.7249,1.7249,1.7249,1.7249,1.7249,1.7249,1.7249,1.7249,1.7249,1.7249,1.727,1.7297,1.7324,1.7351,1.7378,1.7405,1.7419,1.7419,1.7419,1.7419,1.7419,1.7419,1.748,1.7602,1.7609,1.7882,1.8438,0.0,0.0,0.0,1.7964,1.806,1.853,1.8081,1.7853,1.7819,1.7561,0.0,1.7372,1.7093,1.6876,1.6761,1.6597,0.0,0.0,0.0,0.0,0.0,0.0,0.0,0.0,0.0,0.0,0.0,1.5174,1.5242,1.5432,1.594,1.6313,1.6429,1.6463,1.649,1.6524,1.6612,1.6666,1.6666,1.6748,1.687,1.7005,1.7019,1.7093,1.727,1.7317,1.7344,1.7378,1.7405,1.7365,1.7229,1.7195,1.7134,1.6998,1.6978,1.6978,1.6985,1.706,1.7195,1.7358,1.7494,1.7629,1.7792,1.784,1.786,1.7867,1.7853,1.7874,1.7968,1.7982,1.8002,1.8111,1.8152,1.8111,1.8145,1.8138,1.8002,1.7528,1.7426,1.7419,1.7392,1.7534,1.7534,1.7575,0.0,1.7643,1.7636,1.7629,1.748,1.7419,1.7419,1.7419,1.7419,1.7419,1.7419,1.7419,1.7419,1.7419,1.746,1.7534,1.7534,1.7575,1.7643,1.7717,1.7751,1.7758,1.7826,1.7867,1.786,1.7867,1.8011,1.842,1.842,1.8796,1.9425,1.9759,1.9641,1.9068,1.8818,1.8861,1.9081,1.8861,1.875,1.8743,1.8522,0.0,0.0,0.0,0.0,0.0,0.0,0.0,0.0,1.6354,0.0,1.5866,1.5642,1.5486,1.5411,1.5472,1.5581,1.573,1.609,1.6205,1.5988,1.6449,1.6748,1.6754,1.6876,1.6965,1.6965,1.7039,1.708,1.7087,1.7148,1.7229,1.729,1.7304,1.7365,1.75,1.7534,1.7555,1.7629,1.7636,1.7541,1.7344,1.7304,1.7229,1.7026,1.6978,1.6978,1.6978,1.7032,1.7168,1.7372,1.7473,1.7623,1.7799,1.786,1.7894,1.7962,1.7975,1.803,1.8165,1.8206,1.8233,1.8294,1.8321,1.8321,1.8321,1.8321,1.8247,1.7914,1.7806,1.7724,1.7548,1.7684,1.769,1.7758,1.786,1.786,1.788,1.7887,0.0,0.0,0.0,1.75,1.75,1.75,1.75,1.7514,1.7541,1.7541,1.7623,1.7765,1.7772,1.7826,1.7948,1.807,1.8131,1.8138,1.8373,1.8435,1.8435,1.8548,1.8881,1.9333,1.9446,2.0011,2.0794,2.147,2.1327,2.0725,2.037,2.0267,2.0378,2.0378,2.0252,2.0111,2.0053,1.9844,1.9705,1.9538,1.924,1.8696,1.8473,1.8137,1.7475,1.7003,1.6694,1.6578,1.6421,1.6239,1.6239,1.6239,1.6307,1.6456,1.6829,1.6876,1.6463,1.6815,1.706,1.706,1.7283,1.7419,1.7419,1.7446,1.746,1.746,1.748,1.75,1.75,1.75,1.7555,1.7663,1.7684,1.7731,1.7833,1.7846,1.7772,1.7528,1.746,1.7372,1.7121,1.7019,1.6978,1.6978,1.7026,1.7127,1.7344,1.746,1.7568,1.7812,1.786,1.7914,1.8043,1.8091,1.8158,1.8328,1.8355,1.8375,1.8396,1.8416,1.8403,1.8396,1.8396,1.8389,1.8355,1.8253,1.8118,1.7697,1.7833,1.7833,1.7846,1.786,1.786,1.7941,1.8043,1.7874,1.7799,1.7799,1.7799,1.7806,1.7799,1.7799,1.7874,1.7996,1.7996,1.8077,1.8226,1.8226,1.8233,1.8253,1.828,1.8287,1.8287,1.8874,1.9107,1.9107,1.9672,2.0011,2.0124,2.0568,2.1695,2.3156,2.3941,2.4352,2.4734,2.3173,2.2726,2.319,2.3173,2.2864,2.2268,2.2092,2.1589,2.1008,2.0838,2.0404,1.9876,1.9861,1.9509,1.8952,1.8251,1.784,1.7812,1.7252,1.6856,1.6849,1.6856,1.6917,1.706,1.7249,1.7222,1.6931,1.7175,1.7358,1.7358,1.7405,1.7419,1.7426,1.7541,1.7616,1.7629,1.7731,1.7799,1.7799,1.7799,1.7806,1.7826,1.7833,1.7833,1.7853,1.786,1.7806,1.7656,1.7575,1.7541,1.7351,1.7141,1.6998,1.6998,1.7087,1.7222,1.7405,1.7534,1.767,1.7833,1.7867,1.7935,1.8084,1.8124,1.8219,1.8457,1.8504,1.8552,1.8654,1.8701,1.8674,1.8667,1.866,1.8633,1.8531,1.847,1.8416,1.7806,1.786,1.786,1.7914,1.7996,1.8077,1.8152,1.8206,1.8145,1.8111,1.8111,1.8111,1.8111,1.8111,1.8111,1.8145,1.8213,1.8213,1.8472,1.8767,1.8767,1.8994,1.934,1.9419,1.9462,1.9469,1.9777,1.9927,2.0042,2.0606,2.1063,2.1528,2.266,2.391,2.5054,2.5949,2.674,2.7303,2.5712,2.4929,2.5273,2.5598,2.544,2.479,2.4698,2.422,2.3373,2.2957,2.2427,2.1782,2.1035,2.0447,1.98,1.9111,1.8601,1.8281,1.7896,1.7535,1.7222,1.7222,1.7249,1.7317,1.746,1.7494,1.7358,1.7467,1.7541,1.7548,1.7616,1.7663,1.7663,1.7724,1.7799,1.788,1.7948,1.8016,1.8097,1.8111,1.8077,1.8002,1.7989,1.7955,1.7874,1.786,1.7812,1.767,1.7589,1.75,1.7439,1.7311,1.7216,1.7222,1.7277,1.7372,1.7514,1.7595,1.7704,1.784,1.7935,1.8043,1.8186,1.826,1.8409,1.8599,1.8654,1.8681,1.8755,1.8762,1.8762,1.8762,1.8762,1.8721,1.8674,1.8654,1.8579,1.7887,1.7914,1.7914,1.8002,1.8152,1.8274,1.8335,1.8362,1.8369,1.8389,1.8409,1.8355,1.8321,1.8321,1.8321,1.8448,1.8589,1.8596,1.8951,1.9433,1.9547,1.9888,2.0471,2.0591,2.0766,2.0888,2.1125,2.1179,2.1295,2.1872,2.2563,2.3369,2.4976,2.612,2.6919,2.7944,2.8967,2.9636,2.861,2.7865,2.753,2.8088,2.8067,2.7459,2.7348,2.7025,2.6153,2.5582,2.4854,2.4028,2.2857,2.1883,2.1222,2.031,1.9461,1.8921,1.8488,1.8171,1.7629,1.7521,1.7534,1.7575,1.7677,1.7765,1.7792,1.7799,1.7785,1.7772,1.7846,1.7921,1.7955,1.7968,1.8016,1.8131,1.8145,1.8186,1.8294,1.8321,1.828,1.8165,1.8138,1.8084,1.7962,1.7914,1.786,1.7724,1.7595,1.7528,1.7521,1.7521,1.7521,1.7514,1.7494,1.7514,1.7636,1.7724,1.7799,1.7907,1.8043,1.8192,1.8335,1.8464,1.8579,1.8708,1.8749,1.8749,1.8755,1.8762,1.8762,1.8762,1.8762,1.8762,1.8749,1.8749,1.8674,1.7941,1.8063,1.8063,1.8158,1.8294,1.8321,1.8396,1.8504,1.8511,1.8593,1.8674,1.8437,1.8328,1.8321,1.8328,1.8737,1.9305,1.9419,1.972,2.0419,2.0441,2.0787,2.1348,2.1371,2.1733,2.2185,2.2785,2.3024,2.3139,2.3713,2.4632,2.5777,2.7033,2.8172,2.9307,3.01,3.1003,3.2141,3.2544,3.1948,3.0485,3.0936,3.0835,3.0064,3.0053,2.9599,2.8697,2.8133,2.7579,2.6985,2.5563,2.4568,2.389,2.2194,2.0889,2.0341,1.925,1.8377,1.7929,1.7819,1.788,1.8009,1.803,1.8097,1.8219,1.824,1.8192,1.8091,1.8063,1.8124,1.826,1.826,1.826,1.8287,1.8294,1.8308,1.8335,1.8321,1.8314,1.8301,1.8301,1.824,1.8104,1.807,1.8009,1.7887,1.7853,1.7826,1.7826,1.7826,1.7826,1.7806,1.7724,1.7656,1.7704,1.7894,1.8016,1.8077,1.8199,1.8335,1.8457,1.8518,1.8579,1.8721,1.8762,1.8762,1.8762,1.8762,1.8762,1.8762,1.8762,1.8762,1.8762,1.8762,1.8687,1.8036,1.8097,1.8186,1.8314,1.845,1.8538,1.8613,1.8667,1.8667,1.8708,1.8742,1.8633,1.8579,1.8579,1.8579,1.8958,1.9583,1.9583,2.0426,2.1641,2.1756,2.2217,2.3139,2.3139,2.3254,2.3484,2.3828,2.4173,2.4632,2.5425,2.6577,2.7727,2.8637,2.942,3.0326,3.168,3.2579,3.304,3.3936,3.4035,3.3476,3.3588,3.3428,3.2773,3.2649,3.2073,3.0965,3.0265,2.9644,2.896,2.7418,2.6202,2.5414,2.3678,2.2151,2.1071,1.9722,1.8663,1.8002,1.8084,1.8158,1.8226,1.8226,1.826,1.8308,1.8321,1.8321,1.8342,1.8274,1.826,1.8314,1.8321,1.8355,1.8423,1.8443,1.8477,1.8572,1.8579,1.8552,1.8464,1.8443,1.8389,1.8267,1.8226,1.8199,1.8138,1.8131,1.8118,1.8124,1.8131,1.8131,1.8124,1.8077,1.8009,1.7955,1.8077,1.8206,1.8247,1.8348,1.8484,1.8518,1.862,1.8694,1.8755,1.8762,1.8762,1.8762,1.8762,1.8762,1.8762,1.8762,1.8762,1.8762,1.8762,1.8721,1.8138,1.8233,1.8375,1.8498,1.8599,1.8715,1.8762,1.8762,1.8762,1.8762,1.8762,1.8762,1.8762,1.8878,1.8994,1.9335,1.9914,2.0262,2.1295,2.2686,2.3024,2.3828,2.4746,2.4976,2.5081,2.5319,2.5319,2.5548,2.6006,2.7033,2.8058,2.9091,2.9884,3.0563,3.1342,3.2804,3.3712,3.3936,3.4941,3.5498,3.5609,3.572,3.5262,3.4606,3.4482,3.4061,3.2987,3.2296,3.1547,3.0931,2.9078,2.7641,2.7035,2.514,2.3246,2.16,2.0183,1.9049,1.8488,1.8486,1.8448,1.8369,1.8375,1.8396,1.843,1.8443,1.8484,1.8565,1.8498,1.845,1.8443,1.8443,1.8491,1.8586,1.8593,1.8647,1.8742,1.8762,1.8708,1.8613,1.8599,1.8538,1.8409,1.8342,1.8301,1.8301,1.8308,1.8321,1.8321,1.8308,1.8308,1.8321,1.8342,1.8308,1.8199,1.8274,1.8362,1.8409,1.8498,1.8593,1.8593,1.8701,1.8755,1.8755,1.8762,1.8762,1.8762,1.8762,1.8762,1.8762,1.8762,1.8762,1.8762,1.8762,1.8762,1.8253,1.8518,1.8674,1.8728,1.8749,1.8755,1.8762,1.8762,1.8762,1.8762,1.8762,1.8762,1.8762,1.8878,1.9342,2.003,2.0601,2.1756,2.2571,2.3386,2.4526,2.5434,2.6015,2.6577,2.7147,2.7489,2.7489,2.7603,2.7841,2.842,2.9091,2.976,3.0902,3.1804,3.2366,3.36,3.4482,3.504,3.5609,3.6276,3.6719,3.683,3.6276,3.5262,3.5164,3.5151,3.4903,3.3911,3.3228,3.3216,3.0745,2.9394,2.9106,2.6612,2.4063,2.1874,2.0686,1.9884,1.9319,1.9234,1.8958,1.8612,1.8525,1.8579,1.8687,1.8701,1.8708,1.8742,1.8715,1.8708,1.8708,1.8687,1.8708,1.8728,1.8742,1.8749,1.8755,1.8762,1.8762,1.8742,1.8728,1.8667,1.8538,1.8403,1.8369,1.8355,1.8335,1.8342,1.8362,1.8348,1.8355,1.8375,1.8437,1.847,1.8362,1.843,1.8511,1.8545,1.8626,1.8728,1.8749,1.8762,1.8762,1.8762,1.8762,1.8762,1.8762,1.8762,1.8762,1.8762,1.8762,1.8762,1.8762,1.8762,1.8762,1.8491,1.8681,1.8742,1.8762,1.8762,1.8762,1.8762,1.8762,1.8762,1.8762,1.8762,1.8762,1.8762,1.8878,1.9451,2.003,2.0717,2.1872,2.3024,2.4067,2.5214,2.6129,2.6701,2.7375,2.7717,2.7954,2.7954,2.8182,2.8637,2.9204,2.9771,3.0461,3.1251,3.1916,3.2591,3.37,3.4606,3.5164,3.5831,3.6387,3.683,3.6941,3.6498,3.5831,3.6165,3.6165,3.5831,3.4941,3.4383,3.4048,3.2272,3.0958,2.9633,2.6764,2.4074,2.1993,2.1486,2.084,2.016,2.0035,1.9878,1.936,1.9251,1.915,1.8865,1.8762,1.8762,1.8762,1.8762,1.8762,1.8762,1.8762,1.8762,1.8762,1.8762,1.8762,1.8762,1.8762,1.8762,1.8762,1.8762,1.8735,1.8681,1.8633,1.8606,1.8606,1.8606,1.8593,1.8599,1.8599,1.8586,1.8606,1.8647,1.8667,1.8626,1.864,1.8681,1.8687,1.8728,1.8742,1.8762,1.8762,1.8762,1.8762,1.8762,1.8762,1.8762,1.8762,1.8762,1.8762,1.8762,1.8762,1.8762,1.8762,1.8762,1.8667,1.8755,1.8762,1.8762,1.8762,1.8762,1.8762,1.8762,1.8762,1.8762,1.8762,1.8762,1.8762,1.8878,1.9458,2.003,2.0717,2.1872,2.3139,2.4288,2.5548,2.6472,2.7043,2.7717,2.7954,2.7954,2.7954,2.8182,2.8637,2.8977,2.9544,3.0121,3.0676,3.1353,3.2029,3.3264,3.4271,3.4718,3.5387,3.5943,3.6276,3.6387,3.6165,3.5943,3.6165,3.6152,3.5831,3.5275,3.4668,3.4036,3.2797,3.1224,2.9316,2.6854,2.4706,2.319,2.2698,2.2196,2.1224,2.1125,2.0833,2.003,1.9799,1.9451,1.911,1.8878,1.8762,1.8762,1.8762,1.8762,1.8762,1.8762,1.8762,1.8762,1.8762,1.8762,1.8762,1.8762,1.8762,1.8762,1.8762,1.8762,1.8762,1.8755,1.8749,1.8762,1.8762,1.8762,1.8762,1.8762,1.8762,1.8762,1.8742,1.8749,1.8721,1.8721,1.8728,1.8735,1.8742,1.8755,1.8762,1.8762,1.8762,1.8762,1.8762,1.8762,1.8762,1.8762,1.8762,1.8762,1.8762,1.8762,1.8762,1.8762,1.8769,1.8755,1.8762,1.8762,1.8762,1.8762,1.8762,1.8762,1.8762,1.8762,1.8762,1.8762,1.8762,1.8762,1.8878,1.9342,2.003,2.0601,2.1641,2.2909,2.4182,2.5434,2.6358,2.6939,2.7613,2.7841,2.7841,2.7954,2.7954,2.7954,2.7944,2.8296,2.8864,2.9544,3.01,3.0778,3.2354,3.3376,3.3712,3.4594,3.5164,3.5164,3.5275,3.5275,3.5164,3.5138,3.5014,3.5027,3.4457,3.411,3.3678,3.2202,3.0199,2.8296,2.6864,2.6025,2.5161,2.4447,2.3499,2.2637,2.244,2.1872,2.0948,2.0146,1.9914,1.9683,1.9219,1.8994,1.8994,1.8994,1.8878,1.8878,1.8878,1.8878,1.8762,1.8762,1.8762,1.8762,1.8762,1.8762,1.8762,1.8762,1.8762,1.8762,1.8762,1.8762,1.8762,1.8762,1.8762,1.8762,1.8762,1.8762,1.8762,1.8762,1.8762,1.8762,1.8762,1.8762,1.8762,1.8755,1.8762,1.8762,1.8762,1.8762,1.8762,1.8762,1.8762,1.8762,1.8762,1.8762,1.8762,1.8762,1.8762,1.8769,1.8776,1.8803,1.8762,1.8762,1.8762,1.8762,1.8762,1.8762,1.8762,1.8762,1.8762,1.8762,1.8762,1.8762,1.8762,1.8878,1.8994,1.9451,2.003,2.0493,2.1649,2.3607,2.487,2.5786,2.6358,2.7033,2.7251,2.7261,2.6919,2.6701,2.6701,2.6701,2.7043,2.7603,2.8172,2.908,2.9987,3.1116,3.2017,3.3376,3.3712,3.4383,3.5052,3.5164,3.4829,3.4023,3.3752,3.321,3.2097,3.2876,3.3089,3.2493,3.149,3.0241,2.854,2.7201,2.6204,2.5589,2.4779,2.4293,2.3785,2.3377,2.2802,2.1995,2.1302,2.0724,2.0377,2.0146,2.003,2.003,2.003,1.9914,1.9567,1.9451,1.9226,1.8878,1.8762,1.8762,1.8762,1.8762,1.8762,1.8762,1.8762,1.8762,1.8762,1.8762,1.8762,1.8762,1.8762,1.8762,1.8762,1.8762,1.8762,1.8762,1.8762,1.8762,1.8762,1.8762,1.8762,1.8762,1.8762,1.8762,1.8762,1.8762,1.8762,1.8762,1.8762,1.8762,1.8762,1.8762,1.8762,1.8762,1.8762,1.8769,1.8776,1.881,1.8857,1.8762,1.8762,1.8762,1.8762,1.8762,1.8762,1.8762,1.8762,1.8762,1.8762,1.8762,1.8762,1.8762,1.8762,1.8762,1.911,1.9683,1.9683,2.0609,2.2341,2.3607,2.4632,2.5319,2.5777,2.5996,2.5882,2.5663,2.5443,2.5434,2.5443,2.5663,2.5996,2.6577,2.7375,2.8399,2.9307,3.0439,3.1905,3.2242,3.3028,3.3936,3.3924,3.3588,3.3004,3.2455,3.1378,3.0076,3.0519,3.0726,3.0578,3.005,2.9043,2.7923,2.6938,2.6176,2.5846,2.5311,2.4785,2.4569,2.4067,2.3492,2.2802,2.2003,2.131,2.0956,2.084,2.0601,2.0601,2.0601,2.0486,2.0146,1.9799,1.9567,1.9226,1.8878,1.8878,1.8762,1.8762,1.8762,1.8762,1.8762,1.8762,1.8762,1.8762,1.8762,1.8762,1.8762,1.8762,1.8762,1.8762,1.8762,1.8762,1.8762,1.8762,1.8762,1.8762,1.8762,1.8762,1.8762,1.8762,1.8762,1.8762,1.8762,1.8762,1.8762,1.8762,1.8762,1.8762,1.8762,1.8762,1.8769,1.8803,1.8837,1.8905,1.8966,1.8762,1.8762,1.8762,1.8762,1.8762,1.8762,1.8762,1.8762,1.8762,1.8762,1.8762,1.8762,1.8762,1.8762,1.8762,1.911,1.9567,1.9567,1.9914,2.084,2.1872,2.2909,2.3943,2.4058,2.4173,2.4173,2.4058,2.3943,2.3828,2.3943,2.4058,2.4173,2.4746,2.5443,2.6234,2.7261,2.8513,2.976,3.0439,3.1342,3.2354,3.2029,3.1916,3.2242,3.0992,2.9876,2.8814,2.7698,2.7512,2.8225,2.7741,2.7223,2.664,2.6088,2.5848,2.6247,2.585,2.5507,2.5104,2.4746,2.4182,2.3616,2.2579,2.1657,2.1764,2.1533,2.1295,2.1295,2.1179,2.0948,2.0717,2.037,2.003,1.9683,1.911,1.8878,1.8762,1.8762,1.8762,1.8762,1.8762,1.8762,1.8762,1.8762,1.8762,1.8762,1.8762,1.8762,1.8762,1.8762,1.8762,1.8762,1.8762,1.8762,1.8762,1.8762,1.8762,1.8762,1.8762,1.8762,1.8762,1.8762,1.8762,1.8762,1.8762,1.8762,1.8762,1.8762,1.8762,1.8762,1.8789,1.885,1.8918,1.8979,1.9088,1.8762,1.8762,1.8762,1.8762,1.8762,1.8762,1.8762,1.8762,1.8762,1.8762,1.8762,1.8762,1.8762,1.8762,1.8762,1.8878,1.8987,1.911,1.9342,1.9914,2.0262,2.1064,2.1987,2.2217,2.2333,2.2217,2.1987,2.1525,2.1525,2.1756,2.1872,2.2217,2.29,2.3713,2.4746,2.5891,2.7147,2.8399,2.9534,3.0326,3.1003,3.1466,3.124,3.0417,2.9534,2.8253,2.6695,2.5151,2.4779,2.5731,2.5682,2.5752,2.587,2.5445,2.5409,2.5976,2.5757,2.5582,2.5684,2.5214,2.487,2.4746,2.3828,2.3599,2.3599,2.3369,2.3369,2.3369,2.3369,2.2909,2.2217,2.1756,2.1179,1.9914,1.9219,1.8878,1.8762,1.8762,1.8762,1.8762,1.8762,1.8762,1.8762,1.8762,1.8762,1.8762,1.8762,1.8762,1.8762,1.8762,1.8762,1.8762,1.8762,1.8762,1.8762,1.8762,1.8762,1.8762,1.8762,1.8762,1.8762,1.8762,1.8762,1.8762,1.8762,1.8762,1.8762,1.8762,1.8762,1.8762,1.8776,1.8823,1.8959,1.9054,1.9196,1.8762,1.8762,1.8762,1.8762,1.8762,1.8762,1.8762,1.8762,1.8762,1.8762,1.8762,1.8762,1.8762,1.8762,1.8762,1.8762,1.8762,1.8762,1.8994,1.9226,1.9335,2.0023,2.0833,2.1064,2.1064,2.1064,2.0717,2.0717,2.0717,2.0601,2.0833,2.1179,2.1525,2.2333,2.3484,2.4173,2.5319,2.6691,2.7717,2.8626,2.9534,2.9873,2.9771,2.8925,2.7948,2.6456,2.4411,2.3208,2.3205,2.3974,2.4119,2.4337,2.4565,2.443,2.4615,2.5254,2.5021,2.4999,2.5237,2.4976,2.4861,2.4746,2.4402,2.4517,2.4517,2.4746,2.4746,2.4976,2.4861,2.4402,2.3713,2.3024,2.1641,2.003,1.9335,1.911,1.8878,1.8762,1.8762,1.8762,1.8762,1.8762,1.8762,1.8762,1.8762,1.8762,1.8762,1.8762,1.8762,1.8762,1.8762,1.8762,1.8762,1.8762,1.8762,1.8762,1.8762,1.8762,1.8762,1.8762,1.8742,1.8742,1.8762,1.8762,1.8762,1.8762,1.8762,1.8762,1.8762,1.8762,1.8762,1.8823,1.8959,1.9074,1.9223,1.8762,1.8762,1.8762,1.8762,1.8762,1.8762,1.8762,1.8762,1.8762,1.8762,1.8762,1.8762,1.8762,1.8762,1.8762,1.8762,1.8762,1.8762,1.8762,1.8878,1.8994,1.9451,2.0139,2.0254,2.0254,2.0254,2.0377,2.0377,2.0262,2.0262,2.037,2.0377,2.0486,2.1064,2.2102,2.2448,2.3484,2.4746,2.5891,2.6691,2.7489,2.7831,2.7831,2.7345,2.6092,2.4415,2.2712,2.1816,2.2022,2.2777,2.2734,2.2742,2.2869,2.3016,2.3421,2.3725,2.4014,2.4182,2.4358,2.4402,2.4402,2.4517,2.4517,2.4746,2.5205,2.5434,2.5663,2.6244,2.5777,2.5328,2.4632,2.3484,2.1872,2.0262,1.9799,1.9451,1.8994,1.8762,1.8762,1.8762,1.8762,1.8762,1.8762,1.8762,1.8762,1.8762,1.8762,1.8762,1.8762,1.8762,1.8762,1.8762,1.8762,1.8762,1.8762,1.8762,1.8762,1.8762,1.8762,1.8749,1.8708,1.8715,1.8749,1.8762,1.8762,1.8762,1.8762,1.8762,1.8755,1.8762,1.8762,1.8843,1.8952,1.904,1.9162,1.8762,1.8762,1.8762,1.8762,1.8762,1.8762,1.8762,1.8762,1.8762,1.8762,1.8762,1.8762,1.8762,1.8762,1.8762,1.8762,1.8762,1.8762,1.8762,1.8762,1.8762,1.8878,1.9219,1.9219,1.9219,1.9219,1.9219,1.9219,1.9219,1.9335,1.9219,1.9335,1.9799,2.003,2.0486,2.1756,2.2563,2.3254,2.4517,2.5319,2.5663,2.612,2.612,2.5653,2.412,2.2759,2.1603,2.088,2.0667,2.0709,2.0674,2.0938,2.1381,2.1874,2.2382,2.2954,2.364,2.398,2.4244,2.4173,2.4517,2.4755,2.4861,2.5434,2.6472,2.6472,2.6815,2.7271,2.7043,2.6015,2.4632,2.3369,2.1987,2.0724,2.003,1.9451,1.8994,1.8762,1.8762,1.8762,1.8762,1.8762,1.8762,1.8762,1.8762,1.8762,1.8762,1.8762,1.8762,1.8762,1.8762,1.8762,1.8762,1.8762,1.8762,1.8762,1.8762,1.8735,1.8728,1.8708,1.8667,1.8633,1.8647,1.8701,1.8762,1.8749,1.8701,1.8735,1.8728,1.8742,1.8769,1.8837,1.8918,1.9,1.9088,1.8762,1.8762,1.8762,1.8762,1.8762,1.8762,1.8762,1.8762,1.8762,1.8762,1.8762,1.8762,1.8762,1.8762,1.8762,1.8762,1.8762,1.8762,1.8762,1.8762,1.8762,1.8762,1.8762,1.8762,1.8762,1.8762,1.8878,1.8762,1.8762,1.8762,1.8878,1.8762,1.911,1.9451,1.9683,2.0724,2.1302,2.1756,2.2793,2.3484,2.3599,2.4058,2.4058,2.3475,2.2217,2.1248,2.0605,2.0252,1.9813,1.9455,1.9355,1.9607,2.0349,2.0845,2.1331,2.1693,2.2163,2.2572,2.29,2.3254,2.3722,2.4296,2.487,2.5672,2.6358,2.6815,2.7271,2.7613,2.7271,2.6244,2.4517,2.3828,2.2563,2.0948,2.0377,1.9799,1.8994,1.8762,1.8762,1.8762,1.8762,1.8762,1.8762,1.8762,1.8762,1.8762,1.8762,1.8762,1.8762,1.8762,1.8762,1.8762,1.8762,1.8762,1.8762,1.8762,1.8762,1.8721,1.8667,1.8633,1.8579,1.8552,1.8525,1.8572,1.8599,1.8613,1.8586,1.8633,1.8701,1.8742,1.8776,1.8816,1.8871,1.8938,1.9013,1.8762,1.8762,1.8762,1.8762,1.8762,1.8762,1.8762,1.8762,1.8762,1.8762,1.8762,1.8762,1.8762,1.8762,1.8762,1.8762,1.8762,1.8762,1.8762,1.8762,1.8762,1.8762,1.8762,1.8762,1.8762,1.8762,1.8762,1.8762,1.8762,1.8762,1.8762,1.8762,1.8762,1.911,1.9451,1.9683,2.0146,2.0609,2.1295,2.1641,2.1641,2.2102,2.1987,2.1641,2.0948,2.037,1.9893,1.9654,1.9265,1.8579,1.8565,1.9069,1.9697,2.0046,2.0156,2.0293,2.0757,2.1164,2.1641,2.211,2.2686,2.327,2.419,2.5214,2.5891,2.6472,2.7043,2.7271,2.7033,2.6129,2.4517,2.3943,2.2793,2.1295,2.0601,2.003,1.911,1.8762,1.8762,1.8762,1.8762,1.8762,1.8762,1.8762,1.8762,1.8762,1.8762,1.8762,1.8762,1.8762,1.8762,1.8762,1.8762,1.8762,1.8762,1.8762,1.8762,1.8715,1.8647,1.8552,1.8484,1.8396,1.8355,1.8369,1.8396,1.8423,1.8477,1.8545,1.862,1.8708,1.8762,1.8789,1.883,1.8877,1.8945,1.8762,1.8762,1.8762,1.8762,1.8762,1.8762,1.8762,1.8762,1.8762,1.8762,1.8762,1.8762,1.8762,1.8762,1.8762,1.8762,1.8762,1.8762,1.8762,1.8762,1.8762,1.8762,1.8762,1.8762,1.8762,1.8762,1.8762,1.8762,1.8762,1.8762,1.8762,1.8762,1.8762,1.8878,1.911,1.9458,1.9683,1.9914,2.037,2.0609,2.0717,2.084,2.0833,2.0601,2.0146,1.9799,1.9567,1.9226,1.8865,1.8728,1.8721,1.8817,1.9108,1.9505,1.9641,1.9835,2.0117,2.0493,2.084,2.1302,2.1995,2.2571,2.3377,2.4182,2.5099,2.5777,2.6348,2.6691,2.6463,2.5672,2.4517,2.3837,2.2686,2.1179,2.0486,2.003,1.911,1.8762,1.8762,1.8762,1.8762,1.8762,1.8762,1.8762,1.8762,1.8762,1.8762,1.8762,1.8762,1.8762,1.8762,1.8762,1.8762,1.8762,1.8762,1.8762,1.8755,1.8708,1.8626,1.8477,1.8375,1.8226,1.8172,1.8192,1.824,1.8294,1.8362,1.8437,1.8525,1.8606,1.8681,1.8755,1.8789,1.883,1.8871,1.8762,1.8762,1.8762,1.8762,1.8762,1.8762,1.8762,1.8762,1.8762,1.8762,1.8762,1.8762,1.8762,1.8762,1.8762,1.8762,1.8762,1.8762,1.8762,1.8762,1.8762,1.8762,1.8762,1.8762,1.8762,1.8762,1.8762,1.8762,1.8762,1.8762,1.8762,1.8762,1.8762,1.8762,1.8878,1.911,1.9226,1.9335,1.9567,1.9683,1.9683,1.9683,1.9683,1.9567,1.9451,1.9219,1.9219,1.8987,1.8762,1.8755,1.8762,1.8762,1.8858,1.8946,1.9143,1.9321,1.9567,1.9799,2.003,2.0493,2.084,2.1525,2.2341,2.3147,2.3828,2.4517,2.5319,2.5434,2.5434,2.487,2.3837,2.3262,2.2225,2.0948,2.037,1.9799,1.911,1.8878,1.8762,1.8762,1.8762,1.8762,1.8762,1.8762,1.8762,1.8762,1.8762,1.8762,1.8762,1.8762,1.8762,1.8762,1.8762,1.8762,1.8762,1.8762,1.8762,1.8721,1.862,1.8464,1.8314,1.8179,1.8063,1.8023,1.8084,1.8179,1.8233,1.8308,1.8409,1.8525,1.8654,1.8749,1.8755,1.8782,1.8823,1.8762,1.8762,1.8762,1.8762,1.8762,1.8762,1.8762,1.8762,1.8762,1.8762,1.8762,1.8762,1.8762,1.8762,1.8762,1.8762,1.8762,1.8762,1.8762,1.8762,1.8762,1.8762,1.8762,1.8762,1.8762,1.8762,1.8762,1.8762,1.8762,1.8762,1.8762,1.8762,1.8762,1.8762,1.8878,1.8878,1.8762,1.8762,1.8762,1.8762,1.8762,1.8762,1.8762,1.8762,1.8762,1.8878,1.8878,1.8878,1.8762,1.8762,1.8762,1.8762,1.8762,1.8762,1.8762,1.8762,1.8762,1.911,1.9335,1.9799,2.003,2.0609,2.1525,2.1987,2.2448,2.3139,2.4058,2.4058,2.3943,2.3837,2.3262,2.2563,2.1641,2.0724,1.9914,1.9451,1.8994,1.8762,1.8762,1.8762,1.8762,1.8762,1.8762,1.8762,1.8762,1.8762,1.8762,1.8762,1.8762,1.8762,1.8762,1.8762,1.8762,1.8762,1.8762,1.8762,1.8762,1.8749,1.862,1.8464,1.8308,1.8152,1.8077,1.8036,1.7996,1.8084,1.8131,1.8219,1.8369,1.8518,1.866,1.8742,1.8755,1.8762,1.8782,1.8762,1.8762,1.8762,1.8762,1.8762,1.8762,1.8762,1.8762,1.8762,1.8762,1.8762,1.8762,1.8762,1.8762,1.8762,1.8762,1.8762,1.8762,1.8762,1.8762,1.8762,1.8762,1.8762,1.8762,1.8762,1.8762,1.8762,1.8762,1.8762,1.8762,1.8762,1.8762,1.8762,1.8762,1.8762,1.8762,1.8762,1.8762,1.8762,1.8762,1.8762,1.8762,1.8762,1.8762,1.8762,1.8762,1.8762,1.8762,1.8762,1.8762,1.8762,1.8762,1.8762,1.8762,1.8762,1.8762,1.8762,1.8878,1.8994,1.9335,1.9567,1.9914,2.0486,2.0724,2.1295,2.1987,2.2909,2.3484,2.3024,2.2678,2.2341,2.1525,2.0609,2.0146,1.9683,1.9335,1.8994,1.8762,1.8762,1.8762,1.8762,1.8762,1.8762,1.8762,1.8762,1.8762,1.8762,1.8762,1.8762,1.8762,1.8762,1.8762,1.8762,1.8762,1.8762,1.8762,1.8762,1.8762,1.862,1.8477,1.8375,1.826,1.8213,1.8165,1.8097,1.8091,1.8199,1.8301,1.8389,1.8511,1.8654,1.8721,1.8762,1.8762,1.8762,1.8762,1.8762,1.8762,1.8762,1.8762,1.8762,1.8762,1.8762,1.8762,1.8762,1.8762,1.8762,1.8762,1.8762,1.8762,1.8762,1.8762,1.8762,1.8762,1.8762,1.8762,1.8762,1.8762,1.8762,1.8762,1.8762,1.8762,1.8762,1.8762,1.8762,1.8762,1.8762,1.8762,1.8762,1.8762,1.8762,1.8762,1.8762,1.8762,1.8762,1.8762,1.8762,1.8762,1.8762,1.8762,1.8762,1.8762,1.8762,1.8762,1.8762,1.8762,1.8762,1.8762,1.8762,1.8762,1.8762,1.8762,1.8762,1.8878,1.911,1.9226,1.9335,1.9799,2.0262,2.0601,2.1064,2.1525,2.1756,2.1641,2.1525,2.1295,2.0601,2.0146,1.9683,1.9458,1.9219,1.8878,1.8878,1.8762,1.8762,1.8762,1.8762,1.8769,1.8789,1.8782,1.8762,1.8762,1.8762,1.8762,1.8762,1.8762,1.8762,1.8762,1.8762,1.8762,1.8762,1.8762,1.8742,1.864,1.8518,1.8477,1.8403,1.8342,1.8294,1.8247,1.826,1.8314,1.8375,1.847,1.8559,1.8654,1.8708,1.8762,1.8769,1.881,1.8762,1.8762,1.8762,1.8762,1.8762,1.8762,1.8762,1.8762,1.8762,1.8762,1.8762,1.8762,1.8762,1.8762,1.8762,1.8762,1.8762,1.8762,1.8762,1.8762,1.8762,1.8762,1.8762,1.8762,1.8762,1.8762,1.8762,1.8762,1.8762,1.8762,1.8762,1.8762,1.8762,1.8762,1.8762,1.8762,1.8762,1.8762,1.8762,1.8762,1.8762,1.8762,1.8762,1.8762,1.8762,1.8762,1.8762,1.8762,1.8762,1.8762,1.8762,1.8762,1.8762,1.8762,1.8762,1.8762,1.8762,1.8762,1.8762,1.8878,1.8762,1.8994,1.911,1.9683,2.003,2.0262,2.037,2.0486,2.0493,2.0493,2.0262,1.9799,1.9567,1.9335,1.911,1.8878,1.8762,1.8762,1.8762,1.8762,1.8762,1.8762,1.8776,1.8816,1.881,1.8769,1.8762,1.8762,1.8762,1.8762,1.8762,1.8762,1.8762,1.8762,1.8762,1.8762,1.8762,1.8735,1.864,1.8593,1.8579,1.8518,1.8443,1.8403,1.8389,1.8443,1.8511,1.8525,1.8545,1.8633,1.8708,1.8735,1.8762,1.8782,1.8877,1.8762,1.8762,1.8762,1.8762,1.8762,1.8762,1.8762,1.8762,1.8762,1.8762,1.8762,1.8762,1.8762,1.8762,1.8762,1.8762,1.8762,1.8762,1.8762,1.8762,1.8762,1.8762,1.8762,1.8762,1.8762,1.8762,1.8762,1.8762,1.8762,1.8762,1.8762,1.8762,1.8762,1.8762,1.8762,1.8762,1.8762,1.8762,1.8762,1.8762,1.8762,1.8762,1.8762,1.8762,1.8762,1.8762,1.8762,1.8762,1.8762,1.8762,1.8762,1.8762,1.8762,1.8762,1.8762,1.8762,1.8762,1.8762,1.8762,1.8762,1.8762,1.8762,1.8878,1.8994,1.9219,1.9567,1.9683,1.9799,1.9799,1.9799,1.9567,1.9335,1.9103,1.8994,1.8878,1.8878,1.8762,1.8762,1.8762,1.8762,1.8776,1.881,1.8864,1.8911,1.8891,1.8857,1.8823,1.8823,1.8769,1.8762,1.8762,1.8762,1.8762,1.8762,1.8762,1.8762,1.8762,1.8762,1.8708,1.8701,1.8715,1.864,1.8552,1.8579,1.8579,1.864,1.8674,1.864,1.864,1.8715,1.8762,1.8776,1.8823,1.8871,1.8993,1.8762,1.8762,1.8762,1.8762,1.8762,1.8762,1.8762,1.8762,1.8762,1.8762,1.8762,1.8762,1.8762,1.8762,1.8762,1.8762,1.8762,1.8762,1.8762,1.8762,1.8762,1.8762,1.8762,1.8762,1.8762,1.8762,1.8762,1.8762,1.8762,1.8762,1.8762,1.8762,1.8762,1.8762,1.8762,1.8762,1.8762,1.8762,1.8762,1.8762,1.8762,1.8762,1.8762,1.8762,1.8762,1.8762,1.8762,1.8762,1.8762,1.8762,1.8762,1.8762,1.8762,1.8762,1.8762,1.8762,1.8762,1.8762,1.8762,1.8762,1.8762,1.8762,1.8762,1.8762,1.8762,1.911,1.911,1.911,1.9226,1.9219,1.9103,1.8987,1.8878,1.8762,1.8762,1.8762,1.8762,1.8762,1.8789,1.8803,1.8864,1.8918,1.8972,1.9033,1.8993,1.8945,1.8911,1.8871,1.8803,1.8762,1.8762,1.8762,1.8762,1.8782,1.8789,1.8776,1.8769,1.8782,1.8796,1.8816,1.883,1.8755,1.8694,1.8728,1.8749,1.8776,1.8762,1.8715,1.8715,1.8755,1.8782,1.881,1.8871,1.8966,1.9108,1.8762,1.8762,1.8762,1.8762,1.8762,1.8762,1.8762,1.8762,1.8762,1.8762,1.8762,1.8762,1.8762,1.8762,1.8762,1.8762,1.8762,1.8762,1.8762,1.8762,1.8762,1.8762,1.8762,1.8762,1.8762,1.8762,1.8762,1.8762,1.8762,1.8762,1.8762,1.8762,1.8762,1.8762,1.8762,1.8762,1.8762,1.8762,1.8762,1.8762,1.8762,1.8762,1.8762,1.8762,1.8762,1.8762,1.8762,1.8762,1.8762,1.8762,1.8762,1.8762,1.8762,1.8762,1.8762,1.8762,1.8762,1.8762,1.8762,1.8762,1.8762,1.8762,1.8762,1.8762,1.8762,1.8762,1.8878,1.8878,1.8878,1.8762,1.8762,1.8762,1.8762,1.8762,1.8762,1.8762,1.8762,1.8762,1.881,1.885,1.8925,1.8993,1.9108,1.9156,1.9094,1.9027,1.8959,1.8891,1.8789,1.8762,1.8762,1.8762,1.8762,1.8796,1.883,1.885,1.8891,1.8979,1.8979,1.8952,1.8938,1.8877,1.8884,1.8938,1.8945,1.8905,1.8905,1.8925,1.885,1.8769,1.8823,1.8898,1.9027,1.9128,1.923,1.8762,1.8762,1.8762,1.8762,1.8762,1.8762,1.8762,1.8762,1.8762,1.8762,1.8762,1.8762,1.8762,1.8762,1.8762,1.8762,1.8762,1.8762,1.8762,1.8762,1.8762,1.8762,1.8762,1.8762,1.8762,1.8762,1.8762,1.8762,1.8762,1.8762,1.8762,1.8762,1.8762,1.8762,1.8762,1.8762,1.8762,1.8762,1.8762,1.8762,1.8762,1.8762,1.8762,1.8762,1.8762,1.8762,1.8762,1.8762,1.8762,1.8762,1.8762,1.8762,1.8762,1.8762,1.8762,1.8762,1.8762,1.8762,1.8762,1.8762,1.8762,1.8762,1.8762,1.8762,1.8762,1.8762,1.8762,1.8762,1.8762,1.8762,1.8762,1.8762,1.8762,1.8762,1.8762,1.8789,1.8789,1.8816,1.8871,1.8972,1.9006,1.9054,1.9196,1.9278,1.9203,1.9122,1.9027,1.8918,1.8796,1.8769,1.8769,1.8823,1.883,1.8898,1.8945,1.8972,1.9027,1.9122,1.9149,1.9094,1.9088,1.9081,1.9101,1.9156,1.9115,1.9054,1.9108,1.9176,1.9074,1.8979,1.8966,1.9033,1.9169,1.9284,1.9366,1.8762,1.8762,1.8762,1.8762,1.8762,1.8762,1.8762,1.8762,1.8762,1.8762,1.8762,1.8762,1.8762,1.8762,1.8762,1.8762,1.8762,1.8762,1.8762,1.8762,1.8762,1.8762,1.8762,1.8762,1.8762,1.8762,1.8762,1.8762,1.8762,1.8762,1.8762,1.8762,1.8762,1.8762,1.8762,1.8762,1.8762,1.8762,1.8762,1.8762,1.8762,1.8762,1.8762,1.8762,1.8762,1.8762,1.8762,1.8762,1.8762,1.8762,1.8762,1.8762,1.8762,1.8762,1.8762,1.8762,1.8762,1.8762,1.8762,1.8762,1.8762,1.8762,1.8762,1.8762,1.8762,1.8762,1.8762,1.8762,1.8762,1.8762,1.8762,1.8762,1.8762,1.8762,1.8776,1.8843,1.8871,1.8911,1.8972,1.9115,1.9196,1.9298,1.9427,1.9352,1.9271,1.9176,1.9074,1.8932,1.8803,1.8789,1.8789,1.8891,1.8945,1.9013,1.9067,1.9115,1.9156,1.9237,1.923,1.9169,1.9183,1.925,1.9237,1.925,1.9223,1.9203,1.925,1.9291,1.9264,1.921,1.9196,1.921,1.9325,1.94,1.9447,1.8762,1.8762,1.8762,1.8762,1.8762,1.8762,1.8762,1.8762,1.8762,1.8762,1.8762,1.8762,1.8762,1.8762,1.8762,1.8762,1.8762,1.8762,1.8762,1.8762,1.8762,1.8762,1.8762,1.8762,1.8762,1.8762,1.8762,1.8762,1.8762,1.8762,1.8762,1.8762,1.8762,1.8762,1.8762,1.8762,1.8762,1.8762,1.8762,1.8762,1.8762,1.8762,1.8762,1.8762,1.8762,1.8762,1.8762,1.8762,1.8762,1.8762,1.8762,1.8762,1.8762,1.8762,1.8762,1.8762,1.8762,1.8762,1.8762,1.8762,1.8762,1.8762,1.8762,1.8762,1.8762,1.8762,1.8762,1.8762,1.8762,1.8762,1.8762,1.8762,1.8762,1.8762,1.8837,1.8905,1.8966,1.9006,1.9122,1.9264,1.9339,1.9474,1.9535,1.9447,1.9332,1.9223,1.9115,1.8959,1.883,1.8837,1.8864,1.8972,1.9074,1.9149,1.9217,1.9271,1.9312,1.9352,1.9339,1.9318,1.9373,1.9454,1.9393,1.9359,1.9393,1.9413,1.9386,1.9393,1.9406,1.942,1.9427,1.9454,1.9501,1.9522,1.9542,1.8762,1.8762,1.8762,1.8762,1.8762,1.8762,1.8762,1.8762,1.8762,1.8762,1.8762,1.8762,1.8762,1.8762,1.8762,1.8762,1.8762,1.8762,1.8762,1.8762,1.8762,1.8762,1.8762,1.8762,1.8762,1.8762,1.8762,1.8762,1.8762,1.8762,1.8762,1.8762,1.8762,1.8762,1.8762,1.8762,1.8762,1.8762,1.8762,1.8762,1.8762,1.8762,1.8762,1.8762,1.8762,1.8762,1.8762,1.8762,1.8762,1.8762,1.8762,1.8762,1.8762,1.8762,1.8762,1.8762,1.8762,1.8762,1.8762,1.8762,1.8762,1.8762,1.8762,1.8762,1.8762,1.8762,1.8762,1.8762,1.8762,1.8762,1.8762,1.8769,1.8776,1.883,1.8911,1.8979,1.9054,1.9149,1.9278,1.9366,1.94,1.9454,1.9413,1.9345,1.925,1.9156,1.9047,1.8993,1.8891,1.8925,1.8972,1.9081,1.9183,1.9284,1.9352,1.942,1.9461,1.9495,1.9542,1.9542,1.9603,1.9603,1.9549,1.9535,1.961,1.9617,1.9542,1.9556,1.961,1.961,1.9563,1.9576,1.9583,1.9603,1.9624,1.8762,1.8762,1.8762,1.8762,1.8762,1.8762,1.8762,1.8762,1.8762,1.8762,1.8762,1.8762,1.8762,1.8762,1.8762,1.8762,1.8762,1.8762,1.8762,1.8762,1.8762,1.8762,1.8762,1.8762,1.8762,1.8762,1.8762,1.8762,1.8762,1.8762,1.8762,1.8762,1.8762,1.8762,1.8762,1.8762,1.8762,1.8762,1.8762,1.8762,1.8762,1.8762,1.8762,1.8762,1.8762,1.8762,1.8762,1.8762,1.8762,1.8762,1.8762,1.8762,1.8762,1.8762,1.8762,1.8762,1.8762,1.8762,1.8762,1.8762,1.8762,1.8762,1.8762,1.8762,1.8762,1.8762,1.8762,1.8762,1.8762,1.8762,1.8762,1.8769,1.8796,1.8864,1.8952,1.9054,1.9135,1.925,1.9373,1.94,1.9434,1.9339,1.9298,1.9189,1.9101,1.9027,1.8979,1.8959,1.8979,1.9027,1.9088,1.9203,1.9312,1.942,1.9508,1.9576,1.961,1.9644,1.9657,1.9664,1.9651,1.9644,1.9657,1.9664,1.9664,1.9664,1.9651,1.9664,1.9664,1.9664,1.963,1.9651,1.9664,1.9664,1.9664,1.8762,1.8762,1.8762,1.8762,1.8762,1.8762,1.8762,1.8762,1.8762,1.8762,1.8762,1.8762,1.8762,1.8762,1.8762,1.8762,1.8762,1.8762,1.8762,1.8762,1.8762,1.8762,1.8762,1.8762,1.8762,1.8762,1.8762,1.8762,1.8762,1.8762,1.8762,1.8762,1.8762,1.8762,1.8762,1.8762,1.8762,1.8762,1.8762,1.8762,1.8762,1.8762,1.8762,1.8762,1.8762,1.8762,1.8762,1.8762,1.8762,1.8762,1.8762,1.8762,1.8762,1.8762,1.8762,1.8762,1.8762,1.8762,1.8762,1.8762,1.8762,1.8762,1.8762,1.8762,1.8762,1.8762,1.8762,1.8762,1.8762,1.8762,1.8762,1.8769,1.8823,1.8877,1.9,1.9122,1.923,1.9345,1.9393,1.942,1.9366,1.9257,1.9156,1.9047,1.8966,1.8918,1.8959,1.9033,1.9094,1.9189,1.925,1.9339,1.9447,1.9556,1.963,1.9664,1.9664,1.9657,1.9664,1.9664,1.9664,1.9664,1.9664,1.9664,1.9664,1.9664,1.9664,1.9664,1.9664,1.9664,1.9664,1.9664,1.9664,1.9664,1.9664,1.8762,1.8762,1.8762,1.8762,1.8762,1.8762,1.8762,1.8762,1.8762,1.8762,1.8762,1.8762,1.8762,1.8762,1.8762,1.8762,1.8762,1.8762,1.8762,1.8762,1.8762,1.8762,1.8762,1.8762,1.8762,1.8762,1.8762,1.8762,1.8762,1.8762,1.8762,1.8762,1.8762,1.8762,1.8762,1.8762,1.8762,1.8762,1.8762,1.8762,1.8762,1.8762,1.8762,1.8762,1.8762,1.8762,1.8762,1.8762,1.8762,1.8762,1.8762,1.8762,1.8762,1.8762,1.8762,1.8762,1.8762,1.8762,1.8762,1.8762,1.8762,1.8762,1.8762,1.8762,1.8762,1.8762,1.8762,1.8762,1.8762,1.8762,1.8762,1.8769,1.881,1.8891,1.9006,1.9094,1.9183,1.9264,1.9291,1.9298,1.9223,1.9115,1.9013,1.8905,1.8884,1.8837,1.8938,1.9074,1.9183,1.9305,1.94,1.9468,1.9535,1.9617,1.9637,1.9664,1.9664,1.9664,1.9664,1.9664,1.9664,1.9664,1.9664,1.9664,1.9664,1.9664,1.9664,1.9664,1.9664,1.9664,1.9664,1.9664,1.9664,1.9657,1.9664,1.8762,1.8762,1.8762,1.8762,1.8762,1.8762,1.8762,1.8762,1.8762,1.8762,1.8762,1.8762,1.8762,1.8762,1.8762,1.8762,1.8762,1.8762,1.8762,1.8762,1.8762,1.8762,1.8762,1.8762,1.8762,1.8762,1.8762,1.8762,1.8762,1.8762,1.8762,1.8762,1.8762,1.8762,1.8762,1.8762,1.8762,1.8762,1.8762,1.8762,1.8762,1.8762,1.8762,1.8762,1.8762,1.8762,1.8762,1.8762,1.8762,1.8762,1.8762,1.8762,1.8762,1.8762,1.8762,1.8762,1.8762,1.8762,1.8762,1.8762,1.8762,1.8762,1.8762,1.8762,1.8762,1.8762,1.8762,1.8762,1.8762,1.8762,1.8762,1.8776,1.8796,1.8898,1.9,1.9061,1.9122,1.9142,1.9176,1.9122,1.9054,1.8972,1.8871,1.8823,1.8796,1.8884,1.9054,1.9183,1.9271,1.9379,1.9515,1.9583,1.9603,1.9651,1.9664,1.9664,1.9664,1.9664,1.9664,1.9664,1.9664,1.9664,1.9664,1.9664,1.9664,1.9664,1.9664,1.9664,1.9664,1.9664,1.9664,1.9664,1.9651,1.9644,1.9657,1.8762,1.8762,1.8762,1.8762,1.8762,1.8762,1.8762,1.8762,1.8762,1.8762,1.8762,1.8762,1.8762,1.8762,1.8762,1.8762,1.8762,1.8762,1.8762,1.8762,1.8762,1.8762,1.8762,1.8762,1.8762,1.8762,1.8762,1.8762,1.8762,1.8762,1.8762,1.8762,1.8762,1.8762,1.8762,1.8762,1.8762,1.8762,1.8762,1.8762,1.8762,1.8762,1.8762,1.8762,1.8762,1.8762,1.8762,1.8762,1.8762,1.8762,1.8762,1.8762,1.8762,1.8762,1.8762,1.8762,1.8762,1.8762,1.8762,1.8762,1.8762,1.8762,1.8762,1.8762,1.8762,1.8762,1.8762,1.8762,1.8762,1.8762,1.8762,1.8769,1.8776,1.8837,1.8945,1.9027,1.9013,1.8986,1.8979,1.8925,1.8884,1.8871,1.8796,1.8789,1.8782,1.883,1.902,1.9169,1.9278,1.9413,1.9563,1.9657,1.9651,1.9657,1.9664,1.9664,1.9664,1.9664,1.9664,1.9664,1.9664,1.9664,1.9664,1.9664,1.9664,1.9664,1.9664,1.9664,1.9664,1.9664,1.9664,1.9664,1.9644,1.9603,1.9563,1.8762,1.8762,1.8762,1.8762,1.8762,1.8762,1.8762,1.8762,1.8762,1.8762,1.8762,1.8762,1.8762,1.8762,1.8762,1.8762,1.8762,1.8762,1.8762,1.8762,1.8762,1.8762,1.8762,1.8762,1.8762,1.8762,1.8762,1.8762,1.8762,1.8762,1.8762,1.8762,1.8762,1.8762,1.8762,1.8762,1.8762,1.8762,1.8762,1.8762,1.8762,1.8762,1.8762,1.8762,1.8762,1.8762,1.8762,1.8762,1.8762,1.8762,1.8762,1.8762,1.8762,1.8762,1.8762,1.8762,1.8762,1.8762,1.8762,1.8762,1.8762,1.8762,1.8762,1.8762,1.8762,1.8762,1.8762,1.8762,1.8762,1.8762,1.8762,1.8762,1.8769,1.8782,1.8884,1.8959,1.8905,1.8857,1.8816,1.8776,1.8769,1.8769,1.8769,1.8762,1.8782,1.883,1.8932,1.9067,1.9217,1.9373,1.9522,1.9603,1.963,1.9637,1.9657,1.9664,1.9664,1.9664,1.9664,1.9664,1.9664,1.9664,1.9664,1.9664,1.9664,1.9664,1.9664,1.9664,1.9664,1.9664,1.9664,1.9651,1.9563,1.9515,1.9427,1.8762,1.8762,1.8762,1.8762,1.8762,1.8762,1.8762,1.8762,1.8762,1.8762,1.8762,1.8762,1.8762,1.8762,1.8762,1.8762,1.8762,1.8762,1.8762,1.8762,1.8789,1.8776,1.8796,1.885,1.8776,1.8789,1.881,1.8776,1.8843,1.8816,1.8769,1.8776,1.8776,1.8769,1.8762,1.8762,1.8762,1.8762,1.8762,1.8762,1.8762,1.8762,1.8762,1.8762,1.8762,1.8762,1.8762,1.8762,1.8762,1.8762,1.8762,1.8762,1.8762,1.8762,1.8762,1.8762,1.8762,1.8762,1.8762,1.8762,1.8762,1.8762,1.8762,1.8762,1.8762,1.8762,1.8762,1.8762,1.8762,1.8762,1.8762,1.8762,1.8762,1.8762,1.8823,1.883,1.8803,1.8796,1.8782,1.8769,1.8762,1.8762,1.8762,1.8762,1.8762,1.8823,1.8911,1.904,1.9088,1.9278,1.9474,1.9529,1.9583,1.963,1.9657,1.9664,1.9664,1.9664,1.9664,1.9664,1.9664,1.9664,1.9664,1.9664,1.9664,1.9664,1.9664,1.9664,1.9664,1.9664,1.9664,1.9637,1.9535,1.9406,1.9298]}]]